[[{"header":{"parameterUnit":"m.s-1","parameterCategory":1,"la1":30.6,"la2":29.2853,"lo1":-89.7004,"lo2":-87.6739,"dy":0.0162,"dx":0.0183,"nx":112,"ny":82,"refTime":"2023-06-15T12:00:00:Z","depth":0,"parameterNumber":2,"parameterNumberName":"U-component_of_WINDS"},"data":[0.0,0.0,0.0,0.0,0.0,0.0,0.0,0.0,0.0,0.0,0.0,0.0,0.0,0.0,0.0,0.0,0.0,0.0,0.0,0.0,0.0,0.0,0.0,0.0,0.0,0.0,0.0,0.0,0.0,0.0,0.0,0.0,0.0,0.0,0.0,0.0,0.0,0.0,0.0,0.0,0.0,0.0,0.0,0.0,0.0,0.0,0.0,0.0,0.0,0.0,0.0,0.0,0.0,0.0,0.0,0.0,0.0,0.0,0.0,0.0,0.0,0.0,0.0,0.0,0.0,0.0,0.0,0.0,0.0,0.0,0.0,0.0,0.0,0.0,0.0,0.0,0.0,0.0,0.0,0.0,0.0,0.0,0.0,0.0,0.0,0.0,0.0,0.0,0.0,0.0,0.0,-4.18,-4.2526,-4.2927,-4.3024,-4.2221,-4.1361,-4.0473,0.0,0.0,0.0,0.0,0.0,0.0,0.0,0.0,0.0,0.0,0.0,0.0,0.0,0.0,0.0,0.0,0.0,0.0,0.0,0.0,0.0,0.0,0.0,0.0,0.0,0.0,0.0,0.0,0.0,0.0,0.0,0.0,0.0,0.0,0.0,0.0,0.0,0.0,0.0,0.0,0.0,0.0,0.0,0.0,0.0,0.0,0.0,0.0,0.0,0.0,0.0,0.0,0.0,0.0,0.0,0.0,0.0,0.0,0.0,0.0,0.0,0.0,0.0,0.0,0.0,0.0,0.0,0.0,0.0,0.0,0.0,0.0,0.0,0.0,0.0,0.0,0.0,0.0,0.0,0.0,0.0,0.0,0.0,0.0,0.0,0.0,0.0,0.0,0.0,0.0,0.0,0.0,0.0,0.0,0.0,0.0,0.0,0.0,0.0,0.0,0.0,0.0,0.0,0.0,-4.2055,-4.3473,-4.3789,-4.3915,-4.3992,-4.3242,-4.2389,-4.1455,0.0,0.0,0.0,0.0,0.0,0.0,0.0,0.0,0.0,0.0,0.0,0.0,0.0,0.0,0.0,0.0,0.0,0.0,0.0,0.0,0.0,0.0,0.0,0.0,0.0,0.0,0.0,0.0,0.0,0.0,0.0,0.0,0.0,0.0,0.0,0.0,0.0,0.0,0.0,0.0,0.0,0.0,0.0,0.0,0.0,0.0,0.0,0.0,0.0,0.0,0.0,0.0,0.0,0.0,0.0,0.0,0.0,0.0,0.0,0.0,0.0,0.0,0.0,0.0,0.0,0.0,0.0,0.0,0.0,0.0,0.0,0.0,0.0,0.0,0.0,0.0,0.0,0.0,0.0,0.0,0.0,0.0,0.0,0.0,0.0,0.0,0.0,0.0,0.0,0.0,0.0,0.0,0.0,0.0,0.0,0.0,0.0,0.0,0.0,0.0,0.0,0.0,0.0,-4.1808,-4.2898,-4.4001,-4.4603,-4.4944,-4.5017,-4.4234,-4.3371,-4.2433,-4.0196,0.0,0.0,0.0,0.0,0.0,0.0,0.0,0.0,0.0,0.0,0.0,0.0,0.0,0.0,0.0,0.0,0.0,0.0,0.0,0.0,0.0,0.0,0.0,0.0,0.0,0.0,0.0,0.0,0.0,0.0,0.0,0.0,0.0,0.0,0.0,0.0,0.0,0.0,0.0,0.0,0.0,0.0,0.0,0.0,0.0,0.0,0.0,0.0,0.0,0.0,0.0,0.0,0.0,0.0,0.0,0.0,0.0,0.0,0.0,0.0,0.0,0.0,0.0,0.0,0.0,0.0,0.0,0.0,0.0,0.0,0.0,0.0,0.0,0.0,0.0,0.0,0.0,0.0,0.0,0.0,0.0,0.0,0.0,0.0,0.0,0.0,0.0,0.0,0.0,0.0,0.0,0.0,0.0,0.0,0.0,0.0,0.0,0.0,0.0,0.0,0.0,0.0,-4.2824,-4.3688,-4.4743,-4.5483,-4.5943,-4.6036,-4.5263,-4.4345,-4.342,-4.1557,0.0,0.0,0.0,0.0,0.0,0.0,0.0,0.0,0.0,0.0,0.0,0.0,0.0,0.0,0.0,0.0,0.0,0.0,0.0,0.0,0.0,0.0,0.0,0.0,0.0,0.0,0.0,0.0,0.0,0.0,0.0,0.0,0.0,0.0,0.0,0.0,0.0,0.0,0.0,0.0,0.0,0.0,0.0,0.0,0.0,0.0,0.0,0.0,0.0,0.0,0.0,0.0,0.0,0.0,0.0,0.0,0.0,0.0,0.0,0.0,0.0,0.0,0.0,0.0,0.0,0.0,0.0,0.0,0.0,0.0,0.0,0.0,0.0,0.0,0.0,0.0,0.0,0.0,0.0,0.0,0.0,0.0,0.0,0.0,0.0,0.0,0.0,0.0,0.0,0.0,0.0,0.0,0.0,0.0,0.0,0.0,0.0,0.0,0.0,0.0,0.0,0.0,-4.3726,-4.4833,-4.6532,-4.6846,-4.697,-4.708,-4.6312,-4.5395,-4.4467,-4.2514,0.0,0.0,0.0,0.0,0.0,0.0,0.0,0.0,0.0,0.0,0.0,0.0,0.0,0.0,0.0,0.0,0.0,0.0,0.0,0.0,0.0,0.0,0.0,0.0,0.0,0.0,0.0,0.0,0.0,0.0,0.0,0.0,0.0,0.0,0.0,0.0,0.0,0.0,0.0,0.0,0.0,0.0,0.0,0.0,0.0,0.0,0.0,0.0,0.0,0.0,0.0,0.0,0.0,0.0,0.0,0.0,0.0,0.0,0.0,0.0,0.0,0.0,0.0,0.0,0.0,0.0,0.0,0.0,0.0,0.0,0.0,0.0,0.0,0.0,0.0,0.0,0.0,0.0,0.0,0.0,0.0,0.0,0.0,0.0,0.0,0.0,0.0,0.0,0.0,0.0,0.0,0.0,0.0,0.0,0.0,0.0,0.0,0.0,0.0,0.0,0.0,0.0,-4.4352,-4.5632,0.0,-4.7548,-4.7973,-4.8075,-4.7777,-4.6938,-4.548,0.0,0.0,0.0,0.0,0.0,0.0,0.0,0.0,0.0,0.0,0.0,0.0,0.0,0.0,0.0,0.0,0.0,0.0,0.0,0.0,0.0,0.0,0.0,0.0,0.0,0.0,0.0,0.0,0.0,0.0,0.0,0.0,0.0,0.0,0.0,0.0,0.0,0.0,0.0,0.0,0.0,0.0,0.0,0.0,0.0,0.0,0.0,0.0,0.0,0.0,0.0,0.0,0.0,0.0,0.0,0.0,0.0,0.0,0.0,0.0,0.0,0.0,0.0,0.0,0.0,0.0,0.0,0.0,0.0,0.0,0.0,0.0,0.0,0.0,0.0,0.0,0.0,0.0,0.0,0.0,0.0,0.0,0.0,0.0,0.0,0.0,0.0,0.0,0.0,0.0,0.0,0.0,0.0,0.0,0.0,0.0,0.0,0.0,0.0,0.0,0.0,0.0,-4.3466,-4.5086,-4.66,0.0,-4.8535,-4.8953,-4.8999,-4.9004,-4.8244,-4.6445,0.0,0.0,0.0,0.0,0.0,0.0,0.0,0.0,0.0,0.0,0.0,0.0,0.0,0.0,0.0,0.0,0.0,0.0,0.0,0.0,0.0,0.0,0.0,0.0,0.0,0.0,0.0,0.0,0.0,0.0,0.0,0.0,0.0,0.0,0.0,0.0,0.0,0.0,0.0,0.0,0.0,0.0,0.0,0.0,0.0,0.0,0.0,0.0,0.0,0.0,0.0,0.0,0.0,0.0,0.0,0.0,0.0,0.0,0.0,0.0,0.0,0.0,0.0,0.0,0.0,0.0,0.0,0.0,0.0,0.0,0.0,0.0,0.0,0.0,0.0,0.0,0.0,0.0,0.0,0.0,0.0,0.0,0.0,0.0,0.0,0.0,0.0,0.0,0.0,0.0,0.0,0.0,0.0,0.0,0.0,0.0,0.0,0.0,0.0,0.0,0.0,0.0,-4.4314,-4.6005,-4.7789,-4.9533,-4.9866,-4.9937,-4.9925,-4.9925,-4.9204,0.0,0.0,0.0,0.0,0.0,0.0,0.0,0.0,0.0,0.0,0.0,0.0,0.0,0.0,0.0,0.0,0.0,0.0,0.0,0.0,0.0,0.0,0.0,0.0,0.0,0.0,0.0,0.0,0.0,0.0,0.0,0.0,0.0,0.0,0.0,0.0,0.0,0.0,0.0,0.0,0.0,0.0,0.0,0.0,0.0,0.0,0.0,0.0,0.0,0.0,0.0,0.0,0.0,0.0,0.0,0.0,0.0,0.0,0.0,0.0,0.0,0.0,0.0,0.0,0.0,0.0,0.0,0.0,0.0,0.0,0.0,0.0,0.0,0.0,0.0,0.0,0.0,0.0,0.0,0.0,0.0,0.0,0.0,0.0,0.0,0.0,0.0,0.0,0.0,0.0,0.0,0.0,0.0,0.0,0.0,0.0,0.0,0.0,0.0,0.0,0.0,0.0,0.0,-4.5125,-4.7442,-4.9381,-5.0544,-5.1806,-5.2608,-5.2635,-5.2095,-5.1219,-5.0037,0.0,0.0,0.0,0.0,0.0,0.0,0.0,0.0,0.0,0.0,0.0,0.0,0.0,0.0,0.0,0.0,0.0,0.0,0.0,0.0,0.0,0.0,0.0,0.0,0.0,0.0,0.0,0.0,0.0,0.0,0.0,0.0,0.0,0.0,0.0,0.0,0.0,0.0,0.0,0.0,0.0,0.0,0.0,0.0,0.0,0.0,0.0,0.0,0.0,0.0,0.0,0.0,0.0,0.0,0.0,0.0,0.0,0.0,0.0,0.0,0.0,0.0,0.0,0.0,0.0,0.0,0.0,0.0,0.0,0.0,0.0,0.0,0.0,0.0,0.0,0.0,0.0,0.0,0.0,0.0,0.0,0.0,0.0,0.0,0.0,0.0,0.0,0.0,0.0,0.0,0.0,0.0,0.0,0.0,0.0,0.0,0.0,0.0,0.0,0.0,0.0,0.0,-4.6515,-4.8763,-5.0695,-5.1953,-5.31,-5.3741,-5.3797,-5.3335,-5.2453,-5.119,0.0,0.0,0.0,0.0,0.0,0.0,0.0,0.0,0.0,0.0,0.0,0.0,0.0,0.0,0.0,0.0,0.0,0.0,0.0,0.0,0.0,0.0,0.0,0.0,0.0,0.0,0.0,0.0,0.0,0.0,0.0,0.0,0.0,0.0,0.0,0.0,0.0,0.0,0.0,0.0,0.0,0.0,0.0,0.0,0.0,0.0,0.0,0.0,0.0,0.0,0.0,0.0,0.0,0.0,0.0,0.0,0.0,0.0,0.0,0.0,0.0,0.0,0.0,0.0,0.0,0.0,0.0,0.0,0.0,0.0,0.0,0.0,0.0,0.0,0.0,0.0,0.0,0.0,0.0,0.0,0.0,0.0,0.0,0.0,0.0,0.0,0.0,0.0,0.0,0.0,0.0,0.0,0.0,0.0,0.0,0.0,0.0,0.0,0.0,0.0,0.0,0.0,-4.8284,-5.0116,-5.1918,-5.3652,-5.4097,-5.4269,-5.4269,-5.4113,-5.3273,-5.1535,0.0,0.0,0.0,0.0,0.0,0.0,0.0,0.0,0.0,0.0,0.0,0.0,0.0,0.0,0.0,0.0,0.0,0.0,0.0,0.0,0.0,0.0,0.0,0.0,0.0,0.0,0.0,0.0,0.0,0.0,0.0,0.0,0.0,0.0,0.0,0.0,0.0,0.0,0.0,0.0,0.0,0.0,0.0,0.0,0.0,0.0,0.0,0.0,0.0,0.0,0.0,0.0,0.0,0.0,0.0,0.0,0.0,0.0,0.0,0.0,-3.617,0.0,0.0,0.0,0.0,0.0,0.0,0.0,0.0,0.0,0.0,0.0,0.0,0.0,0.0,0.0,0.0,0.0,0.0,0.0,0.0,0.0,0.0,0.0,0.0,0.0,0.0,0.0,0.0,0.0,0.0,0.0,0.0,0.0,0.0,0.0,0.0,0.0,0.0,0.0,0.0,0.0,-4.9864,-5.1873,-5.3685,-5.5389,-5.6822,-5.7649,-5.7649,-5.6452,-5.5222,-5.4095,0.0,0.0,0.0,0.0,0.0,0.0,0.0,0.0,0.0,0.0,0.0,0.0,0.0,0.0,0.0,0.0,0.0,0.0,0.0,0.0,0.0,0.0,0.0,0.0,0.0,0.0,0.0,0.0,0.0,0.0,0.0,0.0,0.0,0.0,0.0,0.0,0.0,0.0,0.0,0.0,0.0,0.0,0.0,0.0,0.0,0.0,0.0,0.0,0.0,0.0,0.0,0.0,0.0,0.0,0.0,0.0,0.0,0.0,0.0,0.0,0.0,-3.7123,0.0,0.0,0.0,0.0,0.0,0.0,0.0,0.0,0.0,0.0,0.0,0.0,0.0,0.0,0.0,0.0,0.0,0.0,0.0,0.0,0.0,0.0,0.0,0.0,0.0,0.0,0.0,0.0,0.0,0.0,0.0,0.0,0.0,0.0,0.0,0.0,0.0,0.0,0.0,0.0,-5.1661,-5.3602,-5.5354,-5.7056,-5.8037,-5.8582,-5.8582,-5.7466,-5.6303,-5.5329,-5.3193,0.0,0.0,0.0,0.0,0.0,0.0,0.0,0.0,0.0,0.0,0.0,0.0,0.0,0.0,0.0,0.0,0.0,0.0,0.0,0.0,0.0,0.0,0.0,0.0,0.0,0.0,0.0,0.0,0.0,0.0,0.0,0.0,0.0,0.0,0.0,0.0,0.0,0.0,0.0,0.0,0.0,0.0,0.0,0.0,0.0,0.0,0.0,0.0,0.0,0.0,0.0,0.0,0.0,0.0,-4.3522,-4.3732,-4.3577,-4.3391,-4.3041,-4.1267,-3.946,-3.7849,0.0,0.0,0.0,0.0,0.0,0.0,0.0,0.0,0.0,0.0,0.0,0.0,0.0,0.0,0.0,0.0,0.0,0.0,0.0,0.0,0.0,0.0,0.0,0.0,0.0,-4.5086,-4.4772,0.0,0.0,0.0,0.0,0.0,0.0,0.0,0.0,0.0,0.0,0.0,0.0,-5.3475,-5.5104,-5.6753,-5.8491,-5.8839,-5.8896,-5.8887,-5.7998,-5.7033,-5.6038,-5.4187,-5.1931,0.0,0.0,0.0,0.0,0.0,0.0,0.0,0.0,0.0,0.0,0.0,0.0,0.0,0.0,0.0,0.0,0.0,0.0,0.0,0.0,0.0,0.0,0.0,0.0,0.0,0.0,0.0,0.0,0.0,0.0,0.0,0.0,-3.096,-3.1031,0.0,0.0,0.0,0.0,0.0,0.0,0.0,0.0,0.0,0.0,0.0,0.0,0.0,0.0,-4.3777,-4.4409,-4.4578,-4.4351,-4.5083,-4.5466,-4.5468,-4.5436,-4.559,-4.576,-4.4731,0.0,-3.9988,-3.9988,0.0,0.0,0.0,0.0,0.0,0.0,0.0,0.0,0.0,0.0,0.0,0.0,0.0,0.0,0.0,0.0,0.0,0.0,0.0,0.0,0.0,0.0,-4.5031,-4.7038,-4.7611,-4.7683,0.0,-4.6031,-4.4653,-4.4653,0.0,0.0,0.0,0.0,0.0,0.0,0.0,0.0,-5.506,-5.6305,-5.7569,-5.9276,-6.0123,-6.0575,-6.0492,-5.9018,-5.7692,-5.6733,-5.4334,-5.1752,-4.9029,-4.7319,0.0,0.0,0.0,0.0,0.0,0.0,0.0,0.0,0.0,0.0,0.0,0.0,0.0,0.0,0.0,0.0,0.0,0.0,0.0,0.0,0.0,0.0,0.0,0.0,0.0,0.0,0.0,0.0,0.0,-3.1414,-3.2564,-3.2878,-3.3975,-3.4948,0.0,0.0,0.0,0.0,0.0,0.0,0.0,0.0,0.0,-4.4778,-4.4676,-4.5244,-4.648,-4.6753,-4.6934,-4.7011,-4.7243,-4.7403,-4.7602,-4.739,-4.7369,-4.7335,-4.6687,-4.5417,-4.3725,-4.2233,-4.1024,-4.01,0.0,0.0,0.0,0.0,0.0,-3.865,-3.8829,0.0,0.0,0.0,0.0,0.0,0.0,0.0,0.0,0.0,0.0,0.0,0.0,0.0,0.0,-4.8531,-4.9523,-5.0154,-5.0416,-4.9797,-4.8816,0.0,-4.7688,-4.8105,-4.8145,0.0,0.0,0.0,0.0,0.0,-5.6625,-5.7658,-5.868,-5.9869,-6.0329,-6.0559,-6.052,-5.8949,-5.78,-5.7315,-5.446,-5.203,-5.0355,-4.8236,-4.6271,0.0,0.0,0.0,0.0,0.0,0.0,0.0,0.0,0.0,0.0,0.0,0.0,0.0,0.0,0.0,0.0,0.0,0.0,0.0,0.0,0.0,0.0,0.0,0.0,0.0,0.0,0.0,0.0,-3.3049,-3.4312,-3.4967,-3.6388,-3.7568,0.0,0.0,0.0,0.0,0.0,0.0,-4.372,-4.3573,-4.4666,-4.7349,-4.7298,-4.7784,-4.9027,-4.8994,-4.9227,-4.9648,-4.9442,-4.9518,-4.9803,-4.9464,-4.9297,-4.9228,-4.8505,-4.7934,-4.7276,-4.4625,-4.3085,-4.2391,-4.21,-4.1656,-4.1151,-4.1252,-4.0962,-4.0588,-4.0944,-4.1167,-4.1345,-4.1653,0.0,-4.0515,-4.0791,0.0,0.0,0.0,0.0,-4.4637,-4.6232,0.0,-4.8737,-5.0098,-5.1289,-5.2271,-5.2733,-5.3205,-5.2831,0.0,-5.0236,-5.0455,-5.0553,0.0,0.0,0.0,0.0,-5.6255,-5.7825,-5.8578,-5.9331,-6.0132,-6.0208,-6.0132,-5.9874,-5.8539,-5.7582,-5.7297,-5.4313,-5.2194,-5.1342,-4.9074,-4.7084,-4.5445,0.0,0.0,0.0,0.0,0.0,0.0,0.0,0.0,0.0,0.0,0.0,0.0,0.0,0.0,0.0,0.0,0.0,0.0,0.0,0.0,0.0,0.0,0.0,0.0,0.0,0.0,0.0,0.0,0.0,-3.7527,-3.8922,0.0,0.0,0.0,0.0,-4.305,-4.3682,-4.4668,-4.6148,-4.6099,-4.708,-4.9355,-4.9259,-4.9859,-5.129,-5.1186,-5.1409,-5.1924,-5.174,-5.1806,-5.2106,-5.1681,-5.1718,-5.2122,-5.0775,-5.0133,-4.9883,-4.7169,-4.5572,-4.4855,-4.42,-4.3811,-4.3536,-4.2917,-4.2592,-4.2448,-4.2509,-4.2587,-4.2736,-4.2918,-4.2868,-4.2679,-4.2302,-4.2719,0.0,0.0,-4.4852,-4.6356,-4.7698,-4.8751,-5.0073,-5.223,-5.3168,-5.3863,-5.4898,-5.5589,-5.5398,0.0,-5.2946,-5.3205,-5.342,0.0,-5.515,-5.533,-5.6375,-5.744,-5.8423,-5.8653,-5.9041,-5.9915,-6.0029,-5.9656,-5.8742,-5.7908,-5.7043,-5.6132,-5.3732,-5.1954,-5.1069,-4.9422,-4.7859,-4.6359,-4.5529,0.0,0.0,0.0,0.0,0.0,0.0,0.0,0.0,0.0,0.0,0.0,0.0,0.0,0.0,0.0,0.0,0.0,0.0,0.0,0.0,0.0,0.0,0.0,0.0,0.0,0.0,0.0,0.0,-3.9934,-4.1339,0.0,0.0,-4.4301,-4.4967,-4.6165,-4.6591,-4.7189,-4.8222,-4.8788,-4.9825,-5.1493,-5.1924,-5.2551,-5.3407,-5.3258,-5.3206,-5.325,-5.3024,-5.2959,-5.2948,-5.2634,-5.2525,-5.2548,-5.1641,-5.1101,-5.084,-4.9418,-4.8009,-4.6647,-4.5967,-4.5403,-4.4994,-4.5141,-4.4956,-4.4572,-4.5033,-4.5195,-4.5217,-4.5123,-4.5217,-4.5298,-4.4706,-4.4678,-4.4964,-4.5515,-4.617,-4.7059,-4.8541,-4.985,-5.1135,-5.2626,-5.3854,-5.4905,-5.5642,-5.6258,-5.6556,-5.6229,-5.5927,-5.5772,-5.6026,-5.6536,-5.7207,-5.8151,-5.8589,-5.9064,-5.9609,-5.9701,-5.968,-5.9581,-5.9543,-5.9204,-5.8339,-5.751,-5.6664,-5.5819,-5.3478,-5.1986,-5.1646,-4.9693,-4.8325,-4.7821,-4.7122,-4.6089,0.0,0.0,0.0,0.0,0.0,0.0,0.0,0.0,0.0,0.0,0.0,0.0,0.0,0.0,0.0,0.0,0.0,0.0,0.0,0.0,0.0,0.0,0.0,0.0,0.0,0.0,-4.0521,-4.2255,-4.3535,-4.4879,-4.6421,-4.6552,-4.7177,-4.8726,-4.896,-4.9457,-5.0416,-5.1085,-5.1881,-5.3,-5.3529,-5.4051,-5.4632,-5.4777,-5.4892,-5.4972,-5.4998,-5.497,-5.4842,-5.4527,-5.4282,-5.4067,-5.3365,-5.2782,-5.2262,-5.1361,-5.0131,-4.8725,-4.762,-4.6914,-4.6515,-4.6564,-4.6326,-4.6058,-4.6815,-4.7102,-4.7159,-4.7045,-4.7076,-4.7087,-4.6471,-4.6307,-4.6402,-4.6768,-4.7309,-4.8029,-4.9145,-5.0602,-5.2003,-5.3182,-5.4585,-5.585,-5.6697,-5.7499,-5.8219,-5.8816,-5.8113,-5.7522,-5.7836,-5.8115,-5.8616,-5.9615,-5.9885,-5.9974,-6.0034,-6.0079,-5.9841,-5.9175,-5.8857,-5.8353,-5.7529,-5.6724,-5.5919,-5.5057,-5.3324,-5.2339,-5.2371,-5.0424,-4.9281,-4.9032,-4.8087,-4.6972,-4.5785,0.0,0.0,0.0,0.0,0.0,0.0,0.0,0.0,0.0,0.0,0.0,0.0,0.0,0.0,0.0,0.0,0.0,0.0,0.0,0.0,0.0,0.0,0.0,-3.9495,-4.0682,-4.2394,-4.4527,-4.5399,-4.6437,-4.8104,-4.8302,-4.8991,-5.0641,-5.0772,-5.1361,-5.2735,-5.2871,-5.3198,-5.3918,-5.3984,-5.4344,-5.5038,-5.5784,-5.6472,-5.7127,-5.7641,-5.7883,-5.7883,-5.7419,-5.712,-5.6893,-5.6112,-5.5288,-5.4331,-5.2961,-5.197,-5.1175,-4.9145,-4.8351,-4.824,-4.7138,-4.6726,-4.6859,-4.7778,-4.8226,-4.8426,-4.8632,-4.8387,-4.7997,-4.7705,-4.7628,-4.7589,-4.7395,-4.8284,-4.9384,-4.9627,-5.0997,-5.2658,-5.3979,-5.5299,-5.6651,-5.8035,-5.9351,-6.0384,-6.0857,-5.9511,-5.8403,-5.8895,-5.9166,-5.9429,-5.9683,-6.0101,0.0,-5.9632,-5.9642,-5.9455,-5.8805,-5.7992,-5.7138,-5.6263,-5.5581,-5.482,-5.3926,-5.3324,-5.3031,-5.3099,-5.1698,-5.0604,-4.9966,-4.8402,-4.7414,-4.716,0.0,0.0,0.0,0.0,0.0,0.0,0.0,0.0,0.0,0.0,0.0,0.0,0.0,0.0,0.0,0.0,0.0,0.0,0.0,0.0,0.0,0.0,-4.1619,-4.1022,-4.2744,-4.4631,-4.6191,-4.7581,-4.8849,-4.9791,-5.0332,-5.1077,-5.1984,-5.2391,-5.274,-5.313,-5.3928,-5.4481,-5.471,-5.5693,-5.6315,-5.6512,-5.7103,-5.7477,-5.7673,-5.766,-5.7706,-5.7706,-5.7579,-5.7249,-5.6893,-5.6467,-5.5884,-5.5141,-5.4345,-5.3422,-5.2306,-5.0255,-4.9596,-4.9708,-4.9426,-4.9485,-4.9811,-5.008,-5.0435,-5.0796,-5.0838,-5.0875,-5.0799,-5.036,-5.0278,-5.0195,-4.9853,-5.0005,-5.0449,-5.1169,-5.1829,-5.2681,-5.3883,-5.5056,-5.6178,-5.7028,-5.8263,-5.9432,-6.0156,-6.0102,-6.0184,-6.0705,-6.0473,-6.0409,-6.0924,0.0,0.0,-6.0772,-6.0249,-5.9711,-5.9113,-5.8348,-5.7302,-5.5929,-5.5676,-5.5057,0.0,-5.3163,-5.2823,-5.2948,-5.2135,-5.16,-5.142,-4.9776,-4.8807,0.0,0.0,0.0,0.0,0.0,0.0,0.0,0.0,0.0,0.0,0.0,0.0,0.0,0.0,0.0,0.0,0.0,0.0,0.0,0.0,0.0,0.0,-4.2224,-4.4004,-4.3778,-4.5002,-4.6433,-4.7788,-4.9071,-5.0177,-5.1041,-5.1526,-5.2148,-5.298,-5.3287,-5.3737,-5.4349,-5.498,-5.5458,-5.5783,-5.6593,-5.7015,-5.7015,-5.7601,-5.7957,-5.8075,-5.8238,-5.8324,-5.8324,-5.8324,-5.8064,0.0,-5.7325,-5.6717,-5.5904,-5.5364,-5.4449,0.0,0.0,0.0,0.0,0.0,-5.0864,-5.1413,-5.1573,-5.1829,-5.2167,-5.2251,-5.2187,-5.1935,-5.157,-5.1403,-5.1234,-5.0925,-5.0969,-5.1233,-5.1734,-5.2293,-5.2928,-5.3965,-5.5095,-5.6219,-5.7066,-5.8326,-5.9523,-6.0291,0.0,0.0,-6.1502,-6.1134,-6.0878,-6.1401,-6.142,-6.1207,-6.0856,-6.0217,-5.9597,-5.9018,-5.7993,-5.6978,-5.6094,-5.578,0.0,0.0,0.0,-5.3441,-5.2983,-5.2665,0.0,0.0,0.0,-5.0131,-4.9803,0.0,0.0,0.0,-4.4364,-4.304,0.0,0.0,0.0,0.0,0.0,0.0,0.0,0.0,0.0,0.0,0.0,0.0,0.0,0.0,0.0,0.0,-4.4437,-4.6384,-4.7001,-4.7384,-4.8062,-4.9293,-5.0082,-5.0944,-5.1956,-5.2124,-5.2574,-5.3592,-5.3761,-5.4409,-5.5655,0.0,0.0,0.0,0.0,-5.7009,-5.7009,-5.7724,-5.8133,-5.8385,-5.9061,-5.9415,-5.9415,-5.9479,-5.9242,-5.8832,-5.8603,-5.7885,-5.6809,-5.6324,-5.534,-5.4023,-5.2639,-5.1759,-5.1197,-5.0984,-5.1456,0.0,0.0,0.0,0.0,-5.3134,-5.2776,-5.2197,-5.1989,-5.1779,-5.1526,-5.1313,-5.1562,-5.185,-5.1805,-5.2445,-5.3286,-5.4162,-5.5252,-5.6378,-5.7522,-5.8859,-6.0044,-6.0694,-6.0858,-6.1021,-6.1677,-6.1325,-6.1107,-6.1501,-6.134,-6.098,-6.0554,-5.9998,-5.9444,-5.8874,0.0,0.0,-5.6514,-5.5994,-5.5368,-5.4654,-5.4933,-5.4578,-5.3386,-5.3328,-5.2919,-5.1956,-5.1652,-5.1287,-5.0882,-5.0446,-4.9641,-4.837,-4.6184,-4.4749,0.0,0.0,0.0,0.0,0.0,0.0,0.0,0.0,0.0,0.0,0.0,0.0,0.0,0.0,0.0,-4.4322,-4.6292,-4.7902,-4.8196,-4.9422,-5.0302,-5.034,-5.1313,-5.211,-5.232,-5.2789,-5.3208,-5.342,-5.4301,-5.4917,-5.5201,-5.6164,0.0,-5.6881,-5.7393,-5.768,-5.768,-5.8428,-5.8825,-5.8902,0.0,0.0,-5.9882,-6.049,-6.0575,-6.0295,-6.0248,-5.9759,-5.893,-5.8304,-5.691,-5.4979,-5.3401,-5.273,-5.2564,-5.2395,-5.2657,-5.3147,-5.319,-5.3495,-5.3839,-5.3913,-5.3818,-5.3649,-5.3467,-5.3338,0.0,-5.2816,-5.2776,-5.2781,-5.2558,-5.2651,-5.3018,-5.3923,-5.4742,-5.5609,-5.6769,-5.801,-5.9075,-5.9751,-6.0214,-6.0771,-6.1555,-6.1425,-6.1398,-6.1911,-6.1641,-6.1526,-6.1807,-6.0762,-6.0084,-6.0215,-5.8822,-5.7695,-5.7242,-5.6491,-5.5879,-5.5427,-5.5743,-5.5599,-5.4839,-5.4802,-5.4354,-5.3423,-5.2529,-5.1828,-5.1359,-5.0395,-4.9457,-4.8523,-4.6932,-4.547,0.0,0.0,0.0,0.0,0.0,0.0,0.0,0.0,0.0,0.0,0.0,-4.2799,0.0,0.0,-4.6108,-4.6239,-4.7703,-4.8953,-4.9209,-5.0305,-5.1061,-5.0812,-5.1598,-5.2294,-5.2516,-5.2838,-5.3144,-5.3377,-5.4254,-5.492,-5.5296,-5.627,-5.7019,-5.7412,-5.7852,-5.8101,-5.8101,-5.8451,-5.8892,-5.9366,-5.9717,-6.0036,-6.034,-6.0738,-6.0756,-6.0487,-6.0487,-6.0233,-5.975,-5.9016,-5.7881,-5.6475,-5.5224,-5.4304,-5.3694,-5.3699,-5.4033,-5.4438,-5.4438,-5.475,-5.5146,-5.5146,-5.4893,-5.4565,-5.451,-5.4159,-5.3746,-5.3528,-5.3264,-5.3086,-5.2953,-5.2788,-5.2975,-5.4129,-5.4761,-5.5426,-5.6653,-5.762,-5.8522,-5.9402,-6.0037,-6.0642,-6.1414,-6.173,-6.1923,-6.2052,-6.1949,-6.1958,-6.234,-6.133,-6.0662,-6.0919,-5.96,-5.8565,-5.83,-5.7347,-5.6552,-5.6008,-5.5991,-5.5673,-5.4959,-5.4882,-5.4452,-5.3561,-5.2794,-5.2193,-5.1792,-5.088,-4.9837,-4.8775,-4.7565,-4.6371,0.0,0.0,0.0,0.0,0.0,0.0,0.0,0.0,-4.1368,-4.2081,-4.3705,-4.4965,-4.5008,-4.652,-4.7783,-4.7975,-4.9022,-4.9911,-5.0342,-5.0934,-5.1276,-5.1182,-5.1667,-5.2139,-5.2549,-5.2563,-5.2805,-5.3344,-5.4041,-5.477,-5.5609,-5.6448,-5.726,-5.7871,-5.8262,-5.8418,-5.8464,-5.859,-5.9078,-5.9789,-5.9947,-6.0297,-6.0836,-6.0963,-6.09,-6.0708,-6.066,-6.0452,-6.0164,-5.9427,-5.8777,-5.8048,-5.7174,-5.6155,-5.5189,-5.4837,-5.5008,-5.5499,-5.5499,-5.5785,-5.6189,-5.6189,-5.5809,-5.526,-5.5134,-5.4636,-5.399,-5.3821,-5.3528,-5.3219,-5.3131,-5.2953,-5.3113,-5.4422,-5.4823,-5.5333,-5.6662,-5.7447,-5.817,-5.9128,-5.9784,-6.0463,-6.1215,-6.184,-6.224,-6.2135,-6.2157,-6.2297,-6.2664,-6.1946,-6.139,-6.1455,-6.0346,-5.9462,-5.9175,-5.8057,-5.7166,-5.6673,-5.6227,-5.5669,-5.4948,-5.4699,-5.4237,-5.3393,-5.2798,-5.2351,-5.1945,-5.1218,-5.0235,-4.8947,-4.7909,-4.6948,-3.4632,-3.5461,-3.671,-3.8635,-3.9093,-3.9648,0.0,0.0,-4.3199,-4.4094,-4.5277,-4.6275,-4.6505,-4.7654,-4.8854,-4.9677,-5.035,-5.1121,-5.2004,-5.1894,-5.1732,-5.172,-5.1887,-5.2048,-5.2094,-5.2094,-5.2398,-5.3254,-5.4129,-5.507,-5.5984,-5.6902,-5.7543,-5.7871,-5.8515,-5.8955,-5.9191,-5.976,-6.0107,-6.025,-6.0914,-6.1262,-6.1357,-6.1958,-6.2193,-6.2144,-6.1914,-6.1469,-6.0854,-6.0509,-6.0004,-5.9318,-5.8615,-5.8273,-5.7851,-5.5548,-5.5008,-5.5499,-5.5499,-5.5785,-5.6189,-5.6189,-5.6125,-5.5936,-5.5291,-5.5039,-5.4806,-5.399,-5.3746,-5.3615,-5.3219,-5.3086,-5.3338,-5.4468,-5.4512,-5.4786,-5.6164,-5.7174,-5.7899,-5.8204,-5.9186,-6.0202,-6.0924,-6.1445,-6.1863,-6.2257,-6.2261,-6.2471,-6.3065,-6.2866,-6.2537,-6.2169,-6.1491,-6.0469,-5.9071,-5.8132,-5.7621,-5.7577,-5.7242,-5.6635,-5.5801,-5.5231,-5.4573,-5.375,-5.2689,-5.1945,-5.1475,-5.0733,-4.9855,-4.887,-4.7703,-4.6388,-3.6571,-3.7756,0.0,0.0,-4.1055,-4.2038,-4.358,-4.4379,-4.5052,-4.5849,-4.6774,-4.7549,-4.7643,-4.8557,-4.9543,0.0,-5.063,-5.1137,-5.203,-5.1709,-5.1444,-5.1784,-5.1523,-5.1386,-5.1741,-5.1787,-5.2152,-5.3053,-5.4004,-5.4866,-5.5606,-5.6665,-5.7588,-5.831,-5.8656,-5.9239,-5.9886,-6.017,-6.0518,-6.0929,-6.1245,-6.1593,-6.2003,-6.2238,-6.2396,-6.2365,-6.2266,-6.2058,-6.1775,-6.1527,-6.102,-6.0362,-5.9933,-5.9541,-5.893,-5.701,-5.656,-5.6885,-5.6885,-5.7115,-5.7435,-5.7571,-5.7331,-5.695,-5.6809,-5.6141,-5.5398,-5.5058,-5.4505,-5.3931,-5.3714,-5.3365,-5.3427,-5.4653,-5.473,-5.4911,-5.6115,-5.699,-5.7672,-5.8139,-5.9135,-6.0048,-6.0606,-6.1281,-6.1741,-6.1906,-6.2522,-6.3182,-6.3923,-6.3485,-6.2939,-6.2648,-6.1863,-6.094,-5.981,-5.8994,-5.8142,-5.722,-5.712,-5.6617,-5.5486,-5.4697,-5.3983,-5.3339,-5.2155,-5.1408,-5.107,-5.0181,-4.9308,-4.8415,-4.746,-4.6176,-3.8464,0.0,0.0,-4.1952,-4.2861,-4.3885,-4.5135,-4.5903,-4.6471,-4.7051,-4.7815,-4.8391,-4.8537,-4.9135,0.0,-5.0569,-5.0734,-5.0988,-5.1779,-5.1412,-5.115,-5.1541,-5.1095,-5.087,-5.1276,-5.1416,-5.1934,-5.3045,-5.3844,-5.4674,-5.5547,-5.6686,-5.769,-5.8556,-5.9092,-5.9772,-6.0581,-6.0803,-6.115,-6.1687,-6.1687,-6.194,-6.2396,-6.2635,-6.273,-6.273,-6.297,-6.3114,-6.3083,-6.2793,-6.2365,-6.186,-6.1285,-6.0715,-6.0052,-5.8829,-5.8311,-5.8122,-5.7934,-5.8089,-5.8321,-5.8518,-5.826,-5.7892,-5.7904,-5.7053,-5.6061,-5.5869,-5.507,-5.4274,-5.4146,-5.3758,-5.3694,-5.4837,-5.4869,-5.5005,-5.6164,-5.6842,-5.7414,-5.8136,-5.9063,-5.989,-6.0451,-6.1182,-6.1757,-6.1974,-6.2706,-6.3504,-6.417,-6.3615,-6.3098,-6.3073,-6.1991,-6.1049,-6.0455,-5.938,-5.8129,-5.6799,-5.6606,-5.6077,-5.4931,-5.4032,-5.3362,-5.2979,-5.167,-5.083,-5.0467,-4.9487,-4.8608,-4.7802,-4.6757,-4.5573,0.0,0.0,-4.2008,-4.3835,-4.4312,-4.4678,-4.5942,-4.6701,-4.725,-4.7546,-4.8077,-4.8653,-4.9178,-4.9305,-4.9635,-5.0569,-5.0734,-5.0888,-5.1527,-5.1262,-5.1002,-5.1022,-5.0739,-5.0501,0.0,-5.0947,-5.1862,-5.3471,-5.3832,-5.4696,-5.628,-5.7279,-5.804,-5.8556,-5.9884,-6.0819,-6.1371,-6.2035,-6.2333,-6.2365,-6.2365,-6.2365,-6.2396,-6.3141,-6.3457,-6.3539,-6.4456,-6.4843,-6.4779,-6.436,-6.4203,-6.4043,-6.2716,-6.1982,-6.1647,-6.0852,-5.987,-5.8782,-5.8122,-5.8089,-5.8321,-5.8518,-5.8578,-5.8496,-5.8064,-5.7405,-5.6701,-5.5997,-5.5282,-5.4687,-5.4231,-5.4103,-5.4234,-5.4928,-5.4869,-5.5005,-5.6164,-5.6694,-5.7213,-5.7882,-5.8756,-5.9685,-6.064,-6.1277,-6.1853,-6.2646,-6.2809,-6.2954,-6.3357,-6.3105,-6.3066,-6.3443,-6.1808,-6.0699,-6.0699,-5.8805,-5.7294,-5.6537,-5.5912,-5.5216,-5.4454,-5.346,-5.2921,-5.2886,-5.1276,-5.0165,-4.9629,-4.8632,-4.7802,-4.7093,-4.5488,-4.4262,0.0,0.0,-4.338,-4.421,-4.5352,-4.6392,-4.6813,-4.7375,-4.7825,-4.7897,-4.8239,-4.8531,-4.8731,-4.8909,-4.9358,-5.0291,-5.0406,-5.0738,-5.1476,-5.1112,-5.0854,-5.1002,-5.0545,0.0,0.0,0.0,0.0,-5.2938,-5.3495,-5.4437,-5.6066,-5.7014,-5.806,-5.926,-6.0134,-6.1051,-6.2067,-6.227,-6.2396,-6.2396,-6.2396,-6.2396,-6.2396,-6.3173,-6.3589,-6.3821,-6.4538,-6.5007,-6.5176,-6.5002,-6.4956,-6.486,-6.3932,-6.3532,-6.3355,-6.2141,-6.1329,-6.063,-5.9302,-5.87,-5.8518,-5.8792,-5.8972,-5.9043,-5.9085,-5.8581,-5.7872,-5.7205,-5.6369,-5.5599,-5.4951,-5.4444,-5.4281,-5.4964,-5.5034,-5.5116,-5.5804,-5.6635,-5.7364,-5.7882,-5.855,-5.9375,-6.0359,-6.0845,-6.1461,-6.2612,-6.3325,-6.3649,-6.3431,-6.3504,-6.3629,-6.3547,-6.2291,-6.1176,-6.0553,-5.9162,-5.7749,-5.632,-5.5545,-5.494,-5.443,-5.313,-5.2566,-5.285,-5.1545,-5.0657,-5.021,-4.9091,-4.8038,-4.7,-4.5707,-4.4269,-4.2196,-4.3462,-4.4514,-4.5105,-4.621,-4.7263,-4.7488,-4.7853,-4.8134,-4.8134,-4.8258,-4.8409,-4.8481,-4.8631,-4.9023,-4.9803,-4.996,-5.0154,-5.0809,-5.0569,-5.0406,-5.0554,-5.0174,0.0,0.0,0.0,0.0,-5.2723,-5.3301,-5.4292,-5.5888,-5.7129,-5.8281,-5.9456,-6.0459,-6.1346,-6.2266,-6.2315,-6.2396,-6.2396,-6.2396,-6.2396,-6.2428,-6.3526,-6.4088,-6.4352,-6.5427,-6.6044,-6.6163,-6.6038,-6.5992,-6.5895,-6.522,-6.4753,-6.4335,-6.3405,-6.2588,-6.1743,-6.0407,-5.9676,-5.9356,-5.9498,-5.9582,-5.9697,-5.9693,-5.9155,-5.8508,-5.8097,-5.7171,-5.6205,-5.5628,-5.4973,-5.456,-5.5087,-5.5341,-5.5578,-5.6015,-5.6607,-5.7247,-5.777,-5.8339,-5.8957,-5.9732,-6.038,-6.1155,-6.2184,-6.3129,-6.3714,-6.3685,-6.3613,-6.3577,-6.3524,-6.2229,-6.0969,-6.0072,-5.8835,-5.7381,-5.5658,-5.4895,-5.4313,-5.3835,-5.2536,-5.1967,-5.2299,-5.1227,-5.0493,-5.0055,-4.8864,-4.7738,-4.6659,-4.5224,-4.3732,-4.2985,-4.4166,-4.533,-4.65,-4.7035,-4.7403,-4.7993,-4.8134,-4.8106,-4.8078,-4.8078,-4.81,0.0,0.0,-4.8546,-4.91,-4.9198,-4.9326,-4.962,-4.9669,-4.9698,0.0,0.0,0.0,0.0,0.0,0.0,-5.2763,0.0,-5.4322,-5.5888,-5.7506,-5.8612,-5.9191,-6.0745,-6.1734,-6.2016,-6.2266,-6.2396,-6.2396,-6.2396,-6.2396,-6.2477,-6.4088,-6.4875,-6.5021,-6.6951,-6.7765,-6.7816,-6.7422,-6.723,-6.7165,-6.6452,-6.5594,-6.482,-6.4787,-6.3742,-6.222,-6.1562,-6.1055,-6.0723,-6.0546,-6.0425,-6.0309,-5.9887,-5.9219,-5.8637,-5.8648,-5.7644,-5.6566,-5.6366,-5.5767,-5.5246,-5.5463,-5.5859,-5.6334,-5.6724,-5.6808,-5.6964,-5.7623,-5.8132,-5.8583,-5.8832,-5.9918,-6.0949,-6.143,-6.2184,-6.302,-6.3979,-6.3297,-6.2889,-6.3229,-6.1669,-6.0178,-5.9245,-5.7884,-5.6384,-5.4742,-5.3955,-5.3356,-5.2828,-5.1717,-5.1177,-5.1353,-5.0517,-4.9772,-4.9238,-4.8029,-4.6951,-4.6032,-4.4183,-4.2649,-4.3594,-4.4655,-4.5607,-4.6562,-4.7343,-4.7937,-4.8078,-4.8134,-4.7993,-4.7544,-4.7431,-4.7291,0.0,0.0,0.0,-4.7892,-4.8195,0.0,-4.9297,-4.9571,0.0,0.0,0.0,-5.0598,-5.1091,-5.1516,0.0,0.0,-5.3575,-5.4381,-5.5918,-5.7355,-5.841,-5.9191,-6.0745,-6.1734,-6.2016,-6.2266,-6.2396,-6.2396,-6.2396,-6.2396,-6.2446,-6.3612,-6.453,-6.529,-6.6488,-6.7447,-6.8101,-6.8007,-6.7942,-6.7877,-6.7165,-6.6759,-6.6484,-6.5934,-6.5045,-6.4047,-6.4045,-6.2822,-6.1285,-6.1262,-6.098,-6.0663,-6.0558,-6.0008,-5.9328,-5.8993,-5.8613,-5.8265,-5.7869,-5.7358,-5.6977,-5.7044,-5.7117,-5.7204,-5.7123,-5.7369,-5.7683,-5.7934,-5.8751,-5.9338,-5.8975,-5.9762,-6.0534,-6.069,-6.1226,-6.1901,-6.2751,-6.2513,-6.2158,-6.1933,-6.0863,-5.967,-5.8538,-5.7516,-5.6392,-5.507,-5.3818,-5.2995,-5.2659,-5.1836,-5.1324,-5.1177,-5.0649,-5.0139,-4.9719,-4.8385,-4.7081,-4.5756,-4.4031,-4.2339,-4.4141,-4.5068,-4.5757,-4.6924,-4.7679,-4.805,-4.7797,-4.774,-4.7544,-4.6926,-4.6813,0.0,0.0,0.0,0.0,0.0,0.0,0.0,-4.917,-4.9551,-4.9979,0.0,-5.0734,0.0,-5.1556,-5.2027,-5.2573,0.0,-5.3642,-5.4461,-5.5948,-5.7,-5.8003,-5.8962,-6.0315,-6.1301,-6.2016,-6.2266,-6.2396,-6.2396,-6.2396,-6.2396,-6.2446,-6.3472,-6.4229,-6.4942,0.0,-6.7175,-6.778,-6.8072,-6.8201,-6.8169,-6.778,-6.7456,-6.7132,-6.6744,-6.6031,-6.5288,-6.5077,-6.4156,-6.293,-6.2317,-6.1957,-6.166,-6.1336,-6.0797,-6.0281,-5.999,-5.9532,-5.9105,-5.8838,-5.8311,-5.7874,-5.7748,-5.7883,-5.7961,-5.7694,-5.7951,-5.8247,-5.8417,-5.8659,-5.8877,-5.9032,-5.9439,-5.9762,-5.9949,-6.0506,-6.102,-6.1469,-6.1487,-6.1413,-6.1251,-6.0101,-5.8964,-5.7828,-5.709,-5.6144,-5.487,-5.3671,-5.2932,-5.2749,-5.2091,-5.159,-5.1315,-5.0927,-5.0375,-4.9622,-4.8282,-4.6929,-4.5524,-4.3815,-4.2208,-4.4551,-4.5288,-4.5841,-4.7341,-4.7847,-4.7853,-4.7319,-4.715,-4.6926,-4.6279,0.0,-4.6139,-4.6055,0.0,-4.632,-4.7185,0.0,-4.8101,-4.9005,-4.9444,-4.9959,-5.0714,-5.0801,-5.1091,-5.1788,-5.2368,-5.2946,-5.3457,-5.376,-5.4501,-5.5948,-5.6666,-5.7617,-5.8935,-5.9866,-6.087,-6.1966,-6.2166,-6.2315,-6.2347,-6.2347,-6.2365,-6.2446,-6.3345,-6.3942,-6.4348,0.0,0.0,-6.718,-6.7813,-6.8104,-6.8201,-6.8201,-6.7845,-6.7327,-6.7327,-6.6873,-6.6161,-6.5546,-6.5189,-6.4753,-6.3473,-6.2955,-6.2761,-6.2145,-6.1646,-6.1238,-6.1141,-6.0445,-5.9601,-5.9544,-5.9085,-5.8543,-5.8344,-5.8548,-5.8788,-5.8517,-5.8556,-5.8631,-5.8798,-5.8318,-5.8079,-5.8845,-5.894,-5.8936,-5.9143,-5.9683,-6.005,-6.005,-6.0272,-6.0487,-6.066,-5.9312,-5.8004,-5.7176,-5.659,-5.5751,-5.4615,-5.3613,-5.3046,-5.3049,-5.2398,-5.191,-5.1614,-5.1213,-5.0429,-4.9293,-4.7898,-4.658,-4.5298,-4.3673,-4.2382,-4.4661,-4.5288,-4.5841,-4.7341,-4.7539,-4.7347,-4.7235,-4.6813,0.0,0.0,0.0,-4.5324,-4.4818,-4.4734,0.0,-4.5597,0.0,0.0,0.0,0.0,-4.9886,0.0,0.0,0.0,0.0,0.0,0.0,0.0,0.0,0.0,-5.5929,-5.6666,-5.7931,-5.9897,-6.0628,-6.1235,-6.1633,-6.1714,-6.1866,-6.2066,-6.2066,-6.2166,-6.2446,-6.2788,-6.3366,-6.4038,0.0,0.0,-6.6899,-6.7195,-6.7683,-6.8201,-6.8201,-6.8136,-6.8039,-6.8039,-6.7586,-6.6971,-6.6841,-6.6031,-6.485,-6.4088,-6.3408,-6.2858,-6.2728,-6.2393,-6.1902,-6.1568,-6.1382,-6.1268,-6.0886,-6.0538,-6.0271,-6.0229,-6.0125,-5.9967,-5.9522,-5.9043,-5.855,-5.8369,-5.8499,-5.8508,-5.8048,-5.8385,-5.8512,-5.7928,-5.8174,-5.8368,-5.811,-5.8633,-5.9049,-5.9098,-5.7841,-5.6879,-5.6467,-5.5848,-5.5402,-5.5156,-5.3928,-5.3267,-5.3328,-5.2684,-5.2124,-5.1684,-5.1246,-5.0441,-4.9297,-4.8027,-4.6693,-4.5098,-4.4012,-4.2771,-4.4615,-4.5142,-4.5511,-4.6678,-4.6855,-4.6645,-4.6307,0.0,0.0,0.0,0.0,-4.3891,-4.3947,0.0,0.0,0.0,0.0,0.0,0.0,0.0,0.0,0.0,0.0,0.0,0.0,0.0,0.0,0.0,0.0,0.0,-5.5929,-5.7251,-5.8377,-5.9456,-6.0577,-6.1257,-6.141,-6.1531,-6.1633,-6.1784,-6.1784,-6.1966,-6.2216,-6.2315,-6.2752,-6.3366,-6.3994,0.0,-6.5737,-6.6626,-6.7292,-6.7715,-6.8072,-6.8201,-6.8201,-6.8201,-6.8007,-6.7618,-6.6873,-6.6161,-6.5416,-6.4347,-6.3764,-6.3473,-6.3473,-6.3231,-6.2864,-6.2671,-6.2311,-6.1952,-6.1748,-6.13,-6.0877,-6.0717,-6.0548,-6.0335,-6.0076,-5.9596,-5.9107,-5.9017,-5.8864,-5.8577,-5.8058,-5.8186,-5.8208,-5.7689,-5.7688,-5.7695,-5.754,-5.7444,-5.7537,-5.7789,-5.6922,-5.6293,-5.6145,-5.5841,-5.5554,-5.5333,-5.4721,-5.4222,-5.3926,-5.3494,-5.2928,-5.2251,-5.1666,-5.0851,-4.983,-4.8253,-4.6985,-4.5936,-4.4649,-4.3586,-4.4399,-4.4885,-4.5232,-4.609,-4.6195,-4.5914,-4.5268,-4.465,0.0,0.0,-4.2907,-4.2711,-4.3216,0.0,0.0,0.0,0.0,0.0,0.0,0.0,0.0,0.0,0.0,0.0,0.0,0.0,0.0,0.0,0.0,0.0,0.0,-5.7806,-5.8793,-5.8793,-6.0321,-6.1103,-6.1103,-6.1308,-6.1461,-6.1481,-6.1481,-6.1664,-6.1916,-6.1966,-6.2216,-6.2692,-6.3331,0.0,0.0,-6.5816,-6.6562,-6.6954,-6.7715,-6.7974,-6.7974,-6.7974,-6.7974,-6.7813,-6.655,-6.5999,-6.5708,-6.4574,-6.4121,-6.4024,-6.4024,-6.3896,-6.3785,-6.3654,-6.3155,-6.2652,-6.2487,-6.2013,-6.1475,-6.1108,-6.0765,-6.0463,-6.0463,-6.012,-5.9848,-5.9804,-5.9241,-5.8746,-5.8395,-5.8232,-5.8035,-5.7726,-5.7495,-5.7323,-5.7272,-5.6615,-5.6314,-5.6768,-5.6232,-5.5929,-5.5929,-5.5979,-5.5883,-5.5595,-5.549,-5.5222,-5.4861,-5.4414,-5.3806,-5.2903,-5.2136,-5.125,-5.0283,-4.8716,-4.7561,-4.6858,-4.5584,-4.4761,-4.3843,-4.455,-4.5232,-4.609,-4.5858,-4.524,-4.4621,0.0,0.0,0.0,-4.2626,-4.2598,-4.2654,-4.3132,0.0,0.0,0.0,-4.6453,0.0,0.0,0.0,0.0,0.0,0.0,0.0,0.0,0.0,0.0,0.0,0.0,0.0,-5.7806,-5.8793,-5.8793,-6.0137,-6.0845,-6.0845,-6.0845,-6.1,-6.1206,-6.1206,-6.1359,-6.1633,-6.1916,-6.2016,-6.2116,0.0,0.0,0.0,-6.4657,-6.5271,-6.5932,-6.6904,-6.7262,-6.7262,-6.7262,-6.7262,-6.7165,-6.6388,-6.5675,-6.5044,-6.4963,-6.4509,-6.4024,-6.4024,-6.4254,-6.444,-6.3785,-6.3847,-6.3968,-6.3338,-6.3183,-6.2908,-6.2212,-6.1339,-6.0675,-6.0675,-6.0506,-6.0249,-6.0001,-5.9772,-5.9452,-5.8972,-5.8504,-5.8027,-5.7589,-5.7095,-5.669,-5.6445,-5.6169,-5.602,-5.607,-5.5811,-5.5631,-5.5631,-5.588,-5.6164,-5.6559,-5.5975,-5.5842,-5.6264,-5.5048,-5.412,-5.362,-5.2475,-5.1334,-5.0184,-4.9601,-4.8563,-4.7161,-4.7011,-4.6343,-4.295,-4.364,-4.4172,-4.4537,-4.4425,-4.4144,-4.3919,0.0,0.0,-4.2064,-4.1699,-4.1559,-4.1924,-4.2514,-4.3076,-4.3441,0.0,0.0,0.0,0.0,0.0,0.0,0.0,0.0,0.0,0.0,0.0,0.0,0.0,0.0,0.0,-5.7806,-5.8793,-5.8793,-6.0086,-6.0794,-6.0794,-6.0794,-6.0845,-6.0949,-6.0949,-6.1103,-6.1359,-6.1461,-6.1714,-6.2016,0.0,0.0,0.0,-6.4092,-6.4738,-6.5174,-6.616,-6.655,-6.655,-6.655,-6.655,-6.642,-6.5708,-6.5287,-6.4915,-6.4542,-6.425,-6.4024,-6.4024,-6.4319,-6.4636,-6.4342,-6.4308,-6.4266,-6.4001,-6.3647,-6.3249,-6.2951,-6.2236,-6.1589,-6.1589,-6.1056,-6.0548,-6.043,-6.0249,-6.0152,-6.0235,-5.9852,-5.9398,-5.9076,-5.8295,-5.7597,-5.7098,-5.6682,-5.6439,-5.6439,-5.6047,-5.588,-5.5998,-5.6293,-5.6585,-5.6892,-5.6836,-5.6715,-5.6528,-5.5658,-5.47,-5.3745,-5.2654,-5.1656,-5.081,-4.9957,-4.898,-4.7975,-4.77,-4.7154,-4.2121,-4.2739,-4.3216,-4.3216,-4.3216,-4.3188,0.0,0.0,0.0,-4.139,-4.0997,-4.0828,-4.1278,-4.1868,-4.2486,-4.3132,0.0,-4.5352,0.0,0.0,0.0,0.0,0.0,0.0,0.0,0.0,0.0,0.0,0.0,0.0,0.0,0.0,-5.8793,-5.8793,-6.0086,-6.0794,-6.0794,-6.0794,-6.0845,-6.0897,-6.0897,-6.1,-6.1206,-6.1359,-6.1613,0.0,0.0,0.0,0.0,-6.3545,-6.4013,-6.4369,-6.532,-6.5756,-6.5772,-6.5772,-6.5772,-6.5675,-6.4963,-6.4736,-6.4639,-6.4153,-6.4024,-6.4024,-6.4085,-6.4379,-6.4702,-6.4702,-6.4671,-6.4664,-6.4664,-6.4133,-6.3647,-6.3647,-6.2917,-6.2221,-6.2221,-6.1456,-6.0802,-6.0802,-6.083,-6.0912,-6.1273,-6.1093,-6.0754,-6.0302,-5.9503,-5.8641,-5.7934,-5.7417,-5.7132,-5.7132,-5.6844,-5.6634,-5.6554,-5.6844,-5.7132,-5.7322,-5.7559,-5.7418,-5.6809,-5.6138,-5.5253,-5.4097,-5.2778,-5.1834,-5.1292,-5.0277,-4.9486,-4.8883,-4.8521,-4.7955,-4.1474,-4.2093,-4.2598,-4.2598,-4.2598,-4.243,0.0,0.0,0.0,-4.0828,-4.0688,-4.0688,-4.0716,-4.1193,-4.184,-4.2486,-4.361,0.0,0.0,0.0,0.0,0.0,0.0,0.0,0.0,0.0,0.0,0.0,0.0,0.0,0.0,0.0,-5.8793,-5.8793,-6.0086,-6.0794,-6.0794,-6.0794,-6.0949,-6.1237,-6.1237,-6.1206,-6.1237,-6.1765,0.0,0.0,0.0,0.0,0.0,-6.271,-6.2954,-6.3292,-6.432,-6.482,-6.498,-6.498,-6.498,-6.493,-6.425,-6.4024,-6.4024,-6.4024,-6.4024,-6.4071,-6.424,-6.4518,-6.4702,-6.4702,-6.5033,-6.5392,-6.5392,-6.4895,-6.4365,-6.4365,-6.3282,-6.2221,-6.2221,-6.1616,-6.1119,-6.1119,-6.1471,-6.1805,-6.1805,-6.2004,-6.1878,-6.0939,-6.0315,-5.9649,-5.8673,-5.8349,-5.8165,-5.8165,-5.8165,-5.7887,-5.7132,-5.759,-5.7871,-5.7871,-5.8072,-5.798,-5.7511,-5.6575,-5.5762,-5.4995,-5.2893,-5.1706,-5.1493,-5.0795,-5.026,-4.9766,-4.9659,-4.889,-4.021,-4.0828,-4.139,-4.1812,-4.1924,-4.1868,-4.1671,0.0,0.0,0.0,-4.0688,-4.0688,-4.0688,-4.1193,-4.184,-4.2486,-4.3273,0.0,0.0,0.0,0.0,0.0,0.0,0.0,0.0,0.0,0.0,0.0,0.0,0.0,0.0,0.0,-5.947,-5.947,-6.0332,-6.0897,-6.1052,-6.1052,-6.1206,-6.1461,-6.1461,-6.1461,-6.1512,-6.1664,0.0,0.0,0.0,0.0,0.0,-6.271,-6.2954,-6.3228,-6.3742,-6.4077,-6.4347,-6.4347,-6.4347,-6.4315,-6.4088,-6.4024,-6.4024,-6.4024,-6.4085,-6.4193,-6.4286,-6.4518,-6.4793,-6.5111,-6.5291,-6.5425,-6.5425,-6.4895,-6.4365,-6.4365,-6.3282,-6.2221,-6.2221,-6.1616,-6.1119,-6.1119,-6.164,-6.2226,-6.2756,-6.3155,-6.3165,-6.2355,-6.1646,-6.0773,-5.9491,-5.8972,-5.8746,-5.8746,-5.8746,-5.8564,-5.8165,-5.8289,-5.8473,-5.861,-5.8701,-5.8518,-5.798,-5.7418,-5.6462,-5.5298,-5.3615,-5.2394,-5.1687,-5.1006,-5.0445,-4.9884,-4.9704,-4.9127,0.0,-3.9704,-4.0154,-4.0772,-4.0744,0.0,0.0,0.0,0.0,0.0,0.0,0.0,-4.0659,-4.1193,-4.184,-4.2486,0.0,0.0,0.0,0.0,0.0,0.0,0.0,0.0,0.0,0.0,0.0,0.0,0.0,0.0,0.0,0.0,-5.9901,-6.0178,-6.0681,-6.1,-6.1206,-6.1308,-6.1512,-6.1734,-6.1734,-6.1734,-6.1734,0.0,0.0,0.0,0.0,0.0,0.0,-6.271,-6.2954,-6.3228,-6.3517,-6.3755,-6.4024,-6.4024,-6.4024,-6.4024,-6.4024,-6.4024,-6.4024,-6.4085,-6.4333,-6.461,-6.461,-6.4702,-6.493,-6.5291,-6.5425,-6.5359,-6.5094,-6.4697,-6.4299,-6.4034,-6.3083,-6.2221,-6.2221,-6.1616,-6.1119,-6.1119,-6.1914,-6.2785,-6.3249,-6.3969,-6.4167,-6.3057,-6.2495,-6.1662,-6.0141,-5.9684,-5.9508,-5.9508,-5.9508,-5.9464,-5.9254,-5.9107,-5.9107,-5.9241,-5.9241,-5.9017,-5.8487,-5.7965,-5.7135,-5.6067,-5.4352,-5.311,-5.2334,-5.1506,-5.0787,-5.0157,-5.0119,-4.9696,0.0,-3.8777,0.0,0.0,0.0,0.0,0.0,0.0,0.0,0.0,0.0,0.0,0.0,0.0,0.0,0.0,0.0,0.0,0.0,0.0,0.0,0.0,0.0,0.0,0.0,0.0,0.0,0.0,0.0,0.0,0.0,0.0,0.0,-6.0845,-6.1103,-6.1206,-6.1206,-6.1481,-6.1734,-6.2016,-6.2016,-6.2016,-6.2066,0.0,0.0,0.0,0.0,0.0,0.0,-6.271,-6.2954,-6.3228,-6.3517,-6.3755,-6.4024,-6.4024,-6.4024,-6.4024,-6.4024,-6.4024,-6.4038,-6.4286,-6.4702,-6.5099,-6.5099,-6.5099,-6.5144,-6.5336,-6.5392,-6.5194,-6.4531,-6.4299,-6.4034,-6.3415,-6.2685,-6.2122,-6.2122,-6.1583,-6.1119,-6.1119,-6.2245,-6.3249,-6.3249,-6.4332,-6.4708,-6.31,-6.2826,-6.2245,-6.0617,-6.0378,-6.0378,-6.0378,-6.0378,-6.0378,-6.042,-6.0022,-5.976,-5.9772,-5.9728,-5.954,-5.9094,-5.8381,-5.77,-5.7117,-5.503,-5.3711,-5.3121,-5.2128,-5.1319,-5.0654,-5.0955,-5.0465,-3.7095,0.0,-3.8271,-3.8958,-3.9015,-3.9071,0.0,0.0,0.0,0.0,0.0,0.0,0.0,0.0,0.0,0.0,0.0,0.0,0.0,0.0,0.0,0.0,0.0,0.0,0.0,0.0,0.0,0.0,0.0,0.0,0.0,0.0,0.0,-6.1103,-6.1359,-6.1512,-6.1512,-6.1765,-6.2066,-6.2315,-6.2315,-6.2315,-6.2315,0.0,0.0,0.0,0.0,0.0,-6.2414,-6.271,-6.2954,-6.3228,-6.3517,-6.3755,-6.4024,-6.4024,-6.4024,-6.4024,-6.4179,-6.424,-6.4286,-6.4781,-6.5008,-6.5144,-6.5291,-6.5336,-6.5336,-6.5381,-6.5028,-6.4597,-6.4432,-6.3537,-6.2685,-6.252,-6.1881,-6.1351,-6.1351,-6.1218,-6.1119,-6.1119,-6.1815,-6.2487,-6.2487,-6.3173,-6.3471,-6.2534,-6.2197,-6.1696,-6.0732,-6.0506,-6.0378,-6.0378,-6.0378,-6.0463,-6.0633,-6.0378,-6.0206,-6.0249,-6.0206,-6.0076,-5.9783,-5.9254,-5.8414,-5.7193,-5.4715,-5.3146,-5.2489,-5.249,-5.2088,-5.1436,-5.1684,-5.1338,-3.6682,-3.7102,-3.7625,-3.8271,-3.8412,-3.858,-3.9268,0.0,0.0,0.0,0.0,0.0,0.0,0.0,0.0,0.0,0.0,0.0,0.0,0.0,0.0,0.0,0.0,0.0,0.0,0.0,0.0,0.0,0.0,0.0,0.0,0.0,0.0,0.0,-6.1461,-6.1633,-6.1784,-6.2066,-6.2266,-6.2396,-6.2396,-6.2396,-6.2396,-6.2396,0.0,0.0,0.0,0.0,-6.2612,-6.2856,-6.3148,-6.3421,-6.366,-6.385,-6.4024,-6.4085,-6.4132,-6.4179,-6.4426,-6.4564,-6.4702,-6.5008,-6.5144,-6.5246,-6.5381,-6.5425,-6.5425,-6.5425,-6.516,-6.4697,-6.4034,-6.3315,-6.2553,-6.1848,-6.1384,-6.1119,-6.1119,-6.1119,-6.1119,-6.1119,-6.1682,-6.2221,-6.2221,-6.2818,-6.3083,-6.2321,-6.2094,-6.1745,-6.0976,-6.0793,-6.0708,-6.0708,-6.0708,-6.075,-6.0877,-6.0793,-6.0793,-6.0844,-6.0793,-6.0666,-6.0506,-6.0076,-5.8947,-5.7083,-5.4937,-5.3526,-5.2935,-5.298,-5.2772,-5.2305,-5.226,-5.1963,-3.6603,-3.6811,-3.7119,-3.7737,-3.7906,-3.8102,-3.8874,0.0,0.0,0.0,0.0,0.0,0.0,0.0,0.0,0.0,0.0,0.0,0.0,0.0,0.0,0.0,0.0,0.0,0.0,0.0,0.0,0.0,0.0,0.0,0.0,0.0,0.0,0.0,-6.1512,-6.1784,-6.2066,-6.2266,-6.2396,-6.2396,-6.2396,-6.2396,-6.2396,-6.2396,0.0,0.0,0.0,0.0,-6.2808,-6.3099,-6.3421,-6.366,-6.3897,-6.4024,-6.3991,-6.424,-6.4333,-6.4333,-6.4656,-6.493,-6.5144,-6.5144,-6.5246,-6.5425,-6.5425,-6.5425,-6.5425,-6.5425,-6.5326,-6.4962,-6.3637,-6.3249,-6.2775,-6.1417,-6.1119,-6.1119,-6.1119,-6.1119,-6.1119,-6.1119,-6.1583,-6.2056,-6.2056,-6.2543,-6.2742,-6.2155,-6.2056,-6.1781,-6.1185,-6.0978,-6.0912,-6.0912,-6.0812,-6.0746,-6.0746,-6.0746,-6.0837,-6.105,-6.1119,-6.1094,-6.0953,-6.0412,-5.9131,-5.6905,-5.5304,-5.4248,-5.3856,-5.3683,-5.3498,-5.3249,-5.2908,-5.2555,-3.6445,-3.6733,-3.7119,-3.7737,-3.7906,-3.8215,-3.9367,0.0,0.0,0.0,0.0,0.0,0.0,0.0,0.0,0.0,0.0,0.0,0.0,0.0,0.0,0.0,0.0,0.0,0.0,0.0,0.0,0.0,0.0,0.0,0.0,0.0,0.0,0.0,0.0,-6.2066,-6.2315,-6.2396,-6.2396,-6.2396,-6.2396,-6.2396,-6.2396,-6.2396,-6.2396,0.0,0.0,-6.2759,-6.2856,-6.3341,-6.3532,-6.366,-6.3897,-6.4024,-6.3991,-6.424,-6.4333,-6.4379,-6.4872,-6.5189,-6.5336,-6.5336,-6.5381,-6.5425,-6.5425,-6.5425,-6.5425,-6.5425,-6.4995,-6.4332,-6.3547,-6.2851,-6.2146,-6.1318,-6.1119,-6.1119,-6.1119,-6.1119,-6.1119,-6.1119,-6.1185,-6.1285,-6.1285,-6.1351,-6.1417,-6.1285,-6.1285,-6.1218,-6.1119,-6.039,-5.9902,-5.9902,-5.9383,-5.8946,-5.8946,-5.9109,-5.9311,-5.9512,-6.0677,-6.0994,-6.0191,-5.9358,-5.8232,-5.6848,-5.5397,-5.4603,-5.4549,-5.4549,-5.4485,-5.4409,-5.3768,-5.3396,-3.6405,-3.6944,-3.7625,-3.8271,-3.8412,-3.8664,-3.9564,-4.0041,0.0,0.0,0.0,0.0,0.0,0.0,0.0,0.0,0.0,0.0,0.0,0.0,0.0,0.0,0.0,0.0,0.0,0.0,0.0,0.0,0.0,0.0,0.0,0.0,0.0,0.0,0.0,0.0,-6.2396,-6.2396,-6.2396,-6.2396,-6.2396,-6.2225,-6.1877,-6.1877,-6.1877,-6.1877,0.0,-6.2587,-6.3051,-6.3437,-6.3707,-6.3802,-6.3976,-6.4038,-6.4226,-6.4564,-6.4793,-6.493,-6.5156,-6.5336,-6.5425,-6.5425,-6.5425,-6.5425,-6.5425,-6.5425,-6.5425,-6.5425,-6.5194,-6.4763,-6.4067,-6.3382,-6.2619,-6.1848,-6.1384,-6.1119,-6.1119,-6.1119,-6.1119,-6.1119,-6.1119,-6.1119,-6.1119,-6.1119,-6.1119,-6.1119,-6.0961,-6.0745,-6.039,-5.9819,-5.9333,-5.8971,-5.8643,-5.8446,-5.8446,-5.8617,-5.8859,-5.9179,-5.9931,-6.0171,-5.9718,-5.8827,-5.8018,-5.7336,-5.6059,-5.5377,-5.5254,-5.5254,-5.5101,-5.4802,-5.4305,-5.3922,-3.6571,-3.7251,-3.8074,-3.893,-3.9127,-3.9296,-3.9845,-4.0463,0.0,0.0,0.0,0.0,0.0,0.0,0.0,0.0,0.0,0.0,0.0,0.0,0.0,0.0,0.0,0.0,0.0,0.0,0.0,0.0,0.0,0.0,0.0,0.0,0.0,0.0,0.0,0.0,-6.2396,-6.2207,-6.2193,-6.2193,-6.2193,-6.1814,-6.115,-6.115,-6.115,-6.115,-6.1488,-6.2141,-6.2972,-6.3307,-6.3641,-6.4024,-6.4024,-6.4179,-6.4472,-6.4872,-6.5156,-6.5425,-6.5425,-6.5425,-6.5425,-6.5425,-6.5425,-6.5425,-6.5425,-6.5425,-6.5425,-6.5425,-6.5425,-6.526,-6.4564,-6.4011,-6.3348,-6.242,-6.1748,-6.1318,-6.1152,-6.1119,-6.1119,-6.1119,-6.1119,-6.1119,-6.1119,-6.1119,-6.1077,-6.1002,-6.0802,-6.0412,-5.972,-5.9249,-5.8689,-5.8043,-5.7814,-5.7716,-5.7757,-5.796,-5.8243,-5.8528,-5.9097,-5.9354,-5.9265,-5.8541,-5.8019,-5.7698,-5.6711,-5.6139,-5.5981,-5.5981,-5.5699,-5.5127,-5.4821,-5.4313,-3.7068,-3.7557,-3.8187,-3.9423,-3.9732,-3.9873,-4.0491,-4.1109,0.0,-4.1615,0.0,0.0,0.0,0.0,0.0,0.0,0.0,0.0,0.0,0.0,0.0,0.0,0.0,0.0,0.0,0.0,0.0,0.0,0.0,0.0,0.0,0.0,0.0,0.0,0.0,0.0,-6.2396,-6.1782,-6.1466,-6.1466,-6.1466,-6.1087,-6.036,-6.036,-6.036,-6.044,-6.0946,-6.1596,-6.2284,-6.2755,-6.3376,-6.4024,-6.4024,-6.4272,-6.4702,-6.4702,-6.5021,-6.5425,-6.5425,-6.5425,-6.5425,-6.5425,-6.5425,-6.5425,-6.5425,-6.5425,-6.5425,-6.5425,-6.5425,-6.526,-6.4564,-6.4332,-6.3935,-6.2553,-6.2188,-6.1956,-6.1251,-6.1119,-6.1119,-6.1119,-6.1119,-6.1119,-6.1119,-6.1119,-6.1002,-6.076,-6.0717,-6.037,-5.9437,-5.854,-5.7729,-5.7045,-5.6393,-5.605,-5.625,-5.6415,-5.6573,-5.6573,-5.8256,-5.9003,-5.8528,-5.839,-5.8055,-5.7352,-5.7096,-5.6911,-5.6911,-5.6911,-5.6545,-5.5813,-5.5302,-5.4675,-3.7285,-3.7985,-3.8761,-3.9564,-4.0478,0.0,0.0,-4.1533,-4.1884,-4.2777,-4.3251,0.0,0.0,0.0,0.0,0.0,0.0,0.0,0.0,0.0,0.0,0.0,0.0,0.0,0.0,0.0,0.0,0.0,0.0,0.0,0.0,0.0,0.0,0.0,0.0,0.0,0.0,-6.1751,-6.115,-6.0708,-6.0708,-6.036,-5.9665,-5.9665,-5.9665,-5.9744,-6.0259,-6.1116,-6.222,-6.2704,-6.3344,-6.4024,-6.4132,-6.4286,-6.4472,-6.4656,-6.493,-6.5234,-6.5234,-6.5291,-6.5425,-6.5425,-6.5425,-6.5425,-6.5425,-6.5425,-6.5381,-6.5279,-6.5291,-6.5359,-6.5094,-6.4697,-6.4133,-6.315,-6.2553,-6.2022,-6.1251,-6.1119,-6.1119,-6.1119,-6.1119,-6.1119,-6.1119,-6.0961,-6.0802,-6.0717,-6.0463,-6.003,-5.9226,-5.8297,-5.7414,-5.67,-5.5986,-5.5645,-5.5886,-5.5966,-5.6126,-5.6402,-5.7288,-5.7725,-5.7535,-5.7649,-5.7557,-5.7289,-5.7214,-5.7176,-5.7176,-5.6742,-5.6178,-5.5551,-5.4921,-5.4218,-3.76,-3.8402,-3.9099,-3.9928,0.0,0.0,-4.2437,-4.2461,-4.2697,-4.3726,-4.4146,0.0,0.0,0.0,0.0,0.0,0.0,0.0,0.0,0.0,0.0,0.0,0.0,0.0,0.0,0.0,0.0,0.0,0.0,0.0,0.0,0.0,0.0,0.0,0.0,0.0,0.0,-6.1498,-6.0803,-6.0297,-5.9854,-5.9412,-5.897,-5.897,-5.897,-5.9016,-5.9525,-6.0458,-6.1579,-6.2285,-6.3117,-6.4024,-6.4179,-6.424,-6.4333,-6.4518,-6.4748,-6.4963,-6.4963,-6.5144,-6.5291,-6.5291,-6.5336,-6.5425,-6.5425,-6.5425,-6.5381,-6.5144,-6.5189,-6.5291,-6.5291,-6.5017,-6.4531,-6.3846,-6.3083,-6.2354,-6.1616,-6.1251,-6.1119,-6.1119,-6.1119,-6.1044,-6.1002,-6.0802,-6.0675,-6.0548,-6.0282,-5.9805,-5.897,-5.828,-5.7547,-5.6608,-5.5863,-5.545,-5.5645,-5.5726,-5.5927,-5.6284,-5.6603,-5.6872,-5.6987,-5.7139,-5.7252,-5.7289,-5.7289,-5.7289,-5.7289,-5.6553,-5.5886,-5.5293,-5.452,-5.3816,-3.817,-3.871,-3.9253,0.0,0.0,0.0,-4.3343,-4.3887,-4.4195,-4.4195,0.0,0.0,0.0,0.0,0.0,0.0,0.0,0.0,0.0,0.0,0.0,0.0,0.0,0.0,0.0,0.0,0.0,0.0,0.0,0.0,0.0,0.0,0.0,0.0,0.0,0.0,0.0,-6.1024,-6.0297,-6.0297,-5.8938,-5.8321,-5.8321,-5.8321,-5.8321,-5.8321,-5.8824,-5.9388,-6.0216,-6.1348,-6.2663,-6.3991,-6.4024,-6.4132,-6.4286,-6.4286,-6.4472,-6.4702,-6.4702,-6.4839,-6.5099,-6.5099,-6.5201,-6.5425,-6.5425,-6.5425,-6.5381,-6.5144,-6.5099,-6.5099,-6.5099,-6.5279,-6.5227,-6.4531,-6.3846,-6.3116,-6.2387,-6.1616,-6.1119,-6.1119,-6.1119,-6.1002,-6.076,-6.0717,-6.0548,-6.0152,-6.0109,-5.9719,-5.8713,-5.8605,-5.8054,-5.664,-5.5863,-5.5409,-5.5409,-5.5645,-5.5886,-5.6086,-5.6284,-5.6564,-5.6987,-5.6987,-5.7101,-5.7289,-5.7289,-5.7289,-5.7289,-5.6553,-5.5816,-5.508,-5.4343,-5.3606,-3.8402,-3.882,0.0,0.0,0.0,0.0,0.0,-4.3887,0.0,0.0,0.0,0.0,0.0,0.0,0.0,0.0,0.0,0.0,0.0,0.0,0.0,0.0,0.0,0.0,0.0,0.0,0.0,0.0,0.0,0.0,0.0,0.0,0.0,0.0,0.0,0.0,-6.2396,-6.1529,-6.1055,-6.1055,-5.9665,-5.8748,-5.8321,-5.8321,-5.8413,-5.8518,-5.8869,-5.9479,-6.0399,-6.1943,-6.2825,-6.3279,-6.3797,-6.4071,-6.4085,-6.4085,-6.4193,-6.4426,-6.4426,-6.461,-6.4839,-6.5054,-6.5144,-6.5234,-6.5381,-6.5425,-6.5381,-6.5144,-6.5099,-6.5099,-6.5099,-6.5144,-6.5036,-6.452,-6.3846,-6.3116,-6.2387,-6.1616,-6.1119,-6.1119,-6.1119,-6.1002,-6.076,-6.0591,-6.0378,-6.0152,-5.9935,-5.9545,-5.8702,-5.8605,-5.8054,-5.664,-5.6316,-5.596,-5.5442,-5.545,-5.5685,-5.6086,-5.6165,-5.6402,-5.6757,-5.6796,-5.6872,-5.7101,-5.7101,-5.7176,-5.7289,-5.6553,-5.5816,-5.508,-5.4343,-5.3536,-3.8524,0.0,0.0,0.0,0.0,0.0,0.0,0.0,0.0,0.0,0.0,0.0,0.0,0.0,0.0,0.0,0.0,0.0,0.0,0.0,0.0,0.0,0.0,0.0,0.0,0.0,0.0,0.0,0.0,0.0,0.0,0.0,0.0,0.0,0.0,0.0,-6.2396,-6.1751,-6.1452,-6.1565,-6.0377,-5.9536,-5.9009,-5.8631,-5.8518,-5.8792,-5.9017,-5.9659,-6.067,-6.1646,-6.2372,-6.2923,-6.3376,-6.3732,-6.4024,-6.4024,-6.4085,-6.4146,-6.4146,-6.4333,-6.4564,-6.4702,-6.4918,-6.5099,-6.5246,-6.5336,-6.5381,-6.5144,-6.5099,-6.5099,-6.5099,-6.5099,-6.5045,-6.4851,-6.4001,-6.3183,-6.2752,-6.1815,-6.1119,-6.1119,-6.1119,-6.0961,-6.0633,-6.0463,-6.0325,-5.9979,-5.9804,-5.9555,-5.9058,-5.8766,-5.8249,-5.745,-5.7093,-5.664,-5.5895,-5.5863,-5.5937,-5.6086,-5.6086,-5.6284,-5.668,-5.668,-5.6757,-5.6872,-5.6872,-5.6949,-5.7063,-5.6292,-5.5558,-5.4825,-5.4092,-5.3252,0.0,0.0,0.0,0.0,0.0,0.0,0.0,0.0,0.0,0.0,0.0,0.0,0.0,0.0,0.0,0.0,0.0,0.0,0.0,0.0,0.0,0.0,0.0,0.0,0.0,0.0,0.0,0.0,0.0,0.0,0.0,0.0,0.0,0.0,0.0,0.0,-6.2302,-6.1719,-6.158,0.0,-6.117,-6.0674,-6.0266,-5.9238,-5.8855,-5.9049,-5.9241,-5.9851,-6.072,-6.0753,-6.153,-6.2696,-6.2825,-6.3311,-6.3926,-6.3991,-6.4024,-6.4024,-6.4024,-6.4132,-6.4286,-6.4254,-6.4656,-6.5054,-6.5099,-6.5234,-6.5381,-6.5189,-6.5099,-6.5099,-6.5099,-6.5099,-6.5144,-6.5336,-6.4299,-6.3315,-6.3315,-6.2146,-6.1119,-6.1119,-6.1119,-6.0961,-6.0463,-6.0378,-6.0206,-5.976,-5.9716,-5.9716,-5.9716,-5.909,-5.8669,-5.8605,-5.8065,-5.7427,-5.6682,-5.6649,-5.649,-5.6217,-5.6224,-5.6389,-5.668,-5.668,-5.668,-5.668,-5.668,-5.668,-5.668,-5.6051,-5.5322,-5.4456,-5.3831,-5.2993,0.0,0.0,0.0,0.0,0.0,0.0,0.0,0.0,0.0,0.0,0.0,0.0,0.0,0.0,0.0,0.0,0.0,0.0,0.0,0.0,0.0,0.0,0.0,0.0,0.0,0.0,0.0,0.0,0.0,0.0,0.0,0.0,0.0,0.0,0.0,-6.1024,-6.1624,-6.1709,-6.1996,0.0,-6.2125,-6.1899,-6.1942,-6.0426,-5.9607,-5.9241,-5.9508,-5.977,-5.9976,-6.0558,-6.0979,-6.1336,-6.2469,-6.2987,-6.3214,-6.3797,-6.4024,-6.4024,-6.4024,-6.3991,-6.4085,-6.424,-6.4518,-6.4839,-6.5054,-6.5234,-6.5381,-6.5336,-6.5234,-6.5144,-6.5291,-6.5234,-6.5144,-6.5336,-6.4299,-6.3315,-6.3315,-6.2146,-6.1119,-6.1119,-6.1119,-6.0961,-6.0463,-6.0378,-6.0206,-5.976,-5.9716,-5.9716,-5.9716,-5.9587,-5.9219,-5.8637,-5.8443,-5.814,-5.7637,-5.7614,-5.7486,-5.7211,-5.7218,-5.7074,-5.6713,-5.668,-5.668,-5.668,-5.668,-5.668,-5.668,-5.6514,-5.5786,-5.449,-5.4324,-5.3489,0.0,0.0,0.0,0.0,0.0,0.0,0.0,0.0,0.0,0.0,0.0,0.0,0.0,0.0,0.0,0.0,0.0,0.0,0.0,0.0,0.0,0.0,0.0,0.0,0.0,0.0,0.0,0.0,0.0,0.0,0.0,0.0,0.0,0.0,-6.0487,-6.0487,-6.0866,-6.1154,-6.1695,-6.2492,-6.238,-6.231,-6.2109,-6.0954,-6.0084,-5.9508,-5.9628,-5.9716,-5.9749,-6.0105,-6.0494,-6.0882,-6.1595,-6.2081,-6.2469,-6.3214,-6.3473,-6.3538,-6.3894,-6.4024,-6.4024,-6.4132,-6.4333,-6.4564,-6.4839,-6.5066,-6.5246,-6.5381,-6.5336,-6.5246,-6.5381,-6.5336,-6.5246,-6.5381,-6.4597,-6.3746,-6.3415,-6.2411,-6.1516,-6.1185,-6.1119,-6.0961,-6.0591,-6.0378,-6.0195,-5.9935,-5.9892,-5.9935,-5.999,-6.0066,-5.9903,-5.9469,-5.9436,-5.9229,-5.8638,-5.8573,-5.824,-5.7555,-5.7489,-5.7278,-5.6713,-5.668,-5.668,-5.668,-5.668,-5.668,-5.668,-5.668,-5.5951,-5.449,-5.449,-5.3618,0.0,0.0,0.0,0.0,0.0,0.0,0.0,0.0,0.0,0.0,0.0,0.0,0.0,0.0,0.0,0.0,0.0,0.0,0.0,0.0,0.0,0.0,0.0,0.0,0.0,0.0,0.0,0.0,0.0,0.0,0.0,0.0,0.0,-6.0139,-6.0012,-6.0012,-6.0139,-6.0424,-6.1088,-6.198,-6.2263,-6.2109,-6.1627,-6.1044,-6.0397,-5.9716,-5.9716,-5.9716,-5.9716,-5.9716,-6.0073,-6.0623,-6.0753,-6.1141,-6.1724,-6.2437,-6.2793,-6.2987,-6.3603,-6.3894,-6.4024,-6.4024,-6.4132,-6.4379,-6.461,-6.4918,-6.5144,-6.5336,-6.5425,-6.5425,-6.5425,-6.5425,-6.5425,-6.5425,-6.4962,-6.4332,-6.3471,-6.2719,-6.1989,-6.1251,-6.1077,-6.0961,-6.0675,-6.0335,-6.0109,-6.0109,-6.0109,-6.0195,-6.0378,-6.0378,-6.0378,-6.0378,-6.0378,-6.0191,-5.9568,-5.9535,-5.9037,-5.7793,-5.7734,-5.745,-5.6713,-5.668,-5.668,-5.668,-5.668,-5.668,-5.668,-5.668,-5.5951,-5.449,-5.449,-5.3511,0.0,0.0,0.0,0.0,0.0,0.0,0.0,0.0,0.0,0.0,0.0,0.0,0.0,0.0,0.0,0.0,0.0,0.0,0.0,0.0,0.0,0.0,0.0,0.0,0.0,0.0,0.0,0.0,0.0,0.0,0.0,0.0,-5.9302,-5.9444,-5.8843,-5.8843,-5.9444,-5.9911,-6.054,-6.1244,-6.1676,-6.1549,-6.0915,-6.085,-6.0397,-5.9716,-5.9716,-5.9716,-5.9716,-5.9716,-5.9781,-5.9911,-6.0558,-6.085,-6.1012,-6.1692,-6.234,-6.289,-6.2987,-6.3473,-6.4024,-6.4024,-6.4132,-6.4379,-6.461,-6.4918,-6.5144,-6.5336,-6.5425,-6.5425,-6.5425,-6.5425,-6.5425,-6.5425,-6.5326,-6.4929,-6.357,-6.2719,-6.1989,-6.1251,-6.0919,-6.0675,-6.0463,-6.0282,-6.0109,-6.0109,-6.0109,-6.0195,-6.0378,-6.0378,-6.0378,-6.0378,-6.0378,-6.043,-6.0501,-6.0511,-6.0001,-5.8793,-5.8694,-5.8098,-5.6746,-5.668,-5.668,-5.668,-5.668,-5.668,-5.668,-5.668,-5.5951,-5.449,-5.449,-5.3511,0.0,0.0,0.0,0.0,0.0,0.0,0.0,0.0,0.0,0.0,0.0,0.0,0.0,0.0,0.0,0.0,0.0,0.0,0.0,0.0,0.0,0.0,0.0,0.0,0.0,0.0,0.0,0.0,0.0,0.0,0.0,-5.8921,-5.8845,-5.8748,-5.8432,-5.8447,-5.8717,-5.9087,-5.9759,-6.0739,-6.1445,-6.1465,-6.0785,-6.0785,-6.0397,-5.9716,-5.9716,-5.9716,-5.9716,-5.9716,-5.9716,-5.9749,-6.0073,-6.0202,-6.0267,-6.0979,-6.1433,-6.1821,-6.2631,-6.3117,-6.3441,-6.3894,-6.4038,-6.4226,-6.4564,-6.4793,-6.493,-6.5291,-6.5425,-6.5425,-6.5425,-6.5425,-6.5425,-6.5425,-6.5425,-6.5127,-6.41,-6.3348,-6.2477,-6.1318,-6.0877,-6.0633,-6.042,-6.0239,-6.0109,-6.0109,-6.0109,-6.0195,-6.0378,-6.0506,-6.0548,-6.0548,-6.0708,-6.0835,-6.0919,-6.0919,-6.0332,-5.8999,-5.8899,-5.8237,-5.6746,-5.6564,-5.6525,-5.6525,-5.6641,-5.668,-5.668,-5.668,-5.5951,-5.449,-5.449,-5.3511,0.0,0.0,0.0,0.0,0.0,0.0,0.0,0.0,0.0,0.0,0.0,0.0,0.0,0.0,0.0,0.0,0.0,0.0,0.0,0.0,0.0,0.0,0.0,0.0,0.0,0.0,0.0,0.0,0.0,0.0,-5.8275,-5.8435,-5.8452,-5.8306,-5.8321,-5.8321,-5.8321,-5.8473,-5.9092,-6.0135,-6.0832,-6.0967,-6.0526,-6.0526,-6.0235,-5.9716,-5.9716,-5.9716,-5.9716,-5.9716,-5.9716,-5.9716,-5.9716,-5.9716,-5.9781,-6.0332,-6.0623,-6.0947,-6.1983,-6.2599,-6.2987,-6.3538,-6.3862,-6.4085,-6.4564,-6.4702,-6.4793,-6.5291,-6.5425,-6.5425,-6.5425,-6.5425,-6.5425,-6.5425,-6.5425,-6.516,-6.4299,-6.3547,-6.261,-6.1267,-6.0835,-6.0633,-6.0378,-6.0195,-6.0109,-6.0109,-6.0109,-6.0195,-6.0378,-6.0548,-6.0633,-6.0633,-6.0877,-6.1002,-6.1002,-6.1077,-6.049,-5.8999,-5.8859,-5.8157,-5.6669,-5.6408,-5.6323,-5.6323,-5.6447,-5.6564,-5.6603,-5.6514,-5.5752,-5.449,-5.4291,-5.3346,0.0,0.0,0.0,0.0,0.0,0.0,0.0,0.0,0.0,0.0,0.0,0.0,0.0,0.0,0.0,0.0,0.0,0.0,0.0,0.0,0.0,0.0,0.0,0.0,0.0,0.0,0.0,0.0,0.0,0.0,-5.7558,-5.7605,-5.7809,-5.8274,-5.8321,-5.8321,-5.8321,-5.8473,-5.8837,-5.9395,-5.9427,-5.956,-5.9781,-5.9781,-5.9749,-5.9716,-5.9716,-5.9716,-5.9716,-5.9716,-5.9716,-5.9716,-5.9716,-5.9716,-5.9716,-5.9749,-6.0202,-6.0818,-6.0882,-6.1789,-6.289,-6.2923,-6.3441,-6.4085,-6.4564,-6.4702,-6.4793,-6.5291,-6.5425,-6.5425,-6.5425,-6.5425,-6.5425,-6.5425,-6.5425,-6.5028,-6.3637,-6.2785,-6.1938,-6.0924,-6.0717,-6.0591,-6.0195,-6.0109,-6.0109,-6.0109,-6.0109,-6.0195,-6.0378,-6.042,-6.042,-6.042,-6.0591,-6.0717,-6.0717,-6.0961,-6.049,-5.8999,-5.8698,-5.7957,-5.6474,-5.6244,-5.6126,-5.6126,-5.6126,-5.6244,-5.6408,-5.5903,-5.5251,-5.4456,-5.3798,-5.2851,-4.2056,0.0,0.0,0.0,0.0,0.0,0.0,0.0,0.0,0.0,0.0,0.0,0.0,0.0,0.0,0.0,0.0,0.0,0.0,0.0,0.0,0.0,0.0,0.0,0.0,0.0,0.0,0.0,0.0,0.0,-5.7258,-5.7401,-5.7684,-5.8011,-5.8228,-5.8321,-5.8321,-5.8473,-5.8701,-5.8882,-5.9152,-5.9375,-5.9464,-5.9628,-5.9716,-5.9716,-5.9716,-5.9716,-5.9716,-5.9716,-5.9716,-5.9716,-5.9716,-5.9716,-5.9716,-5.9716,-5.9878,-6.017,-6.0623,-6.1109,-6.1692,-6.2599,-6.3084,-6.3422,-6.4203,-6.4531,-6.4793,-6.5144,-6.5291,-6.5425,-6.5425,-6.5425,-6.5425,-6.5425,-6.5425,-6.4984,-6.3396,-6.2461,-6.1692,-6.0849,-6.0463,-6.0206,-5.9892,-5.9684,-5.9552,-5.9375,-5.9407,-5.9419,-5.9464,-5.9728,-5.9979,-5.9979,-6.0292,-6.0506,-6.0506,-6.0163,-5.9514,-5.8527,-5.7953,-5.7255,-5.6238,-5.6006,-5.5886,-5.5886,-5.5886,-5.6006,-5.6205,-5.5644,-5.5033,-5.427,-5.3691,-5.2818,-4.2611,0.0,0.0,0.0,0.0,0.0,0.0,0.0,0.0,0.0,0.0,0.0,0.0,0.0,0.0,0.0,0.0,0.0,0.0,0.0,0.0,0.0,0.0,0.0,0.0,0.0,0.0,0.0,0.0,0.0,-5.7084,-5.7322,-5.7684,-5.8011,-5.8228,-5.8321,-5.8321,-5.8427,-5.8518,-5.861,-5.9017,-5.9241,-5.9331,-5.9584,-5.9716,-5.9716,-5.9716,-5.9716,-5.9716,-5.9716,-5.9716,-5.9716,-5.9716,-5.9716,-5.9716,-5.9716,-5.9716,-5.9781,-6.0267,-6.0591,-6.0947,-6.1886,-6.2502,-6.3034,-6.3752,-6.4322,-6.4748,-6.5008,-6.5246,-6.5425,-6.5425,-6.5425,-6.5425,-6.5425,-6.5425,-6.5005,-6.3595,-6.2694,-6.186,-6.0703,-6.0206,-5.9892,-5.9596,-5.9331,-5.9107,-5.8882,-5.8927,-5.8959,-5.8882,-5.9229,-5.9355,-5.9141,-5.9459,-5.962,-5.9477,-5.9105,-5.8525,-5.7921,-5.7388,-5.6792,-5.6039,-5.5766,-5.5645,-5.5645,-5.5645,-5.5726,-5.5854,-5.5259,-5.4689,-5.4157,-5.3423,-5.2587,0.0,0.0,0.0,0.0,0.0,0.0,0.0,0.0,0.0,0.0,0.0,0.0,0.0,0.0,0.0,0.0,0.0,0.0,0.0,0.0,0.0,0.0,0.0,0.0,0.0,0.0,0.0,0.0,0.0,-5.6814,-5.7053,-5.7291,-5.77,-5.8243,-5.8321,-5.8321,-5.8321,-5.8321,-5.8413,-5.861,-5.8882,-5.9107,-5.9331,-5.9552,-5.9716,-5.9716,-5.9716,-5.9716,-5.9716,-5.9716,-5.9716,-5.9716,-5.9716,-5.9716,-5.9716,-5.9716,-5.9716,-5.9716,-5.9716,-6.017,-6.0753,-6.0785,-6.1724,-6.2872,-6.3166,-6.393,-6.4715,-6.4976,-6.5201,-6.5381,-6.5425,-6.5425,-6.5425,-6.5425,-6.5425,-6.5138,-6.4221,-6.3408,-6.2322,-6.0489,-5.9892,-5.9628,-5.9331,-5.9107,-5.8882,-5.861,-5.8792,-5.8837,-5.861,-5.8792,-5.8684,-5.7948,-5.8105,-5.8065,-5.7601,-5.7758,-5.7673,-5.7233,-5.6964,-5.6515,-5.5799,-5.5564,-5.5409,-5.5409,-5.5409,-5.5409,-5.5409,-5.4573,-5.419,-5.4157,-5.296,-5.2158,-4.2981,0.0,0.0,0.0,0.0,0.0,0.0,0.0,0.0,0.0,0.0,0.0,0.0,0.0,0.0,0.0,0.0,0.0,0.0,0.0,0.0,0.0,0.0,0.0,0.0,0.0,0.0,0.0,-5.5284,-5.5284,-5.5378,-5.6233,-5.6933,-5.7287,-5.7944,-5.8321,-5.8321,-5.8321,-5.8321,-5.8413,-5.8824,-5.9049,-5.9107,-5.954,-5.9716,-5.9716,-5.9716,-5.9716,-5.9716,-5.9716,-5.9716,-5.9716,-5.9716,-5.9716,-5.9716,-5.9716,-5.9716,-5.9716,-5.9716,-5.9846,-6.0105,-6.0623,-6.1044,-6.1465,-6.2074,-6.2906,-6.3721,-6.3961,-6.4581,-6.5234,-6.5381,-6.5425,-6.5425,-6.5425,-6.5291,-6.4947,-6.392,-6.3277,-6.2451,-6.0887,-5.9952,-5.9241,-5.8624,-5.8441,-5.8257,-5.7871,-5.7871,-5.7918,-5.7793,-5.7617,-5.7421,-5.7231,-5.7115,-5.7029,-5.6881,-5.6755,-5.6579,-5.6501,-5.6066,-5.5718,-5.5523,-5.545,-5.5409,-5.5409,-5.5409,-5.5409,-5.5409,-5.43,-5.3847,-5.3929,-5.2598,-5.1904,-4.313,-4.321,-4.329,0.0,0.0,0.0,0.0,0.0,0.0,0.0,0.0,0.0,0.0,0.0,0.0,0.0,0.0,0.0,0.0,0.0,0.0,0.0,0.0,0.0,0.0,0.0,0.0,0.0,-5.4683,-5.473,-5.4869,-5.5658,-5.6198,-5.6427,-5.7362,-5.7832,-5.7832,-5.8116,-5.8367,-5.8427,-5.8824,-5.9017,-5.9152,-5.954,-5.9716,-5.9716,-5.9716,-5.9716,-5.9716,-5.9716,-5.9716,-5.9716,-5.9716,-5.9716,-5.9716,-5.9716,-5.9716,-5.9716,-5.9716,-5.9716,-5.9781,-6.0202,-6.0558,-6.0882,-6.1271,-6.2068,-6.288,-6.2983,-6.3776,-6.4749,-6.527,-6.5425,-6.5381,-6.5291,-6.5189,-6.4864,-6.3963,-6.3316,-6.2469,-6.0909,-5.9936,-5.9097,-5.8321,-5.8026,-5.7793,-5.737,-5.7448,-5.7448,-5.7353,-5.6996,-5.6649,-5.6321,-5.5934,-5.562,-5.5554,-5.5431,-5.5389,-5.5589,-5.538,-5.5246,-5.5246,-5.5369,-5.5409,-5.5409,-5.5409,-5.528,-5.4988,-5.4052,-5.3438,-5.3114,-5.2224,-5.1794,-4.328,-4.329,-4.329,-4.329,0.0,0.0,-4.4077,-4.4706,-4.5394,0.0,0.0,0.0,0.0,0.0,0.0,0.0,0.0,0.0,0.0,0.0,0.0,0.0,0.0,0.0,0.0,0.0,0.0,-5.4468,-5.4468,-5.4607,-5.4884,-5.5175,-5.5479,-5.5705,-5.6591,-5.7137,-5.7231,-5.7878,-5.8363,-5.861,-5.8882,-5.9107,-5.9331,-5.9584,-5.9716,-5.9716,-5.9716,-5.9716,-5.9716,-5.9716,-5.9716,-5.9716,-5.9716,-5.9716,-5.9716,-5.9716,-5.9716,-5.9716,-5.9716,-5.9716,-5.9716,-5.9716,-6.0137,-6.0688,-6.0688,-6.1321,-6.2085,-6.2195,-6.3031,-6.4155,-6.4994,-6.527,-6.5291,-6.5099,-6.5008,-6.4826,-6.4146,-6.3473,-6.246,-6.0862,-5.9879,-5.9096,-5.834,-5.7809,-5.7401,-5.7115,-5.7258,-5.7353,-5.7067,-5.6575,-5.603,-5.5424,-5.4691,-5.4153,-5.3962,-5.4017,-5.4231,-5.4687,-5.4906,-5.5031,-5.5072,-5.5237,-5.5328,-5.5369,-5.5369,-5.5086,-5.4405,-5.3857,-5.3122,-5.2145,-5.19,-5.1758,-4.3439,-4.329,0.0,0.0,0.0,0.0,-4.3469,-4.3977,0.0,0.0,0.0,0.0,0.0,0.0,0.0,0.0,0.0,0.0,0.0,0.0,0.0,0.0,0.0,0.0,0.0,0.0,-5.2513,-5.3067,-5.3098,-5.3189,-5.3489,-5.421,-5.476,-5.4982,-5.5942,-5.6663,-5.7155,-5.7539,-5.8024,-5.861,-5.9062,-5.9286,-5.9331,-5.9584,-5.9716,-5.9716,-5.9716,-5.9716,-5.9716,-5.9716,-5.9716,-5.9716,-5.9716,-5.9716,-5.9716,-5.9716,-5.9716,-5.9716,-5.9716,-5.9716,-5.9716,-5.9716,-5.9814,-5.9911,-5.9911,-6.0473,-6.1244,-6.1975,-6.2897,-6.3711,-6.392,-6.438,-6.4839,-6.4793,-6.461,-6.4379,-6.4053,-6.3531,-6.2748,-6.1488,-6.0171,-5.9113,-5.8608,-5.7774,-5.7115,-5.6906,-5.6906,-5.6858,-5.6567,-5.5541,-5.4696,-5.4338,-5.3561,-5.3032,-5.2997,-5.3496,-5.3931,-5.4231,-5.4412,-5.4623,-5.4854,-5.4896,-5.4989,-5.5155,-5.5287,-5.5086,-5.4405,-5.3857,-5.3198,-5.2426,-5.1834,-5.1573,0.0,0.0,0.0,-4.329,0.0,0.0,0.0,-4.3838,0.0,0.0,0.0,0.0,0.0,0.0,0.0,0.0,0.0,0.0,0.0,0.0,0.0,0.0,0.0,0.0,0.0,0.0,-5.1344,-5.1682,-5.1801,-5.2056,-5.2529,-5.319,-5.3784,-5.4292,-5.5172,-5.5885,-5.6366,-5.6804,-5.7535,-5.846,-5.8683,-5.9053,-5.9508,-5.9628,-5.9716,-5.9716,-5.9716,-5.9716,-5.9716,-5.9716,-5.9716,-5.9716,-5.9716,-5.9716,-5.9716,-5.9716,-5.9716,-5.9716,-5.9716,-5.9716,-5.9716,-5.9716,-5.9716,-5.9716,-5.9716,-5.9976,-6.0441,-6.1389,-6.1979,-6.2472,-6.2998,-6.3621,-6.41,-6.4041,-6.4072,-6.4053,-6.3675,-6.3293,-6.2761,-6.1873,-6.0764,-5.9627,-5.8553,-5.7859,-5.7325,-5.6871,-5.681,-5.6713,-5.6421,-5.5228,-5.4307,-5.4023,-5.3024,-5.2458,-5.2684,-5.3011,-5.3365,-5.3726,-5.4071,-5.4316,-5.4444,-5.4687,-5.4896,-5.5113,-5.5196,-5.5125,-5.4924,-5.4258,-5.3662,-5.3062,-5.2704,-5.2498,0.0,0.0,0.0,0.0,0.0,-4.329,0.0,0.0,0.0,0.0,0.0,0.0,0.0,0.0,0.0,0.0,0.0,0.0,0.0,0.0,0.0,0.0,0.0,0.0,0.0,0.0,-5.074,-5.074,-5.0913,-5.1258,-5.1915,-5.2289,-5.289,-5.3699,-5.4407,-5.5035,-5.5536,-5.6164,-5.6977,-5.8107,-5.828,-5.8722,-5.9522,-5.9652,-5.9716,-5.9716,-5.9716,-5.9716,-5.9716,-5.9716,-5.9716,-5.9716,-5.9716,-5.9716,-5.9716,-5.9716,-5.9716,-5.9716,-5.9716,-5.9716,-5.9716,-5.9716,-5.9716,-5.9716,-5.9716,-5.9716,-5.9858,-6.0618,-6.0934,-6.1238,-6.2035,-6.2733,-6.3244,-6.3166,-6.3437,-6.3609,-6.3196,-6.2905,-6.2531,-6.2016,-6.1246,-6.0185,-5.859,-5.8035,-5.758,-5.6902,-5.681,-5.6713,-5.6421,-5.518,-5.4213,-5.3927,-5.2744,-5.2063,-5.2473,-5.2563,-5.2833,-5.3246,-5.3671,-5.3931,-5.4017,-5.4486,-5.4822,-5.5031,-5.5072,-5.5196,-5.5409,-5.4859,-5.4291,-5.3734,-5.3565,-5.3383,0.0,0.0,0.0,0.0,-4.3738,0.0,0.0,0.0,0.0,0.0,0.0,0.0,0.0,0.0,0.0,0.0,0.0,0.0,0.0,0.0,0.0,0.0,0.0,0.0,0.0,0.0,0.0,-5.0955,-5.0998,-5.12,-5.1717,-5.18,-5.2324,-5.3406,-5.3575,-5.4305,-5.5762,-5.6071,-5.6616,-5.7324,-5.8152,-5.8637,-5.8734,-5.9425,-5.9716,-5.9716,-5.9716,-5.9716,-5.9716,-5.9716,-5.9716,-5.9716,-5.9716,-5.9716,-5.9716,-5.9716,-5.9716,-5.9716,-5.9716,-5.9716,-5.9716,-5.9716,-5.9716,-5.9716,-5.9716,-5.9716,-5.9716,-5.9814,-6.0344,-6.0862,-6.0972,-6.1491,-6.2081,-6.2497,-6.2629,-6.2713,-6.2826,-6.2629,-6.2284,-6.1734,-6.1399,-6.0699,-5.9315,-5.8375,-5.758,-5.6902,-5.681,-5.6713,-5.6421,-5.4988,-5.3927,-5.364,-5.2433,-5.1695,-5.1711,-5.2124,-5.2442,-5.2743,-5.3055,-5.3396,-5.3833,-5.4231,-5.4539,-5.4813,-5.4989,-5.5196,-5.5409,-5.5345,-5.4956,-5.4316,-5.3438,-5.3068,0.0,0.0,0.0,0.0,0.0,0.0,-4.3947,0.0,-4.4028,0.0,0.0,0.0,0.0,0.0,0.0,0.0,0.0,0.0,0.0,0.0,0.0,0.0,0.0,0.0,0.0,0.0,0.0,0.0,0.0,-4.9881,-5.0461,-5.1114,-5.1887,-5.2717,-5.3296,-5.3939,-5.4755,-5.5297,-5.596,-5.6796,-5.7213,-5.7796,-5.8605,-5.8896,-5.9328,-5.9716,-5.9716,-5.9716,-5.9716,-5.9716,-5.9716,-5.9716,-5.9716,-5.9716,-5.9716,-5.9716,-5.9716,-5.9716,-5.9716,-5.9716,-5.9716,-5.9716,-5.9716,-5.9716,-5.9716,-5.9716,-5.9716,-5.9716,-5.9943,-6.017,-6.017,-6.0688,-6.1355,-6.1823,-6.2088,-6.238,-6.2746,-6.2464,-6.2066,-6.1683,-6.141,-6.0876,-5.9734,-5.8924,-5.8165,-5.7487,-5.7056,-5.6713,-5.6421,-5.5353,-5.4334,-5.3652,-5.2605,-5.1854,-5.1602,-5.1757,-5.2079,-5.2442,-5.3011,-5.3409,-5.3789,-5.406,-5.4401,-5.4771,-5.4896,-5.5072,-5.5409,-5.5409,-5.5198,-5.4785,-5.4414,-5.409,-4.6974,0.0,0.0,0.0,0.0,0.0,0.0,0.0,0.0,0.0,0.0,0.0,0.0,0.0,-4.4548,-4.4363,0.0,0.0,0.0,0.0,0.0,0.0,0.0,0.0,0.0,0.0,0.0,0.0,-4.7817,0.0,-4.9426,-5.0279,-5.1176,-5.2148,-5.2861,-5.3512,-5.4091,-5.4648,-5.5343,-5.6187,-5.6413,-5.7158,-5.8356,-5.8508,-5.8993,-5.9716,-5.9716,-5.9716,-5.9716,-5.9716,-5.9716,-5.9716,-5.9716,-5.9716,-5.9716,-5.9716,-5.9716,-5.9716,-5.9716,-5.9716,-5.9716,-5.9716,-5.9716,-5.9716,-5.9716,-5.9716,-5.9716,-5.9716,-5.9716,-5.9716,-5.9716,-6.0105,-6.0643,-6.1082,-6.1399,-6.1694,-6.2379,-6.2081,-6.1665,-6.1602,-6.141,-6.0887,-5.9952,-5.9224,-5.8547,-5.7919,-5.7241,-5.6713,-5.6519,-5.5694,-5.4843,-5.4068,-5.3116,-5.236,-5.181,-5.1827,-5.2015,-5.2261,-5.298,-5.3496,-5.3702,-5.3931,-5.4274,-5.4655,-5.4697,-5.4864,-5.5237,-5.5237,-5.5155,-5.4989,-5.4948,-5.4707,0.0,0.0,0.0,-4.6932,0.0,0.0,0.0,0.0,-4.4959,0.0,0.0,0.0,0.0,-4.4458,-4.4394,-4.3747,-4.3624,0.0,0.0,0.0,0.0,0.0,0.0,0.0,0.0,0.0,0.0,0.0,-4.7502,0.0,-4.9158,-4.926,-5.009,-5.1855,-5.1919,-5.2746,-5.4373,-5.4438,-5.4762,-5.5442,-5.6154,-5.6899,-5.7644,-5.8324,-5.8993,-5.9716,-5.9716,-5.9716,-5.9716,-5.9716,-5.9716,-5.9716,-5.9716,-5.9716,-5.9716,-5.9716,-5.9716,-5.9716,-5.9716,-5.9716,-5.9716,-5.9716,-5.9716,-5.9716,-5.9716,-5.9716,-5.9716,-5.9716,-5.9716,-5.9716,-5.9716,-5.9749,-5.9822,-6.0309,-6.0275,-6.0384,-6.1472,-6.1354,-6.115,-6.1508,-6.141,-6.0887,-5.9952,-5.9224,-5.8547,-5.7919,-5.7241,-5.681,-5.681,-5.5984,-5.5267,-5.4995,-5.4129,-5.3194,-5.2264,-5.2425,-5.2483,-5.2291,-5.298,-5.3377,-5.3421,-5.3888,-5.42,-5.4412,-5.4412,-5.4539,-5.4813,-5.4813,-5.4813,-5.4813,-5.4539,-5.4327,0.0,0.0,-4.8523,-4.8523,0.0,0.0,0.0,0.0,0.0,0.0,0.0,0.0,0.0,-4.4534,-4.4394,-4.3716,-4.3593,-4.3377,0.0,0.0,0.0,0.0,0.0,0.0,0.0,0.0,0.0,-4.5431,-4.6539,-4.7395,0.0,-4.8952,-4.9876,-5.0478,-5.1527,-5.2611,-5.3661,-5.4179,-5.4762,-5.5409,-5.5668,-5.6154,-5.6899,-5.7611,-5.8324,-5.8993,-5.9522,-5.9716,-5.9716,-5.9716,-5.9716,-5.9716,-5.9716,-5.9716,-5.9716,-5.9716,-5.9716,-5.9716,-5.9716,-5.9716,-5.9716,-5.9716,-5.9716,-5.9716,-5.9716,-5.9716,-5.9716,-5.9716,-5.9716,-5.9716,-5.9716,-5.9716,-5.979,-6.0277,-6.0348,-6.0422,-6.0962,-6.0772,-6.0498,-6.0505,-6.0142,-5.9811,-5.9463,-5.8727,-5.8073,-5.7857,-5.7241,-5.681,-5.681,-5.6352,-5.5804,-5.5086,-5.4552,-5.3886,-5.2953,-5.2838,-5.2793,-5.2549,-5.3069,-5.3496,-5.3627,-5.3931,-5.42,-5.4412,-5.4412,-5.4539,-5.4813,-5.4813,-5.4697,-5.4528,-5.4114,-5.3899,-5.1067,-5.0457,0.0,-4.9806,-4.92,0.0,-4.8034,0.0,0.0,0.0,0.0,0.0,0.0,-4.4764,-4.4332,-4.3371,-4.3217,-4.291,0.0,-4.1863,0.0,0.0,0.0,0.0,0.0,0.0,-4.3979,-4.4157,-4.552,-4.6498,0.0,0.0,-4.9323,-4.9881,-5.0898,-5.1912,-5.2916,-5.3661,-5.4373,-5.5053,-5.5312,-5.5798,-5.651,-5.7255,-5.7968,-5.8637,-5.9349,-5.9716,-5.9716,-5.9716,-5.9716,-5.9716,-5.9716,-5.9716,-5.9716,-5.9716,-5.9716,-5.9716,-5.9716,-5.9716,-5.9716,-5.9804,-5.9848,-5.9848,-5.9935,-5.9979,-5.9935,-5.9848,-5.9848,-5.9804,-5.9716,-5.9716,-5.9802,-6.0089,-6.0052,-6.0109,-6.0494,-6.0359,-6.0092,-6.0057,-5.9701,-5.9296,-5.89,-5.8301,-5.7894,-5.7826,-5.7241,-5.681,-5.681,-5.6664,-5.6237,-5.5567,-5.5341,-5.4873,-5.3935,-5.3395,-5.3116,-5.3053,-5.3268,-5.354,-5.3789,-5.3974,-5.4189,-5.4285,-5.4285,-5.437,-5.456,-5.456,-5.4444,-5.4285,-5.3561,-5.3251]},{"header":{"parameterUnit":"m.s-1","parameterCategory":1,"la1":30.6,"la2":29.2853,"lo1":-89.7004,"lo2":-87.6739,"dy":0.0162,"dx":0.0183,"nx":112,"ny":82,"refTime":"2023-06-15T12:00:00:Z","depth":0,"parameterNumber":3,"parameterNumberName":"V-component_of_WINDS"},"data":[0.0,0.0,0.0,0.0,0.0,0.0,0.0,0.0,0.0,0.0,0.0,0.0,0.0,0.0,0.0,0.0,0.0,0.0,0.0,0.0,0.0,0.0,0.0,0.0,0.0,0.0,0.0,0.0,0.0,0.0,0.0,0.0,0.0,0.0,0.0,0.0,0.0,0.0,0.0,0.0,0.0,0.0,0.0,0.0,0.0,0.0,0.0,0.0,0.0,0.0,0.0,0.0,0.0,0.0,0.0,0.0,0.0,0.0,0.0,0.0,0.0,0.0,0.0,0.0,0.0,0.0,0.0,0.0,0.0,0.0,0.0,0.0,0.0,0.0,0.0,0.0,0.0,0.0,0.0,0.0,0.0,0.0,0.0,0.0,0.0,0.0,0.0,0.0,0.0,0.0,0.0,-0.8504,-0.9039,-0.9222,-0.8949,-0.8782,-0.8697,-0.8741,0.0,0.0,0.0,0.0,0.0,0.0,0.0,0.0,0.0,0.0,0.0,0.0,0.0,0.0,0.0,0.0,0.0,0.0,0.0,0.0,0.0,0.0,0.0,0.0,0.0,0.0,0.0,0.0,0.0,0.0,0.0,0.0,0.0,0.0,0.0,0.0,0.0,0.0,0.0,0.0,0.0,0.0,0.0,0.0,0.0,0.0,0.0,0.0,0.0,0.0,0.0,0.0,0.0,0.0,0.0,0.0,0.0,0.0,0.0,0.0,0.0,0.0,0.0,0.0,0.0,0.0,0.0,0.0,0.0,0.0,0.0,0.0,0.0,0.0,0.0,0.0,0.0,0.0,0.0,0.0,0.0,0.0,0.0,0.0,0.0,0.0,0.0,0.0,0.0,0.0,0.0,0.0,0.0,0.0,0.0,0.0,0.0,0.0,0.0,0.0,0.0,0.0,0.0,0.0,-0.7368,-0.9092,-0.9108,-0.8885,-0.8701,-0.8259,-0.8144,-0.8434,0.0,0.0,0.0,0.0,0.0,0.0,0.0,0.0,0.0,0.0,0.0,0.0,0.0,0.0,0.0,0.0,0.0,0.0,0.0,0.0,0.0,0.0,0.0,0.0,0.0,0.0,0.0,0.0,0.0,0.0,0.0,0.0,0.0,0.0,0.0,0.0,0.0,0.0,0.0,0.0,0.0,0.0,0.0,0.0,0.0,0.0,0.0,0.0,0.0,0.0,0.0,0.0,0.0,0.0,0.0,0.0,0.0,0.0,0.0,0.0,0.0,0.0,0.0,0.0,0.0,0.0,0.0,0.0,0.0,0.0,0.0,0.0,0.0,0.0,0.0,0.0,0.0,0.0,0.0,0.0,0.0,0.0,0.0,0.0,0.0,0.0,0.0,0.0,0.0,0.0,0.0,0.0,0.0,0.0,0.0,0.0,0.0,0.0,0.0,0.0,0.0,0.0,0.0,-0.6715,-0.7757,-0.8653,-0.8418,-0.8077,-0.7887,-0.7601,-0.755,-0.7912,-0.8544,0.0,0.0,0.0,0.0,0.0,0.0,0.0,0.0,0.0,0.0,0.0,0.0,0.0,0.0,0.0,0.0,0.0,0.0,0.0,0.0,0.0,0.0,0.0,0.0,0.0,0.0,0.0,0.0,0.0,0.0,0.0,0.0,0.0,0.0,0.0,0.0,0.0,0.0,0.0,0.0,0.0,0.0,0.0,0.0,0.0,0.0,0.0,0.0,0.0,0.0,0.0,0.0,0.0,0.0,0.0,0.0,0.0,0.0,0.0,0.0,0.0,0.0,0.0,0.0,0.0,0.0,0.0,0.0,0.0,0.0,0.0,0.0,0.0,0.0,0.0,0.0,0.0,0.0,0.0,0.0,0.0,0.0,0.0,0.0,0.0,0.0,0.0,0.0,0.0,0.0,0.0,0.0,0.0,0.0,0.0,0.0,0.0,0.0,0.0,0.0,0.0,0.0,-0.7503,-0.7999,-0.8091,-0.7713,-0.7328,-0.6983,-0.6866,-0.6924,-0.7266,-0.8125,0.0,0.0,0.0,0.0,0.0,0.0,0.0,0.0,0.0,0.0,0.0,0.0,0.0,0.0,0.0,0.0,0.0,0.0,0.0,0.0,0.0,0.0,0.0,0.0,0.0,0.0,0.0,0.0,0.0,0.0,0.0,0.0,0.0,0.0,0.0,0.0,0.0,0.0,0.0,0.0,0.0,0.0,0.0,0.0,0.0,0.0,0.0,0.0,0.0,0.0,0.0,0.0,0.0,0.0,0.0,0.0,0.0,0.0,0.0,0.0,0.0,0.0,0.0,0.0,0.0,0.0,0.0,0.0,0.0,0.0,0.0,0.0,0.0,0.0,0.0,0.0,0.0,0.0,0.0,0.0,0.0,0.0,0.0,0.0,0.0,0.0,0.0,0.0,0.0,0.0,0.0,0.0,0.0,0.0,0.0,0.0,0.0,0.0,0.0,0.0,0.0,0.0,-0.7563,-0.7805,-0.7839,-0.7367,-0.681,-0.6303,-0.6149,-0.6228,-0.6646,-0.7688,0.0,0.0,0.0,0.0,0.0,0.0,0.0,0.0,0.0,0.0,0.0,0.0,0.0,0.0,0.0,0.0,0.0,0.0,0.0,0.0,0.0,0.0,0.0,0.0,0.0,0.0,0.0,0.0,0.0,0.0,0.0,0.0,0.0,0.0,0.0,0.0,0.0,0.0,0.0,0.0,0.0,0.0,0.0,0.0,0.0,0.0,0.0,0.0,0.0,0.0,0.0,0.0,0.0,0.0,0.0,0.0,0.0,0.0,0.0,0.0,0.0,0.0,0.0,0.0,0.0,0.0,0.0,0.0,0.0,0.0,0.0,0.0,0.0,0.0,0.0,0.0,0.0,0.0,0.0,0.0,0.0,0.0,0.0,0.0,0.0,0.0,0.0,0.0,0.0,0.0,0.0,0.0,0.0,0.0,0.0,0.0,0.0,0.0,0.0,0.0,0.0,0.0,-0.7372,-0.7534,0.0,-0.663,-0.6103,-0.5584,-0.5443,-0.5555,-0.5887,0.0,0.0,0.0,0.0,0.0,0.0,0.0,0.0,0.0,0.0,0.0,0.0,0.0,0.0,0.0,0.0,0.0,0.0,0.0,0.0,0.0,0.0,0.0,0.0,0.0,0.0,0.0,0.0,0.0,0.0,0.0,0.0,0.0,0.0,0.0,0.0,0.0,0.0,0.0,0.0,0.0,0.0,0.0,0.0,0.0,0.0,0.0,0.0,0.0,0.0,0.0,0.0,0.0,0.0,0.0,0.0,0.0,0.0,0.0,0.0,0.0,0.0,0.0,0.0,0.0,0.0,0.0,0.0,0.0,0.0,0.0,0.0,0.0,0.0,0.0,0.0,0.0,0.0,0.0,0.0,0.0,0.0,0.0,0.0,0.0,0.0,0.0,0.0,0.0,0.0,0.0,0.0,0.0,0.0,0.0,0.0,0.0,0.0,0.0,0.0,0.0,0.0,-0.6982,-0.7242,-0.7172,0.0,-0.6013,-0.5469,-0.5042,-0.4988,-0.5124,-0.5394,0.0,0.0,0.0,0.0,0.0,0.0,0.0,0.0,0.0,0.0,0.0,0.0,0.0,0.0,0.0,0.0,0.0,0.0,0.0,0.0,0.0,0.0,0.0,0.0,0.0,0.0,0.0,0.0,0.0,0.0,0.0,0.0,0.0,0.0,0.0,0.0,0.0,0.0,0.0,0.0,0.0,0.0,0.0,0.0,0.0,0.0,0.0,0.0,0.0,0.0,0.0,0.0,0.0,0.0,0.0,0.0,0.0,0.0,0.0,0.0,0.0,0.0,0.0,0.0,0.0,0.0,0.0,0.0,0.0,0.0,0.0,0.0,0.0,0.0,0.0,0.0,0.0,0.0,0.0,0.0,0.0,0.0,0.0,0.0,0.0,0.0,0.0,0.0,0.0,0.0,0.0,0.0,0.0,0.0,0.0,0.0,0.0,0.0,0.0,0.0,0.0,0.0,-0.7366,-0.7184,-0.6876,-0.6521,-0.5737,-0.5083,-0.4807,-0.4807,-0.4955,0.0,0.0,0.0,0.0,0.0,0.0,0.0,0.0,0.0,0.0,0.0,0.0,0.0,0.0,0.0,0.0,0.0,0.0,0.0,0.0,0.0,0.0,0.0,0.0,0.0,0.0,0.0,0.0,0.0,0.0,0.0,0.0,0.0,0.0,0.0,0.0,0.0,0.0,0.0,0.0,0.0,0.0,0.0,0.0,0.0,0.0,0.0,0.0,0.0,0.0,0.0,0.0,0.0,0.0,0.0,0.0,0.0,0.0,0.0,0.0,0.0,0.0,0.0,0.0,0.0,0.0,0.0,0.0,0.0,0.0,0.0,0.0,0.0,0.0,0.0,0.0,0.0,0.0,0.0,0.0,0.0,0.0,0.0,0.0,0.0,0.0,0.0,0.0,0.0,0.0,0.0,0.0,0.0,0.0,0.0,0.0,0.0,0.0,0.0,0.0,0.0,0.0,0.0,-0.7248,-0.709,-0.6775,-0.6318,-0.5616,-0.5066,-0.4779,-0.4672,-0.4819,-0.5259,0.0,0.0,0.0,0.0,0.0,0.0,0.0,0.0,0.0,0.0,0.0,0.0,0.0,0.0,0.0,0.0,0.0,0.0,0.0,0.0,0.0,0.0,0.0,0.0,0.0,0.0,0.0,0.0,0.0,0.0,0.0,0.0,0.0,0.0,0.0,0.0,0.0,0.0,0.0,0.0,0.0,0.0,0.0,0.0,0.0,0.0,0.0,0.0,0.0,0.0,0.0,0.0,0.0,0.0,0.0,0.0,0.0,0.0,0.0,0.0,0.0,0.0,0.0,0.0,0.0,0.0,0.0,0.0,0.0,0.0,0.0,0.0,0.0,0.0,0.0,0.0,0.0,0.0,0.0,0.0,0.0,0.0,0.0,0.0,0.0,0.0,0.0,0.0,0.0,0.0,0.0,0.0,0.0,0.0,0.0,0.0,0.0,0.0,0.0,0.0,0.0,0.0,-0.7211,-0.6962,-0.6674,-0.6379,-0.564,-0.5116,-0.4943,-0.4842,-0.5051,-0.5493,0.0,0.0,0.0,0.0,0.0,0.0,0.0,0.0,0.0,0.0,0.0,0.0,0.0,0.0,0.0,0.0,0.0,0.0,0.0,0.0,0.0,0.0,0.0,0.0,0.0,0.0,0.0,0.0,0.0,0.0,0.0,0.0,0.0,0.0,0.0,0.0,0.0,0.0,0.0,0.0,0.0,0.0,0.0,0.0,0.0,0.0,0.0,0.0,0.0,0.0,0.0,0.0,0.0,0.0,0.0,0.0,0.0,0.0,0.0,0.0,0.0,0.0,0.0,0.0,0.0,0.0,0.0,0.0,0.0,0.0,0.0,0.0,0.0,0.0,0.0,0.0,0.0,0.0,0.0,0.0,0.0,0.0,0.0,0.0,0.0,0.0,0.0,0.0,0.0,0.0,0.0,0.0,0.0,0.0,0.0,0.0,0.0,0.0,0.0,0.0,0.0,0.0,-0.727,-0.6876,-0.6662,-0.6647,-0.5865,-0.5345,-0.5345,-0.533,-0.5482,-0.5929,0.0,0.0,0.0,0.0,0.0,0.0,0.0,0.0,0.0,0.0,0.0,0.0,0.0,0.0,0.0,0.0,0.0,0.0,0.0,0.0,0.0,0.0,0.0,0.0,0.0,0.0,0.0,0.0,0.0,0.0,0.0,0.0,0.0,0.0,0.0,0.0,0.0,0.0,0.0,0.0,0.0,0.0,0.0,0.0,0.0,0.0,0.0,0.0,0.0,0.0,0.0,0.0,0.0,0.0,0.0,0.0,0.0,0.0,0.0,0.0,-1.9587,0.0,0.0,0.0,0.0,0.0,0.0,0.0,0.0,0.0,0.0,0.0,0.0,0.0,0.0,0.0,0.0,0.0,0.0,0.0,0.0,0.0,0.0,0.0,0.0,0.0,0.0,0.0,0.0,0.0,0.0,0.0,0.0,0.0,0.0,0.0,0.0,0.0,0.0,0.0,0.0,0.0,-0.7786,-0.729,-0.7008,-0.7231,-0.6788,-0.6441,-0.6441,-0.6245,-0.6353,-0.6882,0.0,0.0,0.0,0.0,0.0,0.0,0.0,0.0,0.0,0.0,0.0,0.0,0.0,0.0,0.0,0.0,0.0,0.0,0.0,0.0,0.0,0.0,0.0,0.0,0.0,0.0,0.0,0.0,0.0,0.0,0.0,0.0,0.0,0.0,0.0,0.0,0.0,0.0,0.0,0.0,0.0,0.0,0.0,0.0,0.0,0.0,0.0,0.0,0.0,0.0,0.0,0.0,0.0,0.0,0.0,0.0,0.0,0.0,0.0,0.0,0.0,-2.1325,0.0,0.0,0.0,0.0,0.0,0.0,0.0,0.0,0.0,0.0,0.0,0.0,0.0,0.0,0.0,0.0,0.0,0.0,0.0,0.0,0.0,0.0,0.0,0.0,0.0,0.0,0.0,0.0,0.0,0.0,0.0,0.0,0.0,0.0,0.0,0.0,0.0,0.0,0.0,0.0,-0.8182,-0.7891,-0.778,-0.8019,-0.777,-0.7518,-0.7518,-0.7311,-0.7475,-0.7961,-0.8247,0.0,0.0,0.0,0.0,0.0,0.0,0.0,0.0,0.0,0.0,0.0,0.0,0.0,0.0,0.0,0.0,0.0,0.0,0.0,0.0,0.0,0.0,0.0,0.0,0.0,0.0,0.0,0.0,0.0,0.0,0.0,0.0,0.0,0.0,0.0,0.0,0.0,0.0,0.0,0.0,0.0,0.0,0.0,0.0,0.0,0.0,0.0,0.0,0.0,0.0,0.0,0.0,0.0,0.0,-2.7063,-2.8264,-2.8502,-2.8925,-2.9374,-2.6608,-2.4717,-2.3536,0.0,0.0,0.0,0.0,0.0,0.0,0.0,0.0,0.0,0.0,0.0,0.0,0.0,0.0,0.0,0.0,0.0,0.0,0.0,0.0,0.0,0.0,0.0,0.0,0.0,-1.3248,-1.2206,0.0,0.0,0.0,0.0,0.0,0.0,0.0,0.0,0.0,0.0,0.0,0.0,-0.8709,-0.8666,-0.8735,-0.9003,-0.8793,-0.8671,-0.8735,-0.8603,-0.8715,-0.9252,-0.9189,-0.9391,0.0,0.0,0.0,0.0,0.0,0.0,0.0,0.0,0.0,0.0,0.0,0.0,0.0,0.0,0.0,0.0,0.0,0.0,0.0,0.0,0.0,0.0,0.0,0.0,0.0,0.0,0.0,0.0,0.0,0.0,0.0,0.0,-1.3825,-1.4142,0.0,0.0,0.0,0.0,0.0,0.0,0.0,0.0,0.0,0.0,0.0,0.0,0.0,0.0,-2.5658,-2.6355,-2.6984,-2.7579,-2.8103,-2.9105,-3.0597,-3.0575,-3.1114,-3.1967,-3.1394,0.0,-2.6846,-2.6846,0.0,0.0,0.0,0.0,0.0,0.0,0.0,0.0,0.0,0.0,0.0,0.0,0.0,0.0,0.0,0.0,0.0,0.0,0.0,0.0,0.0,0.0,-1.7738,-1.7295,-1.6977,-1.6535,0.0,-1.2928,-1.0617,-1.0617,0.0,0.0,0.0,0.0,0.0,0.0,0.0,0.0,-0.9647,-0.9549,-0.9569,-0.9786,-0.9926,-1.0069,-1.0326,-1.0141,-1.0238,-1.0707,-1.0562,-1.0529,-1.0757,-1.0707,0.0,0.0,0.0,0.0,0.0,0.0,0.0,0.0,0.0,0.0,0.0,0.0,0.0,0.0,0.0,0.0,0.0,0.0,0.0,0.0,0.0,0.0,0.0,0.0,0.0,0.0,0.0,0.0,0.0,-1.4984,-1.6015,-1.6437,-1.7125,-1.7711,0.0,0.0,0.0,0.0,0.0,0.0,0.0,0.0,0.0,-2.5723,-2.6054,-2.6784,-2.8066,-2.837,-2.8973,-2.9734,-3.0097,-3.0931,-3.2184,-3.2494,-3.2938,-3.3531,-3.3765,-3.2921,-3.126,-3.0055,-2.9127,-2.8471,0.0,0.0,0.0,0.0,0.0,-2.939,-2.9862,0.0,0.0,0.0,0.0,0.0,0.0,0.0,0.0,0.0,0.0,0.0,0.0,0.0,0.0,-2.1417,-2.0894,-2.0391,-1.9733,-1.794,-1.5861,0.0,-1.2945,-1.2441,-1.2283,0.0,0.0,0.0,0.0,0.0,-1.1263,-1.1273,-1.134,-1.157,-1.1658,-1.1703,-1.1901,-1.1592,-1.1563,-1.1987,-1.1514,-1.1297,-1.1452,-1.1081,-1.0736,0.0,0.0,0.0,0.0,0.0,0.0,0.0,0.0,0.0,0.0,0.0,0.0,0.0,0.0,0.0,0.0,0.0,0.0,0.0,0.0,0.0,0.0,0.0,0.0,0.0,0.0,0.0,0.0,-1.7388,-1.834,-1.8936,-1.9757,-2.0451,0.0,0.0,0.0,0.0,0.0,0.0,-2.4422,-2.4841,-2.5918,-2.7752,-2.8069,-2.8854,-3.0118,-3.0171,-3.0686,-3.1629,-3.1878,-3.262,-3.3671,-3.4235,-3.4679,-3.5114,-3.5647,-3.5631,-3.5142,-3.2945,-3.1808,-3.1368,-3.1366,-3.1177,-3.0939,-3.1582,-3.1574,-3.1356,-3.1917,-3.1947,-3.1653,-3.1246,0.0,-2.8899,-2.8166,0.0,0.0,0.0,0.0,-2.5966,-2.609,0.0,-2.5574,-2.532,-2.467,-2.3959,-2.3409,-2.2516,-2.0744,0.0,-1.5779,-1.5065,-1.4735,0.0,0.0,0.0,0.0,-1.2987,-1.2952,-1.2986,-1.3018,-1.3193,-1.321,-1.3193,-1.3274,-1.2978,-1.2963,-1.3162,-1.2539,-1.217,-1.2208,-1.1612,-1.1033,-1.0492,0.0,0.0,0.0,0.0,0.0,0.0,0.0,0.0,0.0,0.0,0.0,0.0,0.0,0.0,0.0,0.0,0.0,0.0,0.0,0.0,0.0,0.0,0.0,0.0,0.0,0.0,0.0,0.0,0.0,-2.1721,-2.2585,0.0,0.0,0.0,0.0,-2.5043,-2.5666,-2.6377,-2.7251,-2.7563,-2.8358,-2.9729,-3.0038,-3.0554,-3.1508,-3.1752,-3.228,-3.3,-3.336,-3.4046,-3.5146,-3.5769,-3.6466,-3.7179,-3.7571,-3.7778,-3.759,-3.5545,-3.4419,-3.3877,-3.3383,-3.3315,-3.3482,-3.3005,-3.2978,-3.3164,-3.3212,-3.3049,-3.2792,-3.2488,-3.1576,-3.0372,-2.9414,-2.936,0.0,0.0,-2.9406,-2.9817,-2.9445,-2.9293,-2.9129,-2.8728,-2.7973,-2.7223,-2.7073,-2.5995,-2.3944,0.0,-1.8879,-1.8255,-1.7615,0.0,-1.6271,-1.5931,-1.5238,-1.4721,-1.4499,-1.4217,-1.4106,-1.4315,-1.4342,-1.4391,-1.451,-1.4304,-1.4222,-1.4321,-1.3771,-1.3315,-1.3148,-1.2494,-1.1656,-1.0703,-1.0302,0.0,0.0,0.0,0.0,0.0,0.0,0.0,0.0,0.0,0.0,0.0,0.0,0.0,0.0,0.0,0.0,0.0,0.0,0.0,0.0,0.0,0.0,0.0,0.0,0.0,0.0,0.0,0.0,-2.4472,-2.5394,0.0,0.0,-2.7214,-2.7623,-2.8359,-2.8411,-2.8706,-2.9262,-2.946,-3.016,-3.1401,-3.1819,-3.244,-3.321,-3.3522,-3.3896,-3.4334,-3.4682,-3.5136,-3.5714,-3.6175,-3.6608,-3.7051,-3.7778,-3.8246,-3.8398,-3.8263,-3.734,-3.6036,-3.5511,-3.5155,-3.4917,-3.511,-3.4966,-3.4823,-3.5184,-3.5231,-3.5011,-3.4235,-3.3459,-3.2685,-3.2036,-3.1942,-3.2146,-3.2316,-3.2404,-3.2494,-3.2818,-3.2683,-3.242,-3.217,-3.1486,-3.067,-2.9976,-2.8975,-2.7508,-2.5256,-2.3094,-2.1479,-2.0808,-2.009,-1.9349,-1.8475,-1.8122,-1.7636,-1.6882,-1.6697,-1.6481,-1.6104,-1.6094,-1.6002,-1.5905,-1.5679,-1.5515,-1.5349,-1.458,-1.4112,-1.402,-1.2852,-1.2049,-1.1646,-1.1042,-1.0482,0.0,0.0,0.0,0.0,0.0,0.0,0.0,0.0,0.0,0.0,0.0,0.0,0.0,0.0,0.0,0.0,0.0,0.0,0.0,0.0,0.0,0.0,0.0,0.0,0.0,0.0,-2.6252,-2.731,-2.8137,-2.8936,-2.9787,-2.9872,-3.02,-3.1042,-3.0891,-3.1054,-3.1657,-3.1767,-3.2262,-3.3198,-3.353,-3.4021,-3.4637,-3.5065,-3.5392,-3.5699,-3.623,-3.6556,-3.6818,-3.7213,-3.7569,-3.7946,-3.8861,-3.9324,-3.9561,-4.0218,-3.9698,-3.8326,-3.7456,-3.6901,-3.6587,-3.6461,-3.6194,-3.5903,-3.633,-3.647,-3.6268,-3.5451,-3.4755,-3.4211,-3.3996,-3.3954,-3.4023,-3.4449,-3.4768,-3.4975,-3.5298,-3.5268,-3.5159,-3.4868,-3.4274,-3.3558,-3.2734,-3.1872,-3.0956,-2.9807,-2.6867,-2.4343,-2.3588,-2.2892,-2.2135,-2.1111,-2.0693,-2.0067,-1.9001,-1.8727,-1.8438,-1.781,-1.7644,-1.7423,-1.7178,-1.687,-1.6564,-1.6309,-1.5416,-1.4884,-1.477,-1.3452,-1.2573,-1.2282,-1.1545,-1.1169,-1.1256,0.0,0.0,0.0,0.0,0.0,0.0,0.0,0.0,0.0,0.0,0.0,0.0,0.0,0.0,0.0,0.0,0.0,0.0,0.0,0.0,0.0,0.0,0.0,-2.7017,-2.7634,-2.8797,-3.0246,-3.0839,-3.1396,-3.2066,-3.2122,-3.2426,-3.3044,-3.313,-3.3514,-3.441,-3.4417,-3.463,-3.5099,-3.5141,-3.5376,-3.5742,-3.6313,-3.6761,-3.7187,-3.7971,-3.8312,-3.8312,-3.9004,-3.9441,-3.9837,-4.0862,-4.1191,-4.1034,-4.1471,-4.1339,-4.0707,-3.918,-3.8546,-3.8372,-3.6994,-3.6507,-3.6528,-3.6744,-3.6672,-3.6409,-3.6068,-3.5478,-3.4952,-3.5219,-3.5323,-3.5375,-3.5634,-3.6467,-3.7214,-3.689,-3.7137,-3.7301,-3.6839,-3.6342,-3.5831,-3.5303,-3.4699,-3.4077,-3.3387,-3.0077,-2.7079,-2.5991,-2.5267,-2.454,-2.3811,-2.2845,0.0,-2.0825,-2.0318,-1.9893,-1.9249,-1.8843,-1.8565,-1.8349,-1.7792,-1.735,-1.7067,-1.6239,-1.5583,-1.5351,-1.4276,-1.3382,-1.2574,-1.19,-1.1987,-1.2802,0.0,0.0,0.0,0.0,0.0,0.0,0.0,0.0,0.0,0.0,0.0,0.0,0.0,0.0,0.0,0.0,0.0,0.0,0.0,0.0,0.0,0.0,-3.1291,-2.96,-3.0348,-3.1469,-3.2645,-3.3317,-3.3888,-3.4381,-3.4835,-3.5268,-3.5811,-3.5422,-3.5323,-3.5584,-3.5441,-3.538,-3.5529,-3.6167,-3.6572,-3.6699,-3.7438,-3.7863,-3.7992,-3.8436,-3.8649,-3.8649,-3.8838,-3.9254,-3.9837,-4.037,-4.0976,-4.1646,-4.2173,-4.2399,-4.2168,-4.0605,-3.9805,-3.9539,-3.914,-3.8749,-3.8394,-3.8428,-3.8092,-3.7673,-3.7618,-3.7303,-3.7077,-3.7606,-3.7715,-3.7825,-3.834,-3.8718,-3.8974,-3.8998,-3.8967,-3.8804,-3.8612,-3.8372,-3.7981,-3.7123,-3.6495,-3.5711,-3.4556,-3.3058,-3.1163,-2.8793,-2.7719,-2.6817,-2.5626,0.0,0.0,-2.2949,-2.2451,-2.1881,-2.1006,-2.0591,-2.0151,-1.9463,-1.9239,-1.8756,0.0,-1.689,-1.6276,-1.5999,-1.4888,-1.4189,-1.3959,-1.3454,-1.3593,0.0,0.0,0.0,0.0,0.0,0.0,0.0,0.0,0.0,0.0,0.0,0.0,0.0,0.0,0.0,0.0,0.0,0.0,0.0,0.0,0.0,0.0,-3.3511,-3.4535,-3.3744,-3.3681,-3.4046,-3.504,-3.5734,-3.6205,-3.6407,-3.6669,-3.694,-3.7183,-3.688,-3.6846,-3.7266,-3.7172,-3.7231,-3.7449,-3.7993,-3.8276,-3.8276,-3.8944,-3.9185,-3.908,-3.9467,-3.9618,-3.9618,-3.9618,-3.9999,0.0,-4.0984,-4.1491,-4.2127,-4.2771,-4.3117,0.0,0.0,0.0,0.0,0.0,-3.965,-3.9451,-3.9306,-3.8967,-3.8514,-3.84,-3.809,-3.7906,-3.8335,-3.8559,-3.8783,-3.9253,-3.9642,-3.9938,-4.0057,-4.0036,-3.9975,-4.0023,-3.9937,-3.964,-3.9037,-3.8422,-3.7647,-3.6406,0.0,0.0,-3.1846,-3.0148,-2.8793,-2.7659,-2.6945,-2.606,-2.4665,-2.3948,-2.3176,-2.2286,-2.1683,-2.1162,-2.0625,-2.0233,0.0,0.0,0.0,-1.6786,-1.5883,-1.5164,0.0,0.0,0.0,-1.5327,-1.6362,0.0,0.0,0.0,-1.6974,-1.7663,0.0,0.0,0.0,0.0,0.0,0.0,0.0,0.0,0.0,0.0,0.0,0.0,0.0,0.0,0.0,0.0,-3.6306,-3.7813,-3.8231,-3.7187,-3.663,-3.7399,-3.7911,-3.8129,-3.8009,-3.8044,-3.8022,-3.7875,-3.7907,-3.8275,-3.9152,0.0,0.0,0.0,0.0,-4.0011,-4.0011,-4.0419,-4.0516,-4.0221,-4.0686,-4.093,-4.093,-4.0974,-4.1385,-4.1965,-4.2285,-4.254,-4.2809,-4.3317,-4.3627,-4.3649,-4.2627,-4.1914,-4.1366,-4.0193,-3.9842,0.0,0.0,0.0,0.0,-3.8781,-3.8344,-3.801,-3.8294,-3.8577,-3.8916,-3.9196,-3.9833,-4.0418,-4.0475,-4.0607,-4.0795,-4.0999,-4.0978,-4.0961,-4.0841,-4.0359,-3.9648,-3.8573,-3.7202,-3.5944,-3.4806,-3.2436,-3.0467,-2.9664,-2.8359,-2.707,-2.6094,-2.5005,-2.4092,-2.3414,0.0,0.0,-2.1835,-2.1005,-2.0221,-1.9555,-1.8514,-1.7208,-1.5624,-1.5544,-1.555,-1.5637,-1.6224,-1.7098,-1.8269,-1.9112,-1.9993,-2.0907,-1.9663,-1.9924,0.0,0.0,0.0,0.0,0.0,0.0,0.0,0.0,0.0,0.0,0.0,0.0,0.0,0.0,0.0,-3.7604,-3.8843,-3.984,-3.973,-4.0021,-3.9922,-3.9242,-3.9196,-3.9179,-3.9158,-3.951,-3.9732,-3.9709,-3.9633,-3.9716,-3.9922,-3.9785,0.0,-3.9921,-4.028,-4.0482,-4.0482,-4.0912,-4.1094,-4.1052,0.0,0.0,-4.1833,-4.2258,-4.2613,-4.3008,-4.3074,-4.3617,-4.4407,-4.4135,-4.3965,-4.383,-4.3051,-4.27,-4.2471,-4.1305,-4.0588,-4.014,-4.0082,-3.9674,-3.9206,-3.917,-3.9101,-3.9068,-3.9383,-3.9558,0.0,-4.0253,-4.0497,-4.0683,-4.0971,-4.1043,-4.1143,-4.1377,-4.1721,-4.2,-4.1816,-4.157,-4.1077,-4.0018,-3.9103,-3.8158,-3.6804,-3.4136,-3.1877,-3.0868,-2.9732,-2.8608,-2.7518,-2.6499,-2.5504,-2.4788,-2.4065,-2.331,-2.2548,-2.211,-2.131,-2.0174,-1.8922,-1.7864,-1.7028,-1.7016,-1.7008,-1.7101,-1.7449,-1.829,-1.9458,-2.0106,-2.1248,-2.2756,-2.1636,-2.181,0.0,0.0,0.0,0.0,0.0,0.0,0.0,0.0,0.0,0.0,0.0,-3.7041,0.0,0.0,-4.0081,-3.993,-4.0923,-4.1625,-4.1383,-4.1838,-4.1719,-4.0599,-4.0676,-4.0673,-4.0388,-4.0544,-4.0595,-4.0223,-4.0421,-4.0638,-4.0917,-4.0977,-4.1142,-4.1331,-4.1456,-4.1443,-4.1443,-4.1693,-4.1814,-4.1956,-4.2204,-4.2429,-4.2743,-4.2925,-4.3237,-4.3545,-4.3545,-4.3963,-4.4617,-4.4877,-4.4816,-4.4521,-4.4025,-4.3486,-4.2998,-4.2238,-4.1555,-4.1022,-4.1022,-4.0605,-4.0066,-4.0066,-3.9882,-3.9735,-3.9877,-3.9893,-3.9861,-4.0153,-4.0503,-4.0735,-4.0908,-4.1057,-4.1389,-4.2005,-4.221,-4.2434,-4.2885,-4.2637,-4.213,-4.1497,-4.0782,-3.9948,-3.8749,-3.6816,-3.4767,-3.2733,-3.114,-2.9885,-2.8987,-2.7627,-2.6534,-2.5937,-2.5145,-2.4483,-2.4,-2.3024,-2.2063,-2.108,-1.9759,-1.8763,-1.8189,-1.8297,-1.8351,-1.8181,-1.8955,-1.9904,-2.0925,-2.1992,-2.3173,-2.4385,-2.4695,-2.5112,0.0,0.0,0.0,0.0,0.0,0.0,0.0,0.0,-3.6599,-3.7149,-3.8497,-3.9607,-3.9558,-4.0797,-4.1904,-4.1981,-4.2802,-4.3387,-4.3187,-4.3215,-4.293,-4.2004,-4.2026,-4.194,-4.1426,-4.1344,-4.1163,-4.0655,-4.1094,-4.1554,-4.2,-4.2248,-4.2467,-4.2822,-4.2622,-4.254,-4.2477,-4.2568,-4.2628,-4.2844,-4.2958,-4.3208,-4.3595,-4.3686,-4.3841,-4.4107,-4.4173,-4.4325,-4.4519,-4.5497,-4.551,-4.5047,-4.477,-4.417,-4.3313,-4.294,-4.24,-4.1821,-4.1821,-4.1373,-4.0823,-4.0823,-4.0548,-4.0241,-4.0149,-3.9969,-3.9859,-3.9825,-4.0153,-4.0561,-4.0677,-4.0908,-4.1403,-4.2519,-4.264,-4.2747,-4.3774,-4.3585,-4.3142,-4.2959,-4.2447,-4.1749,-4.071,-3.9681,-3.7861,-3.4708,-3.2616,-3.1145,-3.031,-2.8722,-2.7493,-2.6961,-2.6083,-2.547,-2.5347,-2.3974,-2.2952,-2.2395,-2.1162,-2.0193,-1.9661,-1.9774,-1.9674,-1.9367,-2.0399,-2.1417,-2.2384,-2.3815,-2.5046,-2.6094,-2.78,-2.8349,-3.2224,-3.2996,-3.4233,-3.5949,-3.6375,-3.6811,0.0,0.0,-3.9932,-4.0228,-4.1308,-4.2126,-4.1873,-4.2814,-4.37,-4.395,-4.4546,-4.5029,-4.5206,-4.4617,-4.4086,-4.3979,-4.2868,-4.2054,-4.1997,-4.1997,-4.2054,-4.2171,-4.2386,-4.264,-4.2861,-4.3074,-4.3067,-4.2822,-4.32,-4.3327,-4.3005,-4.3418,-4.3671,-4.3674,-4.4155,-4.4407,-4.4476,-4.4912,-4.5186,-4.5254,-4.5501,-4.5381,-4.503,-4.5493,-4.5319,-4.4801,-4.4371,-4.4111,-4.3892,-4.3107,-4.24,-4.1821,-4.1821,-4.1373,-4.0823,-4.0823,-4.0778,-4.064,-4.0264,-4.008,-4.0002,-3.9859,-3.9861,-4.0036,-4.0561,-4.0735,-4.1113,-4.246,-4.2974,-4.3384,-4.4475,-4.477,-4.4729,-4.446,-4.4196,-4.3739,-4.266,-4.1837,-4.0078,-3.6307,-3.4158,-3.2607,-3.1529,-3.007,-2.8747,-2.7761,-2.6977,-2.6292,-2.5685,-2.5201,-2.4905,-2.4811,-2.3491,-2.2595,-2.2262,-2.1686,-2.1222,-2.097,-2.1623,-2.2384,-2.3255,-2.4744,-2.63,-2.7931,-2.9881,-3.0341,-3.4553,-3.5517,0.0,0.0,-3.8452,-3.9287,-4.0728,-4.1474,-4.2012,-4.2475,-4.3143,-4.357,-4.3466,-4.3913,-4.4511,0.0,-4.5288,-4.5541,-4.583,-4.5248,-4.472,-4.4325,-4.3425,-4.2737,-4.2369,-4.2312,-4.2421,-4.2674,-4.286,-4.3156,-4.3542,-4.3579,-4.3593,-4.3542,-4.3601,-4.3535,-4.351,-4.3716,-4.3969,-4.4267,-4.4497,-4.475,-4.5048,-4.5323,-4.5438,-4.5415,-4.5551,-4.5503,-4.5295,-4.5631,-4.5462,-4.4972,-4.4958,-4.4765,-4.4407,-4.3449,-4.2815,-4.2382,-4.2382,-4.2071,-4.1633,-4.1445,-4.1177,-4.0904,-4.0428,-3.9953,-3.9515,-3.9454,-3.9419,-3.9544,-3.9837,-4.0305,-4.0996,-4.2222,-4.276,-4.3288,-4.4536,-4.513,-4.5465,-4.5628,-4.5684,-4.5455,-4.4642,-4.3711,-4.2235,-3.9724,-3.7012,-3.4753,-3.3454,-3.1739,-3.0189,-2.8881,-2.8437,-2.8013,-2.7573,-2.7196,-2.6804,-2.6379,-2.5656,-2.4765,-2.3839,-2.35,-2.2984,-2.2299,-2.2881,-2.3496,-2.4223,-2.5845,-2.7473,-2.9019,-3.1413,-3.2937,-3.6983,0.0,0.0,-3.9551,-4.0408,-4.1373,-4.2552,-4.3275,-4.3811,-4.4164,-4.4491,-4.4732,-4.4573,-4.4729,0.0,-4.5532,-4.5581,-4.5709,-4.6113,-4.5585,-4.5055,-4.4607,-4.3929,-4.3351,-4.293,-4.2762,-4.2811,-4.3243,-4.3311,-4.3587,-4.4184,-4.4189,-4.4167,-4.4125,-4.4126,-4.4128,-4.4015,-4.4176,-4.4428,-4.4819,-4.4819,-4.5002,-4.5438,-4.5507,-4.5576,-4.5576,-4.5645,-4.5645,-4.5622,-4.5622,-4.5415,-4.5047,-4.5039,-4.4824,-4.4538,-4.363,-4.3148,-4.3008,-4.2869,-4.2593,-4.2275,-4.1934,-4.1556,-4.1198,-4.0639,-3.9949,-3.9254,-3.912,-3.91,-3.9072,-3.9249,-3.9779,-4.0646,-4.1983,-4.258,-4.3168,-4.4475,-4.5316,-4.5977,-4.6451,-4.6666,-4.6686,-4.6281,-4.5375,-4.4255,-4.2793,-4.014,-3.75,-3.5387,-3.3116,-3.1288,-3.0,-2.9817,-2.9611,-2.9404,-2.9202,-2.8824,-2.8164,-2.7761,-2.6973,-2.5834,-2.5267,-2.4671,-2.4005,-2.4232,-2.4723,-2.5368,-2.7149,-2.8847,-3.06,-3.3198,-3.5445,0.0,0.0,-4.0567,-4.2331,-4.2792,-4.3145,-4.4366,-4.5098,-4.543,-4.5119,-4.5524,-4.5768,-4.5261,-4.518,-4.5283,-4.5532,-4.5581,-4.582,-4.6395,-4.5753,-4.5222,-4.5141,-4.4399,-4.3899,0.0,-4.3321,-4.3325,-4.4078,-4.3885,-4.3996,-4.4767,-4.4953,-4.4737,-4.4125,-4.5024,-4.5209,-4.4589,-4.5071,-4.5392,-4.5415,-4.5415,-4.5415,-4.5438,-4.5875,-4.6104,-4.6058,-4.6189,-4.6252,-4.6207,-4.538,-4.506,-4.4948,-4.3914,-4.3804,-4.4074,-4.3506,-4.3399,-4.3496,-4.3008,-4.2593,-4.2275,-4.1934,-4.1783,-4.1629,-4.0751,-4.0195,-3.9702,-3.9209,-3.8799,-3.8559,-3.9131,-3.9308,-3.9857,-4.1863,-4.258,-4.3168,-4.4475,-4.5502,-4.6227,-4.6767,-4.7051,-4.7264,-4.7377,-4.6808,-4.5978,-4.4892,-4.337,-4.098,-3.7134,-3.3996,-3.1788,-3.1029,-3.09,-3.0844,-3.0844,-3.1103,-3.1027,-3.0538,-2.9886,-2.9282,-2.8801,-2.7239,-2.6313,-2.6296,-2.5845,-2.6045,-2.6806,-2.8575,-3.0673,-3.3128,-3.53,-3.7554,0.0,0.0,-4.2351,-4.2786,-4.3796,-4.48,-4.5207,-4.575,-4.6184,-4.6052,-4.5978,-4.5954,-4.5742,-4.5609,-4.5526,-4.5781,-4.5886,-4.5986,-4.6451,-4.5921,-4.5389,-4.5222,-4.462,0.0,0.0,0.0,0.0,-4.4717,-4.4294,-4.4378,-4.5098,-4.5351,-4.5158,-4.4554,-4.5212,-4.5485,-4.5094,-4.5346,-4.5438,-4.5438,-4.5438,-4.5438,-4.5438,-4.5898,-4.5989,-4.5733,-4.6141,-4.6156,-4.5849,-4.5621,-4.5483,-4.5415,-4.4766,-4.4589,-4.4568,-4.3714,-4.3645,-4.3748,-4.3184,-4.255,-4.1934,-4.155,-4.1293,-4.1055,-4.0513,-4.0074,-3.9589,-3.9041,-3.8741,-3.8481,-3.8388,-3.8834,-3.9528,-4.0578,-4.1659,-4.2772,-4.3795,-4.4949,-4.6039,-4.6767,-4.7307,-4.7653,-4.7797,-4.7431,-4.663,-4.5074,-4.2613,-3.9966,-3.7085,-3.5382,-3.401,-3.2993,-3.3033,-3.3129,-3.3049,-3.3302,-3.3257,-3.2763,-3.2231,-3.156,-3.0638,-2.9602,-2.8764,-2.8323,-2.8352,-2.8661,-2.9282,-3.1049,-3.2862,-3.4858,-3.7344,-3.9685,-4.2104,-4.2991,-4.3649,-4.3939,-4.4819,-4.5641,-4.5858,-4.6211,-4.6482,-4.6482,-4.6297,-4.6139,-4.6007,-4.5848,-4.5715,-4.5736,-4.568,-4.5757,-4.5849,-4.5532,-4.5187,-4.5022,-4.4684,0.0,0.0,0.0,0.0,-4.503,-4.4527,-4.4556,-4.5257,-4.5646,-4.5637,-4.5007,-4.5559,-4.5809,-4.5551,-4.5483,-4.5438,-4.5438,-4.5438,-4.5438,-4.5461,-4.5943,-4.6031,-4.5796,-4.6239,-4.6244,-4.6006,-4.5706,-4.5567,-4.5501,-4.5034,-4.4817,-4.4735,-4.4088,-4.3825,-4.3736,-4.3188,-4.2665,-4.224,-4.1564,-4.1237,-4.0933,-4.0453,-3.9994,-3.9557,-3.9187,-3.8744,-3.8358,-3.8232,-3.8492,-3.9007,-3.9748,-4.0857,-4.1976,-4.2885,-4.4227,-4.5435,-4.6158,-4.6822,-4.7424,-4.7833,-4.7707,-4.7032,-4.5595,-4.3388,-4.0884,-3.8266,-3.7005,-3.597,-3.4941,-3.4939,-3.5023,-3.4858,-3.5264,-3.525,-3.4694,-3.4219,-3.3528,-3.2587,-3.1489,-3.0687,-3.0119,-3.025,-3.064,-3.1278,-3.3037,-3.4843,-3.6783,-3.9312,-4.1591,-4.3742,-4.4166,-4.4546,-4.5696,-4.582,-4.5777,-4.6347,-4.6482,-4.6455,-4.6428,-4.6428,-4.6348,0.0,0.0,-4.5767,-4.5288,-4.5181,-4.51,-4.4776,-4.4722,-4.4748,0.0,0.0,0.0,0.0,0.0,0.0,-4.5164,0.0,-4.4581,-4.5257,-4.605,-4.6102,-4.5419,-4.6087,-4.6204,-4.589,-4.5551,-4.5438,-4.5438,-4.5438,-4.5438,-4.5393,-4.6031,-4.6275,-4.6272,-4.6446,-4.6574,-4.65,-4.5691,-4.5347,-4.5303,-4.4823,-4.4557,-4.4445,-4.4423,-4.4013,-4.3466,-4.2906,-4.295,-4.3014,-4.1904,-4.1529,-4.1353,-4.0585,-4.0038,-3.9644,-3.9558,-3.8881,-3.8244,-3.8468,-3.8238,-3.8236,-3.9288,-4.0213,-4.1023,-4.1878,-4.3198,-4.4405,-4.502,-4.5827,-4.6704,-4.7641,-4.7661,-4.7298,-4.6607,-4.5595,-4.382,-4.0759,-3.8979,-3.7694,-3.6966,-3.6689,-3.6517,-3.6395,-3.6876,-3.6967,-3.6405,-3.5966,-3.5315,-3.4553,-3.3106,-3.2135,-3.1778,-3.1643,-3.2015,-3.29,-3.4576,-3.66,-3.8969,-4.1111,-4.3306,-4.4458,-4.4948,-4.5211,-4.5856,-4.6119,-4.6292,-4.6428,-4.6482,-4.6347,-4.5912,-4.5804,-4.5668,0.0,0.0,0.0,-4.5151,-4.4943,0.0,-4.5073,-4.483,0.0,0.0,0.0,-4.5558,-4.6003,-4.5879,0.0,0.0,-4.5657,-4.5429,-4.5281,-4.6238,-4.6357,-4.5419,-4.6087,-4.6204,-4.589,-4.5551,-4.5438,-4.5438,-4.5438,-4.5438,-4.537,-4.5689,-4.5816,-4.5823,-4.6017,-4.6139,-4.6151,-4.5871,-4.5828,-4.5784,-4.5303,-4.5136,-4.5055,-4.4683,-4.4392,-4.4121,-4.3709,-4.3076,-4.2416,-4.2104,-4.1617,-4.1111,-4.0847,-4.0476,-4.0017,-3.9325,-3.8979,-3.8656,-3.8121,-3.8326,-3.8613,-3.8931,-3.9993,-4.1086,-4.1598,-4.2451,-4.3467,-4.4555,-4.5798,-4.6884,-4.7651,-4.7857,-4.7828,-4.763,-4.6874,-4.5388,-4.2626,-4.1083,-3.9981,-3.9171,-3.8961,-3.8936,-3.9021,-3.907,-3.912,-3.91,-3.8299,-3.7366,-3.6276,-3.5543,-3.47,-3.3793,-3.4163,-3.4702,-3.5301,-3.7044,-3.8811,-4.0659,-4.2521,-4.4422,-4.5016,-4.5364,-4.5558,-4.6213,-4.6447,-4.6401,-4.6157,-4.6102,-4.5912,-4.5316,-4.5207,0.0,0.0,0.0,0.0,0.0,0.0,0.0,-4.5154,-4.491,-4.4903,0.0,-4.5581,0.0,-4.6421,-4.6538,-4.6513,0.0,-4.6119,-4.5698,-4.5306,-4.6055,-4.6241,-4.5653,-4.6072,-4.6194,-4.589,-4.5551,-4.5438,-4.5438,-4.5438,-4.5438,-4.537,-4.5483,-4.5498,-4.5367,0.0,-4.5845,-4.5718,-4.5915,-4.6002,-4.598,-4.5718,-4.55,-4.5281,-4.5019,-4.4748,-4.4453,-4.3998,-4.3477,-4.2848,-4.243,-4.1987,-4.159,-4.1371,-4.0912,-4.0279,-3.9801,-3.9217,-3.8659,-3.821,-3.8231,-3.8397,-3.8586,-3.9503,-4.049,-4.0869,-4.1719,-4.2708,-4.392,-4.5214,-4.6207,-4.6641,-4.7386,-4.7857,-4.7685,-4.7485,-4.6822,-4.5381,-4.3354,-4.1815,-4.1217,-4.0826,-4.062,-4.068,-4.091,-4.0885,-4.0509,-3.9896,-3.8989,-3.7712,-3.7156,-3.6376,-3.5268,-3.5825,-3.6264,-3.6634,-3.8319,-3.9905,-4.1442,-4.3245,-4.4869,-4.5435,-4.5585,-4.5641,-4.6624,-4.661,-4.6211,-4.5695,-4.5533,-4.5316,-4.4691,0.0,-4.4556,-4.4474,0.0,-4.4536,-4.4875,0.0,-4.4757,-4.5102,-4.4912,-4.4983,-4.5663,-4.5741,-4.6003,-4.663,-4.7153,-4.7152,-4.6572,-4.6221,-4.5833,-4.5306,-4.5785,-4.6036,-4.5942,-4.6144,-4.6182,-4.5957,-4.5686,-4.5483,-4.5506,-4.5506,-4.5415,-4.537,-4.5392,-4.5294,-4.5057,0.0,0.0,-4.542,-4.574,-4.5937,-4.6002,-4.6002,-4.5762,-4.5412,-4.5412,-4.5107,-4.4626,-4.4211,-4.3971,-4.3779,-4.2813,-4.2464,-4.2333,-4.1918,-4.119,-4.0533,-4.0468,-3.9535,-3.8613,-3.8484,-3.8187,-3.8018,-3.8252,-3.8936,-3.956,-4.003,-4.1002,-4.2111,-4.3211,-4.4246,-4.5071,-4.5357,-4.6569,-4.7513,-4.7255,-4.758,-4.7873,-4.7873,-4.5418,-4.3545,-4.3169,-4.2503,-4.2046,-4.1923,-4.245,-4.2394,-4.1436,-4.1139,-4.0337,-3.8897,-3.8332,-3.7542,-3.6477,-3.7038,-3.7316,-3.7399,-3.9047,-4.0491,-4.169,-4.3388,-4.4759,-4.5546,-4.5585,-4.5641,-4.6624,-4.631,-4.5723,-4.5614,-4.5207,0.0,0.0,0.0,-4.3769,-4.328,-4.3199,0.0,-4.3936,0.0,0.0,0.0,0.0,-4.5413,0.0,0.0,0.0,0.0,0.0,0.0,0.0,0.0,0.0,-4.5392,-4.5785,-4.6081,-4.6168,-4.6627,-4.667,-4.6338,-4.6294,-4.6092,-4.5822,-4.5822,-4.5686,-4.537,-4.5097,-4.5094,-4.5362,0.0,0.0,-4.5764,-4.5537,-4.5653,-4.6002,-4.6002,-4.5959,-4.5893,-4.5893,-4.5587,-4.5172,-4.5085,-4.4539,-4.3845,-4.3228,-4.2769,-4.2398,-4.2311,-4.1689,-4.0875,-4.0174,-3.9672,-3.9126,-3.8416,-3.8381,-3.8582,-3.8648,-3.8953,-3.941,-4.0148,-4.1055,-4.1956,-4.2408,-4.3287,-4.4189,-4.5047,-4.5821,-4.6543,-4.7329,-4.7213,-4.716,-4.7478,-4.6327,-4.5412,-4.5348,-4.4484,-4.3941,-4.4216,-4.3929,-4.3675,-4.3482,-4.2705,-4.1523,-4.0094,-3.952,-3.8834,-3.7983,-3.8442,-3.8792,-3.8863,-4.03,-4.131,-4.1963,-4.3156,-4.4387,-4.4712,-4.4848,-4.4919,-4.5571,-4.5445,-4.5044,-4.4719,0.0,0.0,0.0,0.0,-4.2385,-4.2439,0.0,0.0,0.0,0.0,0.0,0.0,0.0,0.0,0.0,0.0,0.0,0.0,0.0,0.0,0.0,0.0,0.0,-4.5392,-4.5744,-4.6021,-4.6036,-4.6693,-4.6898,-4.6697,-4.6473,-4.6338,-4.6136,-4.6136,-4.5957,-4.5619,-4.5483,-4.5279,-4.5094,-4.5017,0.0,-4.518,-4.5471,-4.5603,-4.5675,-4.5915,-4.6002,-4.6002,-4.6002,-4.5871,-4.5609,-4.5107,-4.4626,-4.4124,-4.3403,-4.301,-4.2813,-4.2813,-4.2051,-4.1118,-4.0699,-3.9888,-3.8995,-3.8585,-3.8491,-3.8503,-3.8681,-3.8946,-3.9276,-3.967,-4.0388,-4.11,-4.1229,-4.1987,-4.2852,-4.3552,-4.4547,-4.5477,-4.6197,-4.6819,-4.7244,-4.7432,-4.6934,-4.6385,-4.6071,-4.5278,-4.4878,-4.5061,-4.4817,-4.4487,-4.4014,-4.3527,-4.2458,-4.0728,-4.0586,-3.9975,-3.8663,-3.9377,-3.9729,-3.9637,-4.0759,-4.1569,-4.2092,-4.2836,-4.3586,-4.3822,-4.4108,-4.4256,-4.4606,-4.461,-4.4339,-4.3715,-4.3118,0.0,0.0,-4.1435,-4.1245,-4.1734,0.0,0.0,0.0,0.0,0.0,0.0,0.0,0.0,0.0,0.0,0.0,0.0,0.0,0.0,0.0,0.0,0.0,0.0,-4.5673,-4.5934,-4.5934,-4.6705,-4.7098,-4.7098,-4.6831,-4.663,-4.654,-4.654,-4.6362,-4.6025,-4.5957,-4.5619,-4.5028,-4.5278,0.0,0.0,-4.534,-4.5427,-4.5267,-4.5675,-4.5849,-4.5849,-4.5849,-4.5849,-4.574,-4.4888,-4.4517,-4.432,-4.3556,-4.325,-4.3184,-4.3184,-4.2392,-4.1422,-4.1337,-4.0234,-3.9055,-3.8951,-3.875,-3.8507,-3.8649,-3.8898,-3.9078,-3.9078,-3.9604,-4.0084,-4.0149,-4.0906,-4.1614,-4.2038,-4.3188,-4.4231,-4.4697,-4.5939,-4.6835,-4.6897,-4.6774,-4.6525,-4.597,-4.5638,-4.5392,-4.5392,-4.5331,-4.4951,-4.4123,-4.3941,-4.3144,-4.1435,-4.1377,-4.0822,-3.9684,-4.0368,-4.0675,-4.0446,-4.1241,-4.1802,-4.2006,-4.2415,-4.2663,-4.3273,-4.3779,-4.4256,-4.4606,-4.4284,-4.3687,-4.309,0.0,0.0,0.0,-4.1164,-4.1137,-4.1191,-4.1652,0.0,0.0,0.0,-4.4567,0.0,0.0,0.0,0.0,0.0,0.0,0.0,0.0,0.0,0.0,0.0,0.0,0.0,-4.5673,-4.5934,-4.5934,-4.6879,-4.7431,-4.7431,-4.7431,-4.7232,-4.6965,-4.6965,-4.6764,-4.6338,-4.6025,-4.589,-4.5754,0.0,0.0,0.0,-4.475,-4.4754,-4.5102,-4.534,-4.5369,-4.5369,-4.5369,-4.5369,-4.5303,-4.4779,-4.4298,-4.3976,-4.3818,-4.3512,-4.3184,-4.3184,-4.263,-4.1848,-4.1422,-4.0675,-3.9972,-3.9578,-3.9385,-3.9309,-3.8874,-3.8796,-3.8747,-3.8747,-3.9012,-3.9407,-3.9713,-4.0127,-4.0669,-4.1293,-4.202,-4.2742,-4.3396,-4.4108,-4.4691,-4.4999,-4.5282,-4.5466,-4.5404,-4.5599,-4.5757,-4.5757,-4.5453,-4.4976,-4.4288,-4.3831,-4.3238,-4.2494,-4.1576,-4.1247,-4.1705,-4.1834,-4.1941,-4.1923,-4.2551,-4.2495,-4.1724,-4.1775,-4.1819,-4.184,-4.2419,-4.2937,-4.3009,-4.29,-4.2629,-4.2412,0.0,0.0,-4.0621,-4.0268,-4.0133,-4.0485,-4.1055,-4.1598,-4.1951,0.0,0.0,0.0,0.0,0.0,0.0,0.0,0.0,0.0,0.0,0.0,0.0,0.0,0.0,0.0,-4.5673,-4.5934,-4.5934,-4.6944,-4.7497,-4.7497,-4.7497,-4.7431,-4.7298,-4.7298,-4.7098,-4.6764,-4.663,-4.6294,-4.589,0.0,0.0,0.0,-4.4878,-4.4701,-4.4688,-4.4836,-4.4888,-4.4888,-4.4888,-4.4888,-4.4801,-4.432,-4.4036,-4.3889,-4.3534,-4.3337,-4.3184,-4.3184,-4.2673,-4.1975,-4.1784,-4.0969,-4.0158,-3.9992,-3.9674,-3.9426,-3.9241,-3.8984,-3.8766,-3.8766,-3.8804,-3.8946,-3.9057,-3.9407,-3.9908,-4.0629,-4.1328,-4.1978,-4.2431,-4.3432,-4.4096,-4.3912,-4.4385,-4.4693,-4.4693,-4.5184,-4.5453,-4.5245,-4.4878,-4.4508,-4.4051,-4.3612,-4.3127,-4.2597,-4.2516,-4.2353,-4.199,-4.2733,-4.2962,-4.2635,-4.2856,-4.2672,-4.1981,-4.1465,-4.1081,-4.0675,-4.1272,-4.1734,-4.1734,-4.1734,-4.1707,0.0,0.0,0.0,-3.997,-3.959,-3.9427,-3.9861,-4.0431,-4.1028,-4.1652,0.0,-4.3796,0.0,0.0,0.0,0.0,0.0,0.0,0.0,0.0,0.0,0.0,0.0,0.0,0.0,0.0,-4.5934,-4.5934,-4.6944,-4.7497,-4.7497,-4.7497,-4.7431,-4.7364,-4.7364,-4.7232,-4.6965,-4.6764,-4.6429,0.0,0.0,0.0,0.0,-4.4909,-4.4718,-4.4343,-4.4475,-4.4458,-4.4364,-4.4364,-4.4364,-4.4298,-4.3818,-4.3665,-4.3599,-4.3272,-4.3184,-4.3184,-4.3023,-4.2511,-4.2018,-4.2018,-4.12,-4.0406,-4.0406,-4.0075,-3.9674,-3.9674,-3.922,-3.8786,-3.8786,-3.8682,-3.8549,-3.8549,-3.894,-3.9462,-3.9982,-4.0821,-4.1463,-4.1639,-4.2639,-4.3293,-4.2869,-4.3365,-4.374,-4.374,-4.4113,-4.4446,-4.4484,-4.4113,-4.374,-4.349,-4.3177,-4.2974,-4.2809,-4.3174,-4.3168,-4.2743,-4.3507,-4.3784,-4.3518,-4.3322,-4.2923,-4.2307,-4.1349,-4.0507,-4.0051,-4.0648,-4.1137,-4.1137,-4.1137,-4.0974,0.0,0.0,0.0,-3.9427,-3.9292,-3.9292,-3.9319,-3.978,-4.0404,-4.1028,-4.2114,0.0,0.0,0.0,0.0,0.0,0.0,0.0,0.0,0.0,0.0,0.0,0.0,0.0,0.0,0.0,-4.5934,-4.5934,-4.6944,-4.7497,-4.7497,-4.7497,-4.7298,-4.6989,-4.6989,-4.6965,-4.6989,-4.6227,0.0,0.0,0.0,0.0,0.0,-4.4937,-4.4594,-4.4318,-4.4413,-4.4238,-4.3933,-4.3933,-4.3933,-4.3796,-4.3337,-4.3184,-4.3184,-4.3184,-4.3184,-4.3115,-4.2721,-4.23,-4.2018,-4.2018,-4.1431,-4.0862,-4.0862,-4.0551,-4.022,-4.022,-3.9447,-3.8786,-3.8786,-3.8502,-3.8191,-3.8191,-3.8879,-3.9374,-3.9374,-4.0362,-4.1053,-4.0911,-4.1551,-4.1961,-4.1851,-4.2102,-4.2356,-4.2356,-4.2356,-4.2736,-4.374,-4.32,-4.2822,-4.2822,-4.2483,-4.261,-4.324,-4.3118,-4.3468,-4.4435,-4.4285,-4.4356,-4.4663,-4.4156,-4.3402,-4.2598,-4.1393,-4.0301,-3.883,-3.9427,-3.997,-4.0377,-4.0485,-4.0431,-4.0241,0.0,0.0,0.0,-3.9292,-3.9292,-3.9292,-3.978,-4.0404,-4.1028,-4.1788,0.0,0.0,0.0,0.0,0.0,0.0,0.0,0.0,0.0,0.0,0.0,0.0,0.0,0.0,0.0,-4.6463,-4.6463,-4.7136,-4.7364,-4.7165,-4.7165,-4.6965,-4.663,-4.663,-4.663,-4.6563,-4.6362,0.0,0.0,0.0,0.0,0.0,-4.4937,-4.4594,-4.4273,-4.4013,-4.3731,-4.3403,-4.3403,-4.3403,-4.3381,-4.3228,-4.3184,-4.3184,-4.3184,-4.3023,-4.2791,-4.2651,-4.23,-4.1877,-4.1381,-4.1096,-4.0882,-4.0882,-4.0551,-4.022,-4.022,-3.9447,-3.8786,-3.8786,-3.8502,-3.8191,-3.8191,-3.8611,-3.9072,-3.9405,-4.0234,-4.0726,-4.0397,-4.119,-4.1573,-4.0887,-4.1293,-4.1614,-4.1614,-4.1614,-4.187,-4.2356,-4.2252,-4.1998,-4.1806,-4.1678,-4.1934,-4.261,-4.2974,-4.3521,-4.4183,-4.4394,-4.4453,-4.4438,-4.3853,-4.2705,-4.1121,-3.9981,-3.9077,0.0,-3.8342,-3.8776,-3.9373,-3.9346,0.0,0.0,0.0,0.0,0.0,0.0,0.0,-3.9264,-3.978,-4.0404,-4.1028,0.0,0.0,0.0,0.0,0.0,0.0,0.0,0.0,0.0,0.0,0.0,0.0,0.0,0.0,0.0,0.0,-4.68,-4.7016,-4.7197,-4.7232,-4.6965,-4.6831,-4.6563,-4.6204,-4.6204,-4.6204,-4.6204,0.0,0.0,0.0,0.0,0.0,0.0,-4.4937,-4.4594,-4.4273,-4.3858,-4.3511,-4.3184,-4.3184,-4.3184,-4.3184,-4.3184,-4.3184,-4.3184,-4.3023,-4.2581,-4.2159,-4.2159,-4.2018,-4.1664,-4.1096,-4.0882,-4.0841,-4.0675,-4.0427,-4.0179,-4.0013,-3.9323,-3.8786,-3.8786,-3.8502,-3.8191,-3.8191,-3.8688,-3.9137,-3.9426,-4.0264,-4.0682,-4.0171,-4.0682,-4.0813,-3.9996,-4.0257,-4.0517,-4.0517,-4.0517,-4.0582,-4.0819,-4.11,-4.11,-4.0906,-4.0906,-4.1229,-4.1911,-4.2696,-4.3349,-4.3903,-4.4112,-4.4269,-4.4402,-4.3507,-4.2052,-4.0166,-3.9334,-3.8479,0.0,-3.7446,0.0,0.0,0.0,0.0,0.0,0.0,0.0,0.0,0.0,0.0,0.0,0.0,0.0,0.0,0.0,0.0,0.0,0.0,0.0,0.0,0.0,0.0,0.0,0.0,0.0,0.0,0.0,0.0,0.0,0.0,0.0,-4.7431,-4.7098,-4.6965,-4.6965,-4.654,-4.6204,-4.589,-4.589,-4.589,-4.5822,0.0,0.0,0.0,0.0,0.0,0.0,-4.4937,-4.4594,-4.4273,-4.3858,-4.3511,-4.3184,-4.3184,-4.3184,-4.3184,-4.3184,-4.3184,-4.3093,-4.2651,-4.2018,-4.1473,-4.1473,-4.1473,-4.1402,-4.1025,-4.0862,-4.0737,-4.0323,-4.0179,-4.0013,-3.953,-3.9075,-3.8724,-3.8724,-3.8481,-3.8191,-3.8191,-3.8895,-3.9426,-3.9426,-4.0199,-4.063,-4.0103,-4.0025,-3.9846,-3.9271,-3.921,-3.921,-3.921,-3.921,-3.921,-3.9144,-3.9822,-4.0214,-4.0127,-4.0192,-4.0539,-4.1187,-4.2125,-4.2988,-4.363,-4.3578,-4.3786,-4.4377,-4.3067,-4.1464,-3.9664,-3.9276,-3.8375,-3.6374,0.0,-3.6958,-3.754,-3.7594,-3.7648,0.0,0.0,0.0,0.0,0.0,0.0,0.0,0.0,0.0,0.0,0.0,0.0,0.0,0.0,0.0,0.0,0.0,0.0,0.0,0.0,0.0,0.0,0.0,0.0,0.0,0.0,0.0,-4.7098,-4.6764,-4.6563,-4.6563,-4.6227,-4.5822,-4.5483,-4.5483,-4.5483,-4.5483,0.0,0.0,0.0,0.0,0.0,-4.5347,-4.4937,-4.4594,-4.4273,-4.3858,-4.3511,-4.3184,-4.3184,-4.3184,-4.3184,-4.2883,-4.2721,-4.2651,-4.1969,-4.1615,-4.1402,-4.1096,-4.1025,-4.1025,-4.0954,-4.0634,-4.0365,-4.0261,-3.9702,-3.9075,-3.8972,-3.8667,-3.8336,-3.8336,-3.8253,-3.8191,-3.8191,-3.8626,-3.8951,-3.8951,-3.9475,-3.9661,-3.917,-3.9338,-3.9399,-3.8877,-3.9012,-3.921,-3.921,-3.921,-3.9078,-3.8814,-3.921,-3.9473,-3.9407,-3.9473,-3.967,-4.004,-4.0819,-4.1474,-4.2031,-4.246,-4.2559,-4.2315,-4.1752,-4.1063,-4.0186,-3.877,-3.7729,-3.6126,-3.6143,-3.6334,-3.6958,-3.7094,-3.7256,-3.7838,0.0,0.0,0.0,0.0,0.0,0.0,0.0,0.0,0.0,0.0,0.0,0.0,0.0,0.0,0.0,0.0,0.0,0.0,0.0,0.0,0.0,0.0,0.0,0.0,0.0,0.0,0.0,-4.663,-4.6338,-4.6136,-4.5822,-4.5551,-4.5438,-4.5438,-4.5438,-4.5438,-4.5438,0.0,0.0,0.0,0.0,-4.5074,-4.4732,-4.4319,-4.3997,-4.365,-4.3372,-4.3184,-4.3023,-4.2953,-4.2883,-4.2441,-4.2229,-4.2018,-4.1615,-4.1402,-4.1167,-4.0954,-4.0882,-4.0882,-4.0882,-4.0717,-4.0427,-4.0013,-3.9468,-3.8993,-3.8647,-3.8357,-3.8191,-3.8191,-3.8191,-3.8191,-3.8191,-3.8543,-3.8786,-3.8786,-3.9158,-3.9323,-3.8848,-3.8989,-3.8958,-3.8566,-3.8636,-3.8769,-3.8769,-3.8769,-3.8702,-3.8503,-3.8636,-3.8636,-3.8482,-3.8636,-3.8835,-3.9012,-3.967,-4.023,-4.0717,-4.1398,-4.1444,-4.0803,-4.0745,-4.031,-3.9504,-3.8056,-3.7065,-3.6206,-3.5938,-3.5845,-3.6442,-3.6605,-3.6795,-3.7458,0.0,0.0,0.0,0.0,0.0,0.0,0.0,0.0,0.0,0.0,0.0,0.0,0.0,0.0,0.0,0.0,0.0,0.0,0.0,0.0,0.0,0.0,0.0,0.0,0.0,0.0,0.0,-4.6563,-4.6136,-4.5822,-4.5551,-4.5438,-4.5438,-4.5438,-4.5438,-4.5438,-4.5438,0.0,0.0,0.0,0.0,-4.48,-4.4388,-4.3997,-4.365,-4.3302,-4.3184,-4.3163,-4.2721,-4.2581,-4.2581,-4.2089,-4.1664,-4.1402,-4.1402,-4.1167,-4.0882,-4.0882,-4.0882,-4.0882,-4.0882,-4.082,-4.0593,-3.9765,-3.9426,-3.9226,-3.8378,-3.8191,-3.8191,-3.8191,-3.8191,-3.8191,-3.8191,-3.8481,-3.8683,-3.8683,-3.9081,-3.9206,-3.8745,-3.8683,-3.8605,-3.8233,-3.8196,-3.8154,-3.8154,-3.8092,-3.8051,-3.8051,-3.8051,-3.7831,-3.7412,-3.7822,-3.8083,-3.8088,-3.8579,-3.9045,-3.9477,-4.0181,-4.0233,-3.9579,-3.9814,-3.9406,-3.8422,-3.7219,-3.6289,-3.6365,-3.6018,-3.5845,-3.6442,-3.6605,-3.6904,-3.8016,0.0,0.0,0.0,0.0,0.0,0.0,0.0,0.0,0.0,0.0,0.0,0.0,0.0,0.0,0.0,0.0,0.0,0.0,0.0,0.0,0.0,0.0,0.0,0.0,0.0,0.0,0.0,0.0,-4.5822,-4.5483,-4.5438,-4.5438,-4.5438,-4.5438,-4.5438,-4.5438,-4.5438,-4.5438,0.0,0.0,-4.4869,-4.4732,-4.4043,-4.3767,-4.365,-4.3302,-4.3184,-4.3163,-4.2721,-4.2581,-4.2511,-4.1827,-4.1331,-4.1025,-4.1025,-4.0954,-4.0882,-4.0882,-4.0882,-4.0882,-4.0882,-4.0613,-4.0199,-3.9612,-3.9179,-3.8833,-3.8316,-3.8191,-3.8191,-3.8191,-3.8191,-3.8191,-3.8191,-3.8233,-3.8295,-3.8295,-3.8336,-3.8378,-3.8295,-3.8295,-3.8253,-3.8191,-3.8103,-3.807,-3.807,-3.7649,-3.7463,-3.7463,-3.7205,-3.6882,-3.6558,-3.7274,-3.7652,-3.7612,-3.7543,-3.7636,-3.7895,-3.843,-3.8679,-3.8551,-3.8551,-3.8506,-3.8275,-3.6524,-3.5678,-3.6405,-3.6305,-3.6334,-3.6958,-3.7094,-3.7338,-3.8206,-3.8667,0.0,0.0,0.0,0.0,0.0,0.0,0.0,0.0,0.0,0.0,0.0,0.0,0.0,0.0,0.0,0.0,0.0,0.0,0.0,0.0,0.0,0.0,0.0,0.0,0.0,0.0,0.0,0.0,-4.5438,-4.5438,-4.5438,-4.5438,-4.5438,-4.5209,-4.4956,-4.4956,-4.4956,-4.4956,0.0,-4.4437,-4.4457,-4.3905,-4.358,-4.3441,-4.3254,-4.3093,-4.2813,-4.2229,-4.1877,-4.1664,-4.131,-4.1025,-4.0882,-4.0882,-4.0882,-4.0882,-4.0882,-4.0882,-4.0882,-4.0882,-4.0737,-4.0468,-4.0034,-3.9509,-3.9034,-3.8647,-3.8357,-3.8191,-3.8191,-3.8191,-3.8191,-3.8191,-3.8191,-3.8191,-3.8191,-3.8191,-3.8191,-3.8191,-3.837,-3.842,-3.8103,-3.8201,-3.8164,-3.7932,-3.772,-3.7593,-3.7593,-3.7253,-3.6869,-3.6354,-3.6546,-3.6603,-3.6595,-3.6403,-3.6518,-3.6791,-3.7105,-3.7352,-3.7533,-3.7533,-3.7341,-3.6877,-3.5435,-3.4517,-3.6571,-3.6606,-3.6768,-3.7512,-3.7702,-3.7865,-3.8477,-3.9074,0.0,0.0,0.0,0.0,0.0,0.0,0.0,0.0,0.0,0.0,0.0,0.0,0.0,0.0,0.0,0.0,0.0,0.0,0.0,0.0,0.0,0.0,0.0,0.0,0.0,0.0,0.0,0.0,-4.5438,-4.53,-4.5186,-4.5186,-4.5186,-4.491,-4.4428,-4.4428,-4.4428,-4.4428,-4.396,-4.3917,-4.4094,-4.3611,-4.3331,-4.3184,-4.3184,-4.2883,-4.237,-4.1827,-4.131,-4.0882,-4.0882,-4.0882,-4.0882,-4.0882,-4.0882,-4.0882,-4.0882,-4.0882,-4.0882,-4.0882,-4.0882,-4.0779,-4.0344,-3.9902,-3.9488,-3.891,-3.8585,-3.8316,-3.8212,-3.8191,-3.8191,-3.8191,-3.8191,-3.8191,-3.8191,-3.8191,-3.8258,-3.8304,-3.8549,-3.8579,-3.8138,-3.8293,-3.8295,-3.7784,-3.7635,-3.7571,-3.7508,-3.7192,-3.6748,-3.6218,-3.6038,-3.584,-3.561,-3.5524,-3.5554,-3.5704,-3.5955,-3.6197,-3.6441,-3.6441,-3.6085,-3.5459,-3.4339,-3.3528,-3.7068,-3.6907,-3.6877,-3.807,-3.8369,-3.8505,-3.9102,-3.9699,0.0,-4.0187,0.0,0.0,0.0,0.0,0.0,0.0,0.0,0.0,0.0,0.0,0.0,0.0,0.0,0.0,0.0,0.0,0.0,0.0,0.0,0.0,0.0,0.0,0.0,0.0,0.0,0.0,-4.5438,-4.4887,-4.4658,-4.4658,-4.4658,-4.4382,-4.3854,-4.3854,-4.3854,-4.3811,-4.3172,-4.313,-4.351,-4.2828,-4.2748,-4.3184,-4.3184,-4.2743,-4.2018,-4.2018,-4.1523,-4.0882,-4.0882,-4.0882,-4.0882,-4.0882,-4.0882,-4.0882,-4.0882,-4.0882,-4.0882,-4.0882,-4.0882,-4.0779,-4.0344,-4.0199,-3.9951,-3.8993,-3.8765,-3.8621,-3.8274,-3.8191,-3.8191,-3.8191,-3.8191,-3.8191,-3.8191,-3.8191,-3.8304,-3.8615,-3.8681,-3.8645,-3.8507,-3.838,-3.812,-3.7668,-3.7237,-3.6835,-3.6529,-3.6201,-3.5954,-3.5954,-3.6138,-3.5892,-3.5167,-3.5171,-3.4969,-3.4546,-3.4818,-3.5046,-3.5046,-3.5046,-3.4821,-3.437,-3.3558,-3.2934,-3.6961,-3.7084,-3.735,-3.8206,-3.8834,0.0,0.0,-3.9934,-4.0358,-4.095,-4.1585,0.0,0.0,0.0,0.0,0.0,0.0,0.0,0.0,0.0,0.0,0.0,0.0,0.0,0.0,0.0,0.0,0.0,0.0,0.0,0.0,0.0,0.0,0.0,0.0,0.0,0.0,-4.4864,-4.4428,-4.4107,-4.4107,-4.3854,-4.3349,-4.3349,-4.3349,-4.3307,-4.2587,-4.2794,-4.3466,-4.2694,-4.2726,-4.3184,-4.2953,-4.2651,-4.237,-4.2089,-4.1664,-4.1259,-4.1259,-4.1096,-4.0882,-4.0882,-4.0882,-4.0882,-4.0882,-4.0882,-4.0954,-4.1188,-4.1096,-4.0841,-4.0675,-4.0427,-4.0075,-3.9364,-3.8993,-3.8662,-3.8274,-3.8191,-3.8191,-3.8191,-3.8191,-3.8191,-3.8191,-3.837,-3.8549,-3.8681,-3.9078,-3.9171,-3.883,-3.8678,-3.8453,-3.7975,-3.7497,-3.7093,-3.6728,-3.6606,-3.6361,-3.5932,-3.5624,-3.5287,-3.4999,-3.481,-3.4584,-3.4423,-3.4548,-3.461,-3.461,-3.4347,-3.3922,-3.3296,-3.2675,-3.2176,-3.703,-3.7328,-3.7675,-3.839,0.0,0.0,-3.9833,-4.0206,-4.0695,-4.1313,-4.1893,0.0,0.0,0.0,0.0,0.0,0.0,0.0,0.0,0.0,0.0,0.0,0.0,0.0,0.0,0.0,0.0,0.0,0.0,0.0,0.0,0.0,0.0,0.0,0.0,0.0,0.0,-4.4681,-4.4176,-4.3808,-4.3487,-4.3165,-4.2844,-4.2844,-4.2844,-4.278,-4.2068,-4.2235,-4.3018,-4.2408,-4.2573,-4.3184,-4.2883,-4.2721,-4.2581,-4.23,-4.1947,-4.1686,-4.1686,-4.1402,-4.1096,-4.1096,-4.1025,-4.0882,-4.0882,-4.0882,-4.0954,-4.1402,-4.1331,-4.1096,-4.1096,-4.0726,-4.0323,-3.9798,-3.9323,-3.8869,-3.8502,-3.8274,-3.8191,-3.8191,-3.8191,-3.8237,-3.8304,-3.8549,-3.8747,-3.8946,-3.9428,-3.9584,-3.9217,-3.9126,-3.8816,-3.8182,-3.768,-3.7314,-3.7093,-3.6972,-3.6667,-3.6116,-3.5541,-3.5108,-3.4922,-3.4673,-3.4485,-3.4423,-3.4423,-3.4423,-3.4423,-3.398,-3.3497,-3.2814,-3.2356,-3.1858,-3.751,-3.7627,-3.7741,0.0,0.0,0.0,-3.9891,-4.0569,-4.1213,-4.1213,0.0,0.0,0.0,0.0,0.0,0.0,0.0,0.0,0.0,0.0,0.0,0.0,0.0,0.0,0.0,0.0,0.0,0.0,0.0,0.0,0.0,0.0,0.0,0.0,0.0,0.0,0.0,-4.4336,-4.3808,-4.3808,-4.2821,-4.2275,-4.2275,-4.2275,-4.2275,-4.2275,-4.1572,-4.1584,-4.1968,-4.1771,-4.2267,-4.3163,-4.3184,-4.2953,-4.2651,-4.2651,-4.237,-4.2018,-4.2018,-4.1806,-4.1473,-4.1473,-4.1239,-4.0882,-4.0882,-4.0882,-4.0954,-4.1402,-4.1473,-4.1473,-4.1473,-4.1188,-4.0758,-4.0323,-3.9798,-3.9344,-3.8889,-3.8502,-3.8191,-3.8191,-3.8191,-3.8304,-3.8615,-3.8681,-3.8946,-3.9625,-3.9691,-3.9715,-3.9602,-3.9622,-3.925,-3.8204,-3.768,-3.7374,-3.7374,-3.7093,-3.6728,-3.6423,-3.6116,-3.5603,-3.4922,-3.4922,-3.4735,-3.4423,-3.4423,-3.4423,-3.4423,-3.398,-3.3538,-3.3095,-3.2653,-3.221,-3.7328,-3.757,0.0,0.0,0.0,0.0,0.0,-4.0569,0.0,0.0,0.0,0.0,0.0,0.0,0.0,0.0,0.0,0.0,0.0,0.0,0.0,0.0,0.0,0.0,0.0,0.0,0.0,0.0,0.0,0.0,0.0,0.0,0.0,0.0,0.0,0.0,-4.5438,-4.4704,-4.4359,-4.4359,-4.3349,-4.2683,-4.2275,-4.2275,-4.2148,-4.1934,-4.1508,-4.1455,-4.1705,-4.2077,-4.2376,-4.2682,-4.3032,-4.3115,-4.3023,-4.3023,-4.2791,-4.2441,-4.2441,-4.2159,-4.1806,-4.1544,-4.1402,-4.1259,-4.0954,-4.0882,-4.0954,-4.1402,-4.1473,-4.1473,-4.1473,-4.1402,-4.1134,-4.0415,-3.9798,-3.9344,-3.8889,-3.8502,-3.8191,-3.8191,-3.8191,-3.8304,-3.8615,-3.888,-3.921,-3.9625,-3.9953,-3.9975,-3.9688,-3.9622,-3.925,-3.8204,-3.7986,-3.7745,-3.7396,-3.7314,-3.7032,-3.6423,-3.63,-3.5932,-3.5294,-3.5232,-3.5108,-3.4735,-3.4735,-3.461,-3.4423,-3.398,-3.3538,-3.3095,-3.2653,-3.2327,-3.7202,0.0,0.0,0.0,0.0,0.0,0.0,0.0,0.0,0.0,0.0,0.0,0.0,0.0,0.0,0.0,0.0,0.0,0.0,0.0,0.0,0.0,0.0,0.0,0.0,0.0,0.0,0.0,0.0,0.0,0.0,0.0,0.0,0.0,0.0,0.0,-4.5438,-4.4864,-4.4545,-4.4321,-4.3565,-4.286,-4.2188,-4.2111,-4.1934,-4.155,-4.1229,-4.1195,-4.1309,-4.1679,-4.207,-4.2442,-4.2748,-4.2988,-4.3184,-4.3184,-4.3023,-4.2861,-4.2861,-4.2581,-4.2229,-4.2018,-4.1756,-4.1473,-4.1167,-4.1025,-4.0954,-4.1402,-4.1473,-4.1473,-4.1473,-4.1473,-4.1339,-4.0622,-3.9992,-3.9385,-3.9117,-3.8626,-3.8191,-3.8191,-3.8191,-3.837,-3.8814,-3.9078,-3.9363,-3.9888,-4.0149,-4.017,-3.9929,-3.9732,-3.9382,-3.875,-3.851,-3.8204,-3.7702,-3.768,-3.7288,-3.6423,-3.6423,-3.6116,-3.5418,-3.5418,-3.5294,-3.5108,-3.5108,-3.4984,-3.4797,-3.4411,-3.3963,-3.3515,-3.3067,-3.2793,0.0,0.0,0.0,0.0,0.0,0.0,0.0,0.0,0.0,0.0,0.0,0.0,0.0,0.0,0.0,0.0,0.0,0.0,0.0,0.0,0.0,0.0,0.0,0.0,0.0,0.0,0.0,0.0,0.0,0.0,0.0,0.0,0.0,0.0,0.0,0.0,-4.5369,-4.4841,-4.4434,0.0,-4.3531,-4.288,-4.2101,-4.1865,-4.1595,-4.1251,-4.0906,-4.0847,-4.0956,-4.0978,-4.1503,-4.2289,-4.2376,-4.2704,-4.3119,-4.3163,-4.3184,-4.3184,-4.3184,-4.2953,-4.2651,-4.263,-4.2089,-4.1544,-4.1473,-4.1259,-4.0954,-4.1331,-4.1473,-4.1473,-4.1473,-4.1473,-4.1402,-4.1025,-4.0179,-3.9468,-3.9468,-3.8833,-3.8191,-3.8191,-3.8191,-3.837,-3.9078,-3.921,-3.9473,-4.0214,-4.0279,-4.0279,-4.0279,-3.9951,-3.9666,-3.9622,-3.9165,-3.8644,-3.8142,-3.8121,-3.7656,-3.6508,-3.6425,-3.6097,-3.5418,-3.5418,-3.5418,-3.5418,-3.5418,-3.5418,-3.5418,-3.5024,-3.4569,-3.4111,-3.3637,-3.3356,0.0,0.0,0.0,0.0,0.0,0.0,0.0,0.0,0.0,0.0,0.0,0.0,0.0,0.0,0.0,0.0,0.0,0.0,0.0,0.0,0.0,0.0,0.0,0.0,0.0,0.0,0.0,0.0,0.0,0.0,0.0,0.0,0.0,0.0,0.0,-4.4336,-4.4773,-4.4322,-4.4323,0.0,-4.3804,-4.3242,-4.277,-4.2213,-4.1544,-4.0906,-4.0517,-4.041,-4.0454,-4.0847,-4.1131,-4.1371,-4.2136,-4.2485,-4.2638,-4.3032,-4.3184,-4.3184,-4.3184,-4.3163,-4.3023,-4.2721,-4.23,-4.1806,-4.1544,-4.1259,-4.0954,-4.1025,-4.1259,-4.1402,-4.1096,-4.1259,-4.1402,-4.1025,-4.0179,-3.9468,-3.9468,-3.8833,-3.8191,-3.8191,-3.8191,-3.837,-3.9078,-3.921,-3.9473,-4.0214,-4.0279,-4.0279,-4.0279,-4.0192,-4.0038,-3.9644,-3.9513,-3.9124,-3.833,-3.8224,-3.7779,-3.6623,-3.654,-3.6185,-3.5438,-3.5418,-3.5418,-3.5418,-3.5418,-3.5418,-3.5418,-3.5314,-3.4859,-3.4132,-3.4028,-3.3668,0.0,0.0,0.0,0.0,0.0,0.0,0.0,0.0,0.0,0.0,0.0,0.0,0.0,0.0,0.0,0.0,0.0,0.0,0.0,0.0,0.0,0.0,0.0,0.0,0.0,0.0,0.0,0.0,0.0,0.0,0.0,0.0,0.0,0.0,-4.3946,-4.3946,-4.4222,-4.3822,-4.3804,-4.4165,-4.3577,-4.2924,-4.2388,-4.1794,-4.1198,-4.0517,-4.0409,-4.0279,-4.0301,-4.0541,-4.0804,-4.1066,-4.1546,-4.1874,-4.2136,-4.2638,-4.2813,-4.2857,-4.3097,-4.3184,-4.3184,-4.2953,-4.2581,-4.2229,-4.1806,-4.1452,-4.1167,-4.0954,-4.1025,-4.1167,-4.0954,-4.1025,-4.1167,-4.0954,-4.0365,-3.9736,-3.953,-3.8999,-3.844,-3.8233,-3.8191,-3.837,-3.888,-3.921,-3.956,-3.9953,-4.0018,-3.9953,-3.9801,-3.9757,-3.9649,-3.9455,-3.9433,-3.911,-3.8445,-3.8402,-3.7912,-3.6666,-3.6624,-3.6227,-3.5438,-3.5418,-3.5418,-3.5418,-3.5418,-3.5418,-3.5418,-3.5418,-3.4962,-3.4132,-3.4132,-3.383,0.0,0.0,0.0,0.0,0.0,0.0,0.0,0.0,0.0,0.0,0.0,0.0,0.0,0.0,0.0,0.0,0.0,0.0,0.0,0.0,0.0,0.0,0.0,0.0,0.0,0.0,0.0,0.0,0.0,0.0,0.0,0.0,0.0,-4.3693,-4.3602,-4.3602,-4.3693,-4.3299,-4.3173,-4.3399,-4.2992,-4.2388,-4.1568,-4.1175,-4.0738,-4.0279,-4.0279,-4.0279,-4.0279,-4.0279,-4.052,-4.0891,-4.0978,-4.124,-4.1634,-4.2114,-4.2354,-4.2485,-4.29,-4.3097,-4.3184,-4.3184,-4.2953,-4.2511,-4.2159,-4.1756,-4.1402,-4.1025,-4.0882,-4.0882,-4.0882,-4.0882,-4.0882,-4.0882,-4.0593,-4.0199,-3.9661,-3.9096,-3.8641,-3.8274,-3.8258,-3.837,-3.8747,-3.9276,-3.9691,-3.9691,-3.9691,-3.956,-3.921,-3.921,-3.921,-3.921,-3.921,-3.8995,-3.8592,-3.857,-3.7974,-3.6729,-3.6604,-3.6248,-3.5438,-3.5418,-3.5418,-3.5418,-3.5418,-3.5418,-3.5418,-3.5418,-3.4962,-3.4132,-3.4132,-3.3926,0.0,0.0,0.0,0.0,0.0,0.0,0.0,0.0,0.0,0.0,0.0,0.0,0.0,0.0,0.0,0.0,0.0,0.0,0.0,0.0,0.0,0.0,0.0,0.0,0.0,0.0,0.0,0.0,0.0,0.0,0.0,0.0,-4.3581,-4.3188,-4.2752,-4.2752,-4.3188,-4.2537,-4.2391,-4.2884,-4.2191,-4.1613,-4.1087,-4.1044,-4.0738,-4.0279,-4.0279,-4.0279,-4.0279,-4.0279,-4.0323,-4.041,-4.0847,-4.1044,-4.1153,-4.1612,-4.2049,-4.242,-4.2485,-4.2813,-4.3184,-4.3184,-4.2953,-4.2511,-4.2159,-4.1756,-4.1402,-4.1025,-4.0882,-4.0882,-4.0882,-4.0882,-4.0882,-4.0882,-4.082,-4.0572,-3.9723,-3.9096,-3.8641,-3.8274,-3.8437,-3.8747,-3.9078,-3.9428,-3.9691,-3.9691,-3.9691,-3.956,-3.921,-3.921,-3.921,-3.921,-3.921,-3.9057,-3.8729,-3.8642,-3.8133,-3.6827,-3.6765,-3.6392,-3.5459,-3.5418,-3.5418,-3.5418,-3.5418,-3.5418,-3.5418,-3.5418,-3.4962,-3.4132,-3.4132,-3.3926,0.0,0.0,0.0,0.0,0.0,0.0,0.0,0.0,0.0,0.0,0.0,0.0,0.0,0.0,0.0,0.0,0.0,0.0,0.0,0.0,0.0,0.0,0.0,0.0,0.0,0.0,0.0,0.0,0.0,0.0,0.0,-4.3898,-4.3345,-4.2683,-4.2454,-4.2367,-4.266,-4.2146,-4.1941,-4.2038,-4.1837,-4.1459,-4.1,-4.1,-4.0738,-4.0279,-4.0279,-4.0279,-4.0279,-4.0279,-4.0279,-4.0301,-4.052,-4.0607,-4.0651,-4.1131,-4.1437,-4.1699,-4.2245,-4.2573,-4.2791,-4.3097,-4.3093,-4.2813,-4.2229,-4.1877,-4.1664,-4.1096,-4.0882,-4.0882,-4.0882,-4.0882,-4.0882,-4.0882,-4.0882,-4.0696,-4.0054,-3.9488,-3.904,-3.8316,-3.8503,-3.8814,-3.9144,-3.9494,-3.9691,-3.9691,-3.9691,-3.956,-3.921,-3.9012,-3.8946,-3.8946,-3.8769,-3.857,-3.8437,-3.8437,-3.7975,-3.6867,-3.6804,-3.639,-3.5459,-3.5603,-3.5665,-3.5665,-3.5479,-3.5418,-3.5418,-3.5418,-3.4962,-3.4132,-3.4132,-3.3926,0.0,0.0,0.0,0.0,0.0,0.0,0.0,0.0,0.0,0.0,0.0,0.0,0.0,0.0,0.0,0.0,0.0,0.0,0.0,0.0,0.0,0.0,0.0,0.0,0.0,0.0,0.0,0.0,0.0,0.0,-4.3914,-4.3636,-4.3154,-4.2362,-4.2275,-4.2275,-4.2275,-4.1998,-4.1666,-4.133,-4.1419,-4.122,-4.0825,-4.0825,-4.0629,-4.0279,-4.0279,-4.0279,-4.0279,-4.0279,-4.0279,-4.0279,-4.0279,-4.0279,-4.0323,-4.0694,-4.0891,-4.1109,-4.1808,-4.2223,-4.2485,-4.2857,-4.3075,-4.3023,-4.2229,-4.2018,-4.1877,-4.1096,-4.0882,-4.0882,-4.0882,-4.0882,-4.0882,-4.0882,-4.0882,-4.0717,-4.0179,-3.9612,-3.9123,-3.847,-3.857,-3.8814,-3.921,-3.956,-3.9691,-3.9691,-3.9691,-3.956,-3.921,-3.8946,-3.8814,-3.8814,-3.8503,-3.8304,-3.8304,-3.8258,-3.7798,-3.6867,-3.6869,-3.6517,-3.5583,-3.5849,-3.6055,-3.6055,-3.5788,-3.5603,-3.5541,-3.5314,-3.4838,-3.4132,-3.4007,-3.3822,0.0,0.0,0.0,0.0,0.0,0.0,0.0,0.0,0.0,0.0,0.0,0.0,0.0,0.0,0.0,0.0,0.0,0.0,0.0,0.0,0.0,0.0,0.0,0.0,0.0,0.0,0.0,0.0,0.0,0.0,-4.3373,-4.331,-4.2972,-4.2339,-4.2275,-4.2275,-4.2275,-4.1998,-4.1486,-4.0821,-4.0843,-4.0648,-4.0323,-4.0323,-4.0301,-4.0279,-4.0279,-4.0279,-4.0279,-4.0279,-4.0279,-4.0279,-4.0279,-4.0279,-4.0279,-4.0301,-4.0607,-4.1022,-4.1066,-4.1677,-4.242,-4.2442,-4.2791,-4.3023,-4.2229,-4.2018,-4.1877,-4.1096,-4.0882,-4.0882,-4.0882,-4.0882,-4.0882,-4.0882,-4.0882,-4.0634,-3.9765,-3.9137,-3.8797,-3.872,-3.8681,-3.888,-3.956,-3.9691,-3.9691,-3.9691,-3.9691,-3.956,-3.921,-3.9144,-3.9144,-3.9144,-3.888,-3.8681,-3.8681,-3.837,-3.7798,-3.6867,-3.7125,-3.6834,-3.5891,-3.6178,-3.6361,-3.6361,-3.6361,-3.6178,-3.5849,-3.5187,-3.4608,-3.4111,-3.3617,-3.3508,-3.6882,0.0,0.0,0.0,0.0,0.0,0.0,0.0,0.0,0.0,0.0,0.0,0.0,0.0,0.0,0.0,0.0,0.0,0.0,0.0,0.0,0.0,0.0,0.0,0.0,0.0,0.0,0.0,0.0,0.0,-4.3639,-4.3451,-4.3075,-4.2633,-4.2402,-4.2275,-4.2275,-4.1998,-4.1678,-4.1421,-4.1035,-4.0712,-4.0582,-4.0409,-4.0279,-4.0279,-4.0279,-4.0279,-4.0279,-4.0279,-4.0279,-4.0279,-4.0279,-4.0279,-4.0279,-4.0279,-4.0388,-4.0585,-4.0891,-4.1219,-4.1612,-4.2223,-4.2551,-4.2678,-4.2495,-4.2208,-4.1877,-4.1402,-4.1096,-4.0882,-4.0882,-4.0882,-4.0882,-4.0882,-4.0882,-4.0705,-4.0,-3.9506,-3.9113,-3.8765,-3.9078,-3.9473,-4.0018,-4.0257,-4.0453,-4.0712,-4.0734,-4.0647,-4.0582,-4.0192,-3.9888,-3.9888,-3.9341,-3.9012,-3.9012,-3.8606,-3.8098,-3.7466,-3.7276,-3.6916,-3.626,-3.6545,-3.6728,-3.6728,-3.6728,-3.6545,-3.6239,-3.5449,-3.4807,-3.4407,-3.3713,-3.3487,-3.6959,0.0,0.0,0.0,0.0,0.0,0.0,0.0,0.0,0.0,0.0,0.0,0.0,0.0,0.0,0.0,0.0,0.0,0.0,0.0,0.0,0.0,0.0,0.0,0.0,0.0,0.0,0.0,0.0,0.0,-4.3802,-4.349,-4.3075,-4.2633,-4.2402,-4.2275,-4.2275,-4.2061,-4.1934,-4.1806,-4.1229,-4.0906,-4.0777,-4.0474,-4.0279,-4.0279,-4.0279,-4.0279,-4.0279,-4.0279,-4.0279,-4.0279,-4.0279,-4.0279,-4.0279,-4.0279,-4.0279,-4.0323,-4.0651,-4.0869,-4.1109,-4.1743,-4.2158,-4.2417,-4.2397,-4.2171,-4.1947,-4.1615,-4.1167,-4.0882,-4.0882,-4.0882,-4.0882,-4.0882,-4.0882,-4.0817,-4.0417,-3.9941,-3.9504,-3.9139,-3.9473,-4.0018,-4.0388,-4.0777,-4.11,-4.1421,-4.1357,-4.138,-4.1421,-4.0993,-4.0603,-4.0362,-3.9823,-3.9368,-3.9088,-3.8659,-3.8189,-3.7614,-3.7358,-3.7057,-3.6566,-3.6911,-3.7093,-3.7093,-3.7093,-3.6972,-3.6707,-3.5544,-3.484,-3.4585,-3.3626,-3.3341,0.0,0.0,0.0,0.0,0.0,0.0,0.0,0.0,0.0,0.0,0.0,0.0,0.0,0.0,0.0,0.0,0.0,0.0,0.0,0.0,0.0,0.0,0.0,0.0,0.0,0.0,0.0,0.0,0.0,-4.4089,-4.3778,-4.3467,-4.2988,-4.2316,-4.2275,-4.2275,-4.2275,-4.2275,-4.2148,-4.1806,-4.1421,-4.11,-4.0777,-4.0453,-4.0279,-4.0279,-4.0279,-4.0279,-4.0279,-4.0279,-4.0279,-4.0279,-4.0279,-4.0279,-4.0279,-4.0279,-4.0279,-4.0279,-4.0279,-4.0585,-4.0978,-4.1,-4.1634,-4.2308,-4.2007,-4.1914,-4.1926,-4.1594,-4.1239,-4.0954,-4.0882,-4.0882,-4.0882,-4.0882,-4.0882,-4.09,-4.0815,-4.0492,-4.0087,-3.9753,-4.0018,-4.0409,-4.0777,-4.11,-4.1421,-4.1806,-4.155,-4.1486,-4.1806,-4.155,-4.1091,-4.0576,-4.0215,-3.9721,-3.8944,-3.8501,-3.7992,-3.7167,-3.7436,-3.7407,-3.6932,-3.7214,-3.7374,-3.7374,-3.7374,-3.7374,-3.7374,-3.5525,-3.4606,-3.4585,-3.3335,-3.3069,-3.6709,0.0,0.0,0.0,0.0,0.0,0.0,0.0,0.0,0.0,0.0,0.0,0.0,0.0,0.0,0.0,0.0,0.0,0.0,0.0,0.0,0.0,0.0,0.0,0.0,0.0,0.0,0.0,-4.3192,-4.3192,-4.3072,-4.2857,-4.2514,-4.2101,-4.2195,-4.2275,-4.2275,-4.2275,-4.2275,-4.2148,-4.1572,-4.1251,-4.11,-4.0539,-4.0279,-4.0279,-4.0279,-4.0279,-4.0279,-4.0279,-4.0279,-4.0279,-4.0279,-4.0279,-4.0279,-4.0279,-4.0279,-4.0279,-4.0279,-4.0367,-4.0541,-4.0891,-4.1175,-4.1459,-4.1673,-4.1834,-4.1877,-4.1438,-4.1341,-4.1259,-4.0954,-4.0882,-4.0882,-4.0882,-4.1096,-4.1276,-4.1213,-4.1486,-4.1532,-4.0779,-4.0629,-4.0906,-4.1719,-4.1975,-4.2229,-4.2822,-4.2822,-4.2759,-4.2862,-4.2246,-4.1719,-4.1581,-4.074,-4.0118,-3.9921,-3.9007,-3.8433,-3.82,-3.7728,-3.7406,-3.7275,-3.7314,-3.7374,-3.7374,-3.7374,-3.7374,-3.7374,-3.5941,-3.5136,-3.4938,-3.3832,-3.3466,-3.6593,-3.6499,-3.6405,0.0,0.0,0.0,0.0,0.0,0.0,0.0,0.0,0.0,0.0,0.0,0.0,0.0,0.0,0.0,0.0,0.0,0.0,0.0,0.0,0.0,0.0,0.0,0.0,0.0,-4.2819,-4.276,-4.258,-4.2323,-4.2061,-4.1754,-4.1867,-4.2017,-4.2017,-4.2224,-4.2212,-4.2061,-4.1572,-4.1229,-4.1035,-4.0539,-4.0279,-4.0279,-4.0279,-4.0279,-4.0279,-4.0279,-4.0279,-4.0279,-4.0279,-4.0279,-4.0279,-4.0279,-4.0279,-4.0279,-4.0279,-4.0279,-4.0323,-4.0607,-4.0847,-4.1066,-4.1328,-4.1472,-4.1521,-4.1293,-4.1219,-4.115,-4.0983,-4.0882,-4.0954,-4.1096,-4.1331,-4.1622,-4.1936,-4.2206,-4.2136,-4.1374,-4.1482,-4.1862,-4.2275,-4.2546,-4.2862,-4.3428,-4.3389,-4.3389,-4.3514,-4.2755,-4.211,-4.1961,-4.1106,-4.041,-3.9901,-3.9266,-3.8784,-3.8564,-3.7973,-3.7616,-3.7616,-3.7435,-3.7374,-3.7374,-3.7374,-3.7287,-3.709,-3.6031,-3.5119,-3.4328,-3.3834,-3.3636,-3.6477,-3.6405,-3.6405,-3.6405,0.0,0.0,-3.6985,-3.7513,-3.809,0.0,0.0,0.0,0.0,0.0,0.0,0.0,0.0,0.0,0.0,0.0,0.0,0.0,0.0,0.0,0.0,0.0,0.0,-4.2651,-4.2651,-4.2472,-4.2114,-4.1861,-4.1522,-4.1219,-4.1399,-4.1512,-4.1581,-4.1954,-4.2016,-4.1806,-4.1421,-4.11,-4.0777,-4.0474,-4.0279,-4.0279,-4.0279,-4.0279,-4.0279,-4.0279,-4.0279,-4.0279,-4.0279,-4.0279,-4.0279,-4.0279,-4.0279,-4.0279,-4.0279,-4.0279,-4.0279,-4.0279,-4.0563,-4.0935,-4.0935,-4.0973,-4.1093,-4.1069,-4.0933,-4.0773,-4.0909,-4.0983,-4.1096,-4.1473,-4.1615,-4.1898,-4.2861,-4.2813,-4.2428,-4.1927,-4.2515,-4.2936,-4.2581,-4.2972,-4.3451,-4.3826,-4.3639,-4.3514,-4.3888,-4.3118,-4.2414,-4.205,-4.14,-4.0622,-3.9567,-3.9426,-3.9131,-3.8559,-3.8178,-3.7998,-3.7938,-3.7698,-3.7495,-3.7435,-3.7435,-3.7156,-3.6697,-3.5901,-3.4746,-3.338,-3.3544,-3.3692,-3.6531,-3.6405,0.0,0.0,0.0,0.0,-3.6556,-3.6983,0.0,0.0,0.0,0.0,0.0,0.0,0.0,0.0,0.0,0.0,0.0,0.0,0.0,0.0,0.0,0.0,0.0,0.0,-4.1028,-4.1461,-4.1485,-4.1369,-4.1044,-4.1129,-4.0984,-4.0685,-4.0831,-4.1168,-4.1621,-4.1422,-4.1484,-4.1806,-4.1164,-4.0841,-4.0777,-4.0474,-4.0279,-4.0279,-4.0279,-4.0279,-4.0279,-4.0279,-4.0279,-4.0279,-4.0279,-4.0279,-4.0279,-4.0279,-4.0279,-4.0279,-4.0279,-4.0279,-4.0279,-4.0279,-4.0345,-4.041,-4.041,-4.0694,-4.1018,-4.1118,-4.1139,-4.1177,-4.1213,-4.151,-4.1806,-4.1877,-4.2159,-4.2511,-4.3001,-4.3562,-4.3937,-4.396,-4.3516,-4.3244,-4.3665,-4.3734,-4.3826,-4.4161,-4.4161,-4.4223,-4.4594,-4.3687,-4.3119,-4.3319,-4.2035,-4.1062,-4.085,-4.013,-3.9544,-3.9131,-3.8812,-3.8514,-3.832,-3.8261,-3.8058,-3.7818,-3.7555,-3.7156,-3.6697,-3.5901,-3.5128,-3.4454,-3.4146,-3.3974,0.0,0.0,0.0,-3.6405,0.0,0.0,0.0,-3.6784,0.0,0.0,0.0,0.0,0.0,0.0,0.0,0.0,0.0,0.0,0.0,0.0,0.0,0.0,0.0,0.0,0.0,0.0,-4.0114,-4.0379,-4.029,-4.0216,-4.0307,-4.0082,-4.0071,-4.0174,-4.0361,-4.051,-4.0578,-4.0705,-4.0756,-4.0934,-4.0615,-4.0491,-4.0517,-4.0409,-4.0279,-4.0279,-4.0279,-4.0279,-4.0279,-4.0279,-4.0279,-4.0279,-4.0279,-4.0279,-4.0279,-4.0279,-4.0279,-4.0279,-4.0279,-4.0279,-4.0279,-4.0279,-4.0279,-4.0279,-4.0279,-4.0454,-4.0672,-4.0729,-4.0829,-4.0861,-4.0912,-4.1316,-4.1726,-4.1887,-4.2408,-4.3001,-4.3558,-4.4112,-4.4664,-4.516,-4.4758,-4.4324,-4.4324,-4.4397,-4.4386,-4.4333,-4.4285,-4.4409,-4.4779,-4.3832,-4.3295,-4.3649,-4.2461,-4.1541,-4.1254,-4.0769,-4.0305,-3.9755,-3.9285,-3.9012,-3.8834,-3.8559,-3.8261,-3.7878,-3.7758,-3.7445,-3.7046,-3.6426,-3.5771,-3.5121,-3.4884,-3.4912,0.0,0.0,0.0,0.0,0.0,-3.6405,0.0,0.0,0.0,0.0,0.0,0.0,0.0,0.0,0.0,0.0,0.0,0.0,0.0,0.0,0.0,0.0,0.0,0.0,0.0,0.0,-3.9554,-3.9554,-3.9332,-3.9332,-3.9566,-3.9135,-3.9047,-3.9464,-3.962,-3.9619,-3.9522,-3.9785,-3.9988,-3.9936,-3.9961,-4.0076,-4.0148,-4.0236,-4.0279,-4.0279,-4.0279,-4.0279,-4.0279,-4.0279,-4.0279,-4.0279,-4.0279,-4.0279,-4.0279,-4.0279,-4.0279,-4.0279,-4.0279,-4.0279,-4.0279,-4.0279,-4.0279,-4.0279,-4.0279,-4.0279,-4.028,-4.0408,-4.0427,-4.0533,-4.0672,-4.1032,-4.1465,-4.2007,-4.2587,-4.3309,-4.425,-4.4663,-4.5119,-4.589,-4.5943,-4.5662,-4.4856,-4.4936,-4.4885,-4.4357,-4.4285,-4.4409,-4.4779,-4.3892,-4.3413,-4.3767,-4.2807,-4.1972,-4.1459,-4.1344,-4.1,-4.0397,-3.9896,-3.9544,-3.9426,-3.8775,-3.8298,-3.7998,-3.7938,-3.7758,-3.7374,-3.7003,-3.6448,-3.5734,-3.5706,-3.5838,0.0,0.0,0.0,0.0,-3.6782,0.0,0.0,0.0,0.0,0.0,0.0,0.0,0.0,0.0,0.0,0.0,0.0,0.0,0.0,0.0,0.0,0.0,0.0,0.0,0.0,0.0,0.0,-3.9276,-3.9221,-3.9022,-3.8531,-3.8418,-3.8366,-3.8271,-3.8303,-3.8557,-3.9136,-3.8898,-3.9002,-3.949,-3.9594,-3.9644,-3.971,-4.0083,-4.0279,-4.0279,-4.0279,-4.0279,-4.0279,-4.0279,-4.0279,-4.0279,-4.0279,-4.0279,-4.0279,-4.0279,-4.0279,-4.0279,-4.0279,-4.0279,-4.0279,-4.0279,-4.0279,-4.0279,-4.0279,-4.0279,-4.0279,-4.0345,-4.0607,-4.0956,-4.0933,-4.1281,-4.1874,-4.2652,-4.2943,-4.3303,-4.4504,-4.4983,-4.546,-4.6204,-4.6583,-4.6471,-4.5514,-4.5199,-4.4885,-4.4357,-4.4285,-4.4409,-4.4779,-4.4132,-4.3767,-4.4119,-4.3126,-4.2425,-4.2344,-4.1834,-4.1435,-4.1115,-4.0711,-4.0328,-3.9743,-3.9131,-3.8633,-3.838,-3.8058,-3.7758,-3.7374,-3.733,-3.7068,-3.655,-3.6384,-3.6302,0.0,0.0,0.0,0.0,0.0,0.0,-3.6958,0.0,-3.6618,0.0,0.0,0.0,0.0,0.0,0.0,0.0,0.0,0.0,0.0,0.0,0.0,0.0,0.0,0.0,0.0,0.0,0.0,0.0,0.0,-3.7333,-3.7339,-3.7307,-3.7439,-3.769,-3.7753,-3.7857,-3.7985,-3.8094,-3.837,-3.8671,-3.8682,-3.9075,-3.9622,-3.9819,-4.0017,-4.0279,-4.0279,-4.0279,-4.0279,-4.0279,-4.0279,-4.0279,-4.0279,-4.0279,-4.0279,-4.0279,-4.0279,-4.0279,-4.0279,-4.0279,-4.0279,-4.0279,-4.0279,-4.0279,-4.0279,-4.0279,-4.0279,-4.0279,-4.0432,-4.0585,-4.0585,-4.0935,-4.1482,-4.2391,-4.2971,-4.3577,-4.455,-4.5278,-4.5822,-4.6271,-4.6697,-4.6817,-4.6251,-4.583,-4.5342,-4.4813,-4.4477,-4.4409,-4.4779,-4.4426,-4.4196,-4.4227,-4.3654,-4.3031,-4.2538,-4.2287,-4.1891,-4.1435,-4.0769,-4.0246,-3.9802,-3.9367,-3.8894,-3.844,-3.8261,-3.7938,-3.7374,-3.7374,-3.7407,-3.7389,-3.731,-3.7436,-3.7954,0.0,0.0,0.0,0.0,0.0,0.0,0.0,0.0,0.0,0.0,0.0,0.0,0.0,-3.4727,-3.4583,0.0,0.0,0.0,0.0,0.0,0.0,0.0,0.0,0.0,0.0,0.0,0.0,-3.5788,0.0,-3.6241,-3.6196,-3.642,-3.694,-3.7014,-3.7036,-3.7089,-3.7383,-3.7681,-3.7898,-3.8051,-3.8554,-3.9362,-3.9557,-3.9885,-4.0279,-4.0279,-4.0279,-4.0279,-4.0279,-4.0279,-4.0279,-4.0279,-4.0279,-4.0279,-4.0279,-4.0279,-4.0279,-4.0279,-4.0279,-4.0279,-4.0279,-4.0279,-4.0279,-4.0279,-4.0279,-4.0279,-4.0279,-4.0279,-4.0279,-4.0279,-4.0541,-4.1001,-4.1883,-4.2594,-4.3399,-4.4392,-4.5208,-4.5838,-4.6315,-4.6697,-4.6931,-4.6734,-4.6271,-4.5742,-4.5149,-4.4621,-4.4409,-4.4656,-4.45,-4.4312,-4.4274,-4.4078,-4.3644,-4.2899,-4.2818,-4.2404,-4.1663,-4.0745,-4.013,-3.9919,-3.9544,-3.9072,-3.8537,-3.8477,-3.8238,-3.7698,-3.7698,-3.7818,-3.8058,-3.8118,-3.8395,0.0,0.0,0.0,-3.8005,0.0,0.0,0.0,0.0,-3.6407,0.0,0.0,0.0,0.0,-3.4969,-3.4607,-3.4102,-3.4006,0.0,0.0,0.0,0.0,0.0,0.0,0.0,0.0,0.0,0.0,0.0,-3.523,0.0,-3.5145,-3.5137,-3.5318,-3.5722,-3.5767,-3.6082,-3.6675,-3.6719,-3.6937,-3.7396,-3.7876,-3.8379,-3.8881,-3.934,-3.9885,-4.0279,-4.0279,-4.0279,-4.0279,-4.0279,-4.0279,-4.0279,-4.0279,-4.0279,-4.0279,-4.0279,-4.0279,-4.0279,-4.0279,-4.0279,-4.0279,-4.0279,-4.0279,-4.0279,-4.0279,-4.0279,-4.0279,-4.0279,-4.0279,-4.0279,-4.0279,-4.0301,-4.0541,-4.1353,-4.1815,-4.2478,-4.3848,-4.4679,-4.5352,-4.6244,-4.6697,-4.6931,-4.6734,-4.6271,-4.5742,-4.5149,-4.4621,-4.4285,-4.4285,-4.4135,-4.4159,-4.4435,-4.4324,-4.4045,-4.3758,-4.3505,-4.2881,-4.1688,-4.0745,-4.0223,-4.0165,-3.9603,-3.9108,-3.8812,-3.8812,-3.8633,-3.838,-3.838,-3.838,-3.838,-3.8633,-3.893,0.0,0.0,-3.877,-3.877,0.0,0.0,0.0,0.0,0.0,0.0,0.0,0.0,0.0,-3.4872,-3.4607,-3.4078,-3.3982,-3.3814,0.0,0.0,0.0,0.0,0.0,0.0,0.0,0.0,0.0,-3.3694,-3.3968,-3.4119,0.0,-3.4356,-3.4601,-3.4692,-3.5166,-3.5654,-3.6195,-3.6544,-3.6937,-3.7374,-3.7549,-3.7876,-3.8379,-3.8859,-3.934,-3.9885,-4.0148,-4.0279,-4.0279,-4.0279,-4.0279,-4.0279,-4.0279,-4.0279,-4.0279,-4.0279,-4.0279,-4.0279,-4.0279,-4.0279,-4.0279,-4.0279,-4.0279,-4.0279,-4.0279,-4.0279,-4.0279,-4.0279,-4.0279,-4.0279,-4.0279,-4.0279,-4.0519,-4.1331,-4.1573,-4.2014,-4.3284,-4.3951,-4.446,-4.4976,-4.5526,-4.5895,-4.5834,-4.5574,-4.5269,-4.5101,-4.4621,-4.4285,-4.4285,-4.4425,-4.4488,-4.4508,-4.467,-4.4618,-4.4335,-4.3556,-4.2561,-4.1426,-4.0629,-4.013,-3.9954,-3.9544,-3.9108,-3.8812,-3.8812,-3.8633,-3.838,-3.838,-3.8477,-3.8716,-3.9226,-3.9521,-3.9898,-3.9599,0.0,-3.9352,-3.9048,0.0,-3.838,0.0,0.0,0.0,0.0,0.0,0.0,-3.4895,-3.4558,-3.3885,-3.3765,-3.3525,0.0,-3.2707,0.0,0.0,0.0,0.0,0.0,0.0,-3.2766,-3.2526,-3.2845,-3.309,0.0,0.0,-3.382,-3.4042,-3.4493,-3.5015,-3.5692,-3.6195,-3.6675,-3.7134,-3.7309,-3.7636,-3.8117,-3.8619,-3.91,-3.9644,-4.0126,-4.0279,-4.0279,-4.0279,-4.0279,-4.0279,-4.0279,-4.0279,-4.0279,-4.0279,-4.0279,-4.0279,-4.0279,-4.0279,-4.0279,-4.0149,-4.0084,-4.0084,-3.9953,-3.9888,-3.9953,-4.0084,-4.0084,-4.0149,-4.0279,-4.0279,-4.0432,-4.0913,-4.1176,-4.1505,-4.2457,-4.3054,-4.3559,-4.4136,-4.4682,-4.509,-4.5093,-4.504,-4.4927,-4.5077,-4.4621,-4.4285,-4.4285,-4.447,-4.4633,-4.4597,-4.4814,-4.4833,-4.4559,-4.3431,-4.2345,-4.1543,-4.069,-4.0071,-3.9802,-3.9485,-3.919,-3.899,-3.899,-3.8871,-3.8738,-3.8738,-3.8834,-3.899,-3.9453,-3.9674]}]]